[[{"header":{"parameterUnit":"m.s-1","parameterCategory":1,"la1":30.6,"la2":29.2853,"lo1":-89.7004,"lo2":-87.6739,"dy":0.0162,"dx":0.0183,"nx":112,"ny":82,"refTime":"2023-07-27T12:00:00:Z","depth":0,"parameterNumber":2,"parameterNumberName":"U-component_of_WINDS"},"data":[0.0,0.0,0.0,0.0,0.0,0.0,0.0,0.0,0.0,0.0,0.0,0.0,0.0,0.0,0.0,0.0,0.0,0.0,0.0,0.0,0.0,0.0,0.0,0.0,0.0,0.0,0.0,0.0,0.0,0.0,0.0,0.0,0.0,0.0,0.0,0.0,0.0,0.0,0.0,0.0,0.0,0.0,0.0,0.0,0.0,0.0,0.0,0.0,0.0,0.0,0.0,0.0,0.0,0.0,0.0,0.0,0.0,0.0,0.0,0.0,0.0,0.0,0.0,0.0,0.0,0.0,0.0,0.0,0.0,0.0,0.0,0.0,0.0,0.0,0.0,0.0,0.0,0.0,0.0,0.0,0.0,0.0,0.0,0.0,0.0,0.0,0.0,0.0,0.0,0.0,0.0,-3.1405,-3.0455,-2.955,-2.9299,-2.8068,-2.7513,-2.7863,0.0,0.0,0.0,0.0,0.0,0.0,0.0,0.0,0.0,0.0,0.0,0.0,0.0,0.0,0.0,0.0,0.0,0.0,0.0,0.0,0.0,0.0,0.0,0.0,0.0,0.0,0.0,0.0,0.0,0.0,0.0,0.0,0.0,0.0,0.0,0.0,0.0,0.0,0.0,0.0,0.0,0.0,0.0,0.0,0.0,0.0,0.0,0.0,0.0,0.0,0.0,0.0,0.0,0.0,0.0,0.0,0.0,0.0,0.0,0.0,0.0,0.0,0.0,0.0,0.0,0.0,0.0,0.0,0.0,0.0,0.0,0.0,0.0,0.0,0.0,0.0,0.0,0.0,0.0,0.0,0.0,0.0,0.0,0.0,0.0,0.0,0.0,0.0,0.0,0.0,0.0,0.0,0.0,0.0,0.0,0.0,0.0,0.0,0.0,0.0,0.0,0.0,0.0,0.0,-2.9414,-2.9884,-2.9504,-2.9324,-2.9524,-2.8591,-2.7986,-2.8097,0.0,0.0,0.0,0.0,0.0,0.0,0.0,0.0,0.0,0.0,0.0,0.0,0.0,0.0,0.0,0.0,0.0,0.0,0.0,0.0,0.0,0.0,0.0,0.0,0.0,0.0,0.0,0.0,0.0,0.0,0.0,0.0,0.0,0.0,0.0,0.0,0.0,0.0,0.0,0.0,0.0,0.0,0.0,0.0,0.0,0.0,0.0,0.0,0.0,0.0,0.0,0.0,0.0,0.0,0.0,0.0,0.0,0.0,0.0,0.0,0.0,0.0,0.0,0.0,0.0,0.0,0.0,0.0,0.0,0.0,0.0,0.0,0.0,0.0,0.0,0.0,0.0,0.0,0.0,0.0,0.0,0.0,0.0,0.0,0.0,0.0,0.0,0.0,0.0,0.0,0.0,0.0,0.0,0.0,0.0,0.0,0.0,0.0,0.0,0.0,0.0,0.0,0.0,-2.9226,-2.9289,-2.9099,-2.9099,-2.9099,-2.9035,-2.8345,-2.8015,-2.842,-2.684,0.0,0.0,0.0,0.0,0.0,0.0,0.0,0.0,0.0,0.0,0.0,0.0,0.0,0.0,0.0,0.0,0.0,0.0,0.0,0.0,0.0,0.0,0.0,0.0,0.0,0.0,0.0,0.0,0.0,0.0,0.0,0.0,0.0,0.0,0.0,0.0,0.0,0.0,0.0,0.0,0.0,0.0,0.0,0.0,0.0,0.0,0.0,0.0,0.0,0.0,0.0,0.0,0.0,0.0,0.0,0.0,0.0,0.0,0.0,0.0,0.0,0.0,0.0,0.0,0.0,0.0,0.0,0.0,0.0,0.0,0.0,0.0,0.0,0.0,0.0,0.0,0.0,0.0,0.0,0.0,0.0,0.0,0.0,0.0,0.0,0.0,0.0,0.0,0.0,0.0,0.0,0.0,0.0,0.0,0.0,0.0,0.0,0.0,0.0,0.0,0.0,0.0,-2.9035,-2.9162,-2.8651,-2.8844,-2.8908,-2.8587,-2.818,-2.8112,-2.856,-2.7026,0.0,0.0,0.0,0.0,0.0,0.0,0.0,0.0,0.0,0.0,0.0,0.0,0.0,0.0,0.0,0.0,0.0,0.0,0.0,0.0,0.0,0.0,0.0,0.0,0.0,0.0,0.0,0.0,0.0,0.0,0.0,0.0,0.0,0.0,0.0,0.0,0.0,0.0,0.0,0.0,0.0,0.0,0.0,0.0,0.0,0.0,0.0,0.0,0.0,0.0,0.0,0.0,0.0,0.0,0.0,0.0,0.0,0.0,0.0,0.0,0.0,0.0,0.0,0.0,0.0,0.0,0.0,0.0,0.0,0.0,0.0,0.0,0.0,0.0,0.0,0.0,0.0,0.0,0.0,0.0,0.0,0.0,0.0,0.0,0.0,0.0,0.0,0.0,0.0,0.0,0.0,0.0,0.0,0.0,0.0,0.0,0.0,0.0,0.0,0.0,0.0,0.0,-2.8651,-2.8651,-2.8587,-2.8587,-2.8651,-2.8587,-2.8546,-2.8546,-2.8587,-2.7434,0.0,0.0,0.0,0.0,0.0,0.0,0.0,0.0,0.0,0.0,0.0,0.0,0.0,0.0,0.0,0.0,0.0,0.0,0.0,0.0,0.0,0.0,0.0,0.0,0.0,0.0,0.0,0.0,0.0,0.0,0.0,0.0,0.0,0.0,0.0,0.0,0.0,0.0,0.0,0.0,0.0,0.0,0.0,0.0,0.0,0.0,0.0,0.0,0.0,0.0,0.0,0.0,0.0,0.0,0.0,0.0,0.0,0.0,0.0,0.0,0.0,0.0,0.0,0.0,0.0,0.0,0.0,0.0,0.0,0.0,0.0,0.0,0.0,0.0,0.0,0.0,0.0,0.0,0.0,0.0,0.0,0.0,0.0,0.0,0.0,0.0,0.0,0.0,0.0,0.0,0.0,0.0,0.0,0.0,0.0,0.0,0.0,0.0,0.0,0.0,0.0,0.0,-2.8587,-2.8587,0.0,-2.8587,-2.8587,-2.8587,-2.8587,-2.8587,-2.8587,0.0,0.0,0.0,0.0,0.0,0.0,0.0,0.0,0.0,0.0,0.0,0.0,0.0,0.0,0.0,0.0,0.0,0.0,0.0,0.0,0.0,0.0,0.0,0.0,0.0,0.0,0.0,0.0,0.0,0.0,0.0,0.0,0.0,0.0,0.0,0.0,0.0,0.0,0.0,0.0,0.0,0.0,0.0,0.0,0.0,0.0,0.0,0.0,0.0,0.0,0.0,0.0,0.0,0.0,0.0,0.0,0.0,0.0,0.0,0.0,0.0,0.0,0.0,0.0,0.0,0.0,0.0,0.0,0.0,0.0,0.0,0.0,0.0,0.0,0.0,0.0,0.0,0.0,0.0,0.0,0.0,0.0,0.0,0.0,0.0,0.0,0.0,0.0,0.0,0.0,0.0,0.0,0.0,0.0,0.0,0.0,0.0,0.0,0.0,0.0,0.0,0.0,-2.8587,-2.8587,-2.8587,0.0,-2.8587,-2.8587,-2.8587,-2.8587,-2.8587,-2.8587,0.0,0.0,0.0,0.0,0.0,0.0,0.0,0.0,0.0,0.0,0.0,0.0,0.0,0.0,0.0,0.0,0.0,0.0,0.0,0.0,0.0,0.0,0.0,0.0,0.0,0.0,0.0,0.0,0.0,0.0,0.0,0.0,0.0,0.0,0.0,0.0,0.0,0.0,0.0,0.0,0.0,0.0,0.0,0.0,0.0,0.0,0.0,0.0,0.0,0.0,0.0,0.0,0.0,0.0,0.0,0.0,0.0,0.0,0.0,0.0,0.0,0.0,0.0,0.0,0.0,0.0,0.0,0.0,0.0,0.0,0.0,0.0,0.0,0.0,0.0,0.0,0.0,0.0,0.0,0.0,0.0,0.0,0.0,0.0,0.0,0.0,0.0,0.0,0.0,0.0,0.0,0.0,0.0,0.0,0.0,0.0,0.0,0.0,0.0,0.0,0.0,0.0,-2.8587,-2.8587,-2.8587,-2.8587,-2.8587,-2.8587,-2.8587,-2.8587,-2.8587,0.0,0.0,0.0,0.0,0.0,0.0,0.0,0.0,0.0,0.0,0.0,0.0,0.0,0.0,0.0,0.0,0.0,0.0,0.0,0.0,0.0,0.0,0.0,0.0,0.0,0.0,0.0,0.0,0.0,0.0,0.0,0.0,0.0,0.0,0.0,0.0,0.0,0.0,0.0,0.0,0.0,0.0,0.0,0.0,0.0,0.0,0.0,0.0,0.0,0.0,0.0,0.0,0.0,0.0,0.0,0.0,0.0,0.0,0.0,0.0,0.0,0.0,0.0,0.0,0.0,0.0,0.0,0.0,0.0,0.0,0.0,0.0,0.0,0.0,0.0,0.0,0.0,0.0,0.0,0.0,0.0,0.0,0.0,0.0,0.0,0.0,0.0,0.0,0.0,0.0,0.0,0.0,0.0,0.0,0.0,0.0,0.0,0.0,0.0,0.0,0.0,0.0,0.0,-2.8052,-2.8392,-2.8587,-2.8587,-2.8587,-2.8587,-2.8587,-2.8587,-2.8457,-2.8052,0.0,0.0,0.0,0.0,0.0,0.0,0.0,0.0,0.0,0.0,0.0,0.0,0.0,0.0,0.0,0.0,0.0,0.0,0.0,0.0,0.0,0.0,0.0,0.0,0.0,0.0,0.0,0.0,0.0,0.0,0.0,0.0,0.0,0.0,0.0,0.0,0.0,0.0,0.0,0.0,0.0,0.0,0.0,0.0,0.0,0.0,0.0,0.0,0.0,0.0,0.0,0.0,0.0,0.0,0.0,0.0,0.0,0.0,0.0,0.0,0.0,0.0,0.0,0.0,0.0,0.0,0.0,0.0,0.0,0.0,0.0,0.0,0.0,0.0,0.0,0.0,0.0,0.0,0.0,0.0,0.0,0.0,0.0,0.0,0.0,0.0,0.0,0.0,0.0,0.0,0.0,0.0,0.0,0.0,0.0,0.0,0.0,0.0,0.0,0.0,0.0,0.0,-2.751,-2.7776,-2.8052,-2.8249,-2.8118,-2.8118,-2.8587,-2.8392,-2.8249,-2.8118,0.0,0.0,0.0,0.0,0.0,0.0,0.0,0.0,0.0,0.0,0.0,0.0,0.0,0.0,0.0,0.0,0.0,0.0,0.0,0.0,0.0,0.0,0.0,0.0,0.0,0.0,0.0,0.0,0.0,0.0,0.0,0.0,0.0,0.0,0.0,0.0,0.0,0.0,0.0,0.0,0.0,0.0,0.0,0.0,0.0,0.0,0.0,0.0,0.0,0.0,0.0,0.0,0.0,0.0,0.0,0.0,0.0,0.0,0.0,0.0,0.0,0.0,0.0,0.0,0.0,0.0,0.0,0.0,0.0,0.0,0.0,0.0,0.0,0.0,0.0,0.0,0.0,0.0,0.0,0.0,0.0,0.0,0.0,0.0,0.0,0.0,0.0,0.0,0.0,0.0,0.0,0.0,0.0,0.0,0.0,0.0,0.0,0.0,0.0,0.0,0.0,0.0,-2.6905,-2.6973,-2.7175,-2.7643,-2.731,-2.7377,-2.8392,-2.7987,-2.7908,-2.8392,0.0,0.0,0.0,0.0,0.0,0.0,0.0,0.0,0.0,0.0,0.0,0.0,0.0,0.0,0.0,0.0,0.0,0.0,0.0,0.0,0.0,0.0,0.0,0.0,0.0,0.0,0.0,0.0,0.0,0.0,0.0,0.0,0.0,0.0,0.0,0.0,0.0,0.0,0.0,0.0,0.0,0.0,0.0,0.0,0.0,0.0,0.0,0.0,0.0,0.0,0.0,0.0,0.0,0.0,0.0,0.0,0.0,0.0,0.0,0.0,-3.5342,0.0,0.0,0.0,0.0,0.0,0.0,0.0,0.0,0.0,0.0,0.0,0.0,0.0,0.0,0.0,0.0,0.0,0.0,0.0,0.0,0.0,0.0,0.0,0.0,0.0,0.0,0.0,0.0,0.0,0.0,0.0,0.0,0.0,0.0,0.0,0.0,0.0,0.0,0.0,0.0,0.0,-2.6427,-2.6769,-2.704,-2.7175,-2.704,-2.7108,-2.731,-2.7242,-2.7242,-2.731,0.0,0.0,0.0,0.0,0.0,0.0,0.0,0.0,0.0,0.0,0.0,0.0,0.0,0.0,0.0,0.0,0.0,0.0,0.0,0.0,0.0,0.0,0.0,0.0,0.0,0.0,0.0,0.0,0.0,0.0,0.0,0.0,0.0,0.0,0.0,0.0,0.0,0.0,0.0,0.0,0.0,0.0,0.0,0.0,0.0,0.0,0.0,0.0,0.0,0.0,0.0,0.0,0.0,0.0,0.0,0.0,0.0,0.0,0.0,0.0,0.0,-3.5625,0.0,0.0,0.0,0.0,0.0,0.0,0.0,0.0,0.0,0.0,0.0,0.0,0.0,0.0,0.0,0.0,0.0,0.0,0.0,0.0,0.0,0.0,0.0,0.0,0.0,0.0,0.0,0.0,0.0,0.0,0.0,0.0,0.0,0.0,0.0,0.0,0.0,0.0,0.0,0.0,-2.5804,-2.6,-2.6277,-2.6564,-2.6358,-2.6414,-2.6973,-2.6769,-2.6701,-2.6973,-2.6769,0.0,0.0,0.0,0.0,0.0,0.0,0.0,0.0,0.0,0.0,0.0,0.0,0.0,0.0,0.0,0.0,0.0,0.0,0.0,0.0,0.0,0.0,0.0,0.0,0.0,0.0,0.0,0.0,0.0,0.0,0.0,0.0,0.0,0.0,0.0,0.0,0.0,0.0,0.0,0.0,0.0,0.0,0.0,0.0,0.0,0.0,0.0,0.0,0.0,0.0,0.0,0.0,0.0,-3.8784,-3.8608,-3.8323,-3.8323,-3.8336,-3.828,-3.72,-3.6383,-3.5895,0.0,0.0,0.0,0.0,0.0,0.0,0.0,0.0,0.0,0.0,0.0,0.0,0.0,0.0,0.0,0.0,0.0,0.0,0.0,0.0,0.0,0.0,0.0,0.0,0.0,-2.9927,-2.9602,0.0,0.0,0.0,0.0,0.0,0.0,0.0,0.0,0.0,0.0,0.0,0.0,-2.5312,-2.5312,-2.5523,-2.6013,-2.5594,-2.5652,-2.662,-2.6289,-2.6289,-2.6837,-2.6358,-2.6094,0.0,0.0,0.0,0.0,0.0,0.0,0.0,0.0,0.0,0.0,0.0,0.0,0.0,0.0,0.0,0.0,0.0,0.0,0.0,0.0,0.0,0.0,0.0,0.0,0.0,0.0,0.0,0.0,0.0,0.0,0.0,0.0,-3.5548,-3.565,0.0,0.0,0.0,0.0,0.0,0.0,0.0,0.0,0.0,0.0,0.0,0.0,0.0,0.0,-3.8594,-3.8594,-3.8922,-3.9543,-3.9543,-3.9859,-4.0483,-4.0483,-4.0212,-3.9699,-3.9099,0.0,-3.7907,-3.7414,0.0,0.0,0.0,0.0,0.0,0.0,0.0,0.0,0.0,0.0,0.0,0.0,0.0,0.0,0.0,0.0,0.0,0.0,0.0,0.0,0.0,0.0,-3.0568,-3.0522,-3.028,-2.9988,0.0,-2.9477,-2.9099,-2.9035,0.0,0.0,0.0,0.0,0.0,0.0,0.0,0.0,-2.5312,-2.5312,-2.5312,-2.5382,-2.5382,-2.5382,-2.5523,-2.5453,-2.5664,-2.6302,-2.5734,-2.5664,-2.6164,-2.5591,0.0,0.0,0.0,0.0,0.0,0.0,0.0,0.0,0.0,0.0,0.0,0.0,0.0,0.0,0.0,0.0,0.0,0.0,0.0,0.0,0.0,0.0,0.0,0.0,0.0,0.0,0.0,0.0,0.0,-3.547,-3.5622,-3.5622,-3.5728,-3.5987,0.0,0.0,0.0,0.0,0.0,0.0,0.0,0.0,0.0,-3.9198,-3.9215,-3.9629,-4.0491,-4.0491,-4.0664,-4.0974,-4.0974,-4.094,-4.0888,-4.0888,-4.0805,-4.0611,-4.0001,-3.9631,-3.9402,-3.8078,-3.748,-3.748,0.0,0.0,0.0,0.0,-3.7291,-3.7022,-3.7022,-3.6373,0.0,0.0,0.0,0.0,0.0,0.0,0.0,0.0,0.0,0.0,0.0,0.0,0.0,-3.0341,-3.0233,-3.0111,-3.0111,-2.9865,-2.954,0.0,-2.9022,-2.8546,-2.7229,0.0,0.0,0.0,0.0,0.0,-2.5312,-2.5312,-2.5312,-2.5312,-2.5312,-2.5312,-2.5312,-2.5312,-2.5382,-2.5664,-2.5453,-2.5453,-2.5664,-2.5453,-2.5204,0.0,0.0,0.0,0.0,0.0,0.0,0.0,0.0,0.0,0.0,0.0,0.0,0.0,0.0,0.0,0.0,0.0,0.0,0.0,0.0,0.0,0.0,0.0,0.0,0.0,0.0,0.0,0.0,-3.5622,-3.569,-3.5893,-3.6017,-3.6384,0.0,0.0,0.0,0.0,0.0,0.0,-3.9118,-3.9353,-3.9802,-4.056,-4.0388,-4.0836,-4.1974,-4.1802,-4.1802,-4.1992,-4.1992,-4.1802,-4.1474,-4.1474,-4.1555,-4.1613,-4.0804,-4.0548,-4.0469,-3.8567,-3.7749,-3.7733,-3.7543,-3.748,-3.748,-3.748,-3.748,-3.748,-3.748,-3.6896,-3.6162,-3.609,0.0,-3.3661,-3.3565,0.0,0.0,0.0,0.0,-3.1671,-3.1192,-3.0945,-3.0768,-3.0524,-3.0348,-3.0233,-3.0233,-3.0233,-3.005,0.0,-2.9085,-2.8468,-2.7364,0.0,0.0,0.0,0.0,-2.5312,-2.5312,-2.5312,-2.5312,-2.5312,-2.5312,-2.5312,-2.5312,-2.5312,-2.5312,-2.5312,-2.5312,-2.5312,-2.5312,-2.5312,-2.5312,-2.5312,0.0,0.0,0.0,0.0,0.0,0.0,0.0,0.0,0.0,0.0,0.0,0.0,0.0,0.0,0.0,0.0,0.0,0.0,0.0,0.0,0.0,0.0,0.0,0.0,0.0,0.0,0.0,0.0,0.0,-3.6637,-3.6768,0.0,0.0,0.0,0.0,-3.7993,-3.8973,-3.9868,-4.0542,-4.1392,-4.2181,-4.3024,-4.2268,-4.1905,-4.1992,-4.1285,-4.1285,-4.1992,-4.1992,-4.2354,-4.3111,-4.3111,-4.3078,-4.3062,-4.1774,-4.1259,-4.113,-3.9241,-3.846,-3.8397,-3.7733,-3.748,-3.748,-3.748,-3.748,-3.748,-3.748,-3.7449,-3.7298,-3.6831,-3.5961,-3.4896,-3.3828,-3.3441,0.0,0.0,-3.2469,-3.2454,-3.2425,-3.1946,-3.1467,-3.1406,-3.1018,-3.0568,-3.0568,-3.0568,-3.0462,0.0,-2.954,-2.8753,-2.7683,0.0,-2.6139,-2.5382,-2.5312,-2.5312,-2.5312,-2.5312,-2.5312,-2.5312,-2.5312,-2.5312,-2.5312,-2.5312,-2.5312,-2.5312,-2.5312,-2.5312,-2.5312,-2.5312,-2.5312,-2.5312,-2.5288,0.0,0.0,0.0,0.0,0.0,0.0,0.0,0.0,0.0,0.0,0.0,0.0,0.0,0.0,0.0,0.0,0.0,0.0,0.0,0.0,0.0,0.0,0.0,0.0,0.0,0.0,0.0,0.0,-3.6755,-3.7212,0.0,0.0,-3.9313,-3.9887,-4.0397,-4.1363,-4.1945,-4.2104,-4.2063,-4.2354,-4.3197,-4.2406,-4.2457,-4.3457,-4.3199,-4.344,-4.4199,-4.4199,-4.4354,-4.463,-4.463,-4.4158,-4.3379,-4.2891,-4.2245,-4.1434,-4.0309,-3.9582,-3.9123,-3.8871,-3.8792,-3.8792,-3.8792,-3.8792,-3.8792,-3.8792,-3.8292,-3.7406,-3.6143,-3.5234,-3.4624,-3.4205,-3.408,-3.3949,-3.3311,-3.3122,-3.3035,-3.2629,-3.2338,-3.2164,-3.2164,-3.199,-3.183,-3.183,-3.183,-3.1498,-3.0566,-2.9841,-2.8917,-2.7297,-2.696,-2.662,-2.5816,-2.5688,-2.5688,-2.5688,-2.5535,-2.5453,-2.5453,-2.5382,-2.5312,-2.5312,-2.5312,-2.5312,-2.5312,-2.5312,-2.5312,-2.5312,-2.5312,-2.5312,-2.5312,-2.5312,-2.5075,0.0,0.0,0.0,0.0,0.0,0.0,0.0,0.0,0.0,0.0,0.0,0.0,0.0,0.0,0.0,0.0,0.0,0.0,0.0,0.0,0.0,0.0,0.0,0.0,0.0,0.0,-3.7124,-3.7838,-3.8345,-3.912,-4.0269,-4.0847,-4.1339,-4.1679,-4.2566,-4.3097,-4.3029,-4.2839,-4.3113,-4.3906,-4.3682,-4.4027,-4.5061,-4.5303,-4.5699,-4.6199,-4.5941,-4.582,-4.582,-4.5544,-4.4944,-4.4112,-4.3689,-4.3031,-4.2157,-4.1293,-4.064,-4.0151,-3.9692,-3.9503,-3.9503,-3.9503,-3.9503,-3.9503,-3.9314,-3.862,-3.7563,-3.6237,-3.5448,-3.5009,-3.4791,-3.4733,-3.4603,-3.3964,-3.379,-3.3688,-3.3267,-3.2991,-3.2846,-3.2846,-3.2672,-3.2513,-3.2513,-3.2513,-3.2112,-3.0737,-2.9956,-2.9022,-2.7201,-2.6837,-2.6645,-2.5968,-2.5828,-2.5828,-2.5828,-2.5606,-2.5535,-2.5535,-2.5382,-2.5312,-2.5312,-2.5312,-2.5312,-2.5312,-2.5312,-2.5312,-2.5312,-2.5312,-2.5312,-2.5312,-2.5312,-2.4744,-2.3715,0.0,0.0,0.0,0.0,0.0,0.0,0.0,0.0,0.0,0.0,0.0,0.0,0.0,0.0,0.0,0.0,0.0,0.0,0.0,0.0,0.0,0.0,0.0,-3.6832,-3.7018,-3.7836,-3.9834,-4.0138,-4.0713,-4.2151,-4.2426,-4.2312,-4.1699,-4.2483,-4.3082,-4.3268,-4.3975,-4.4716,-4.5475,-4.6251,-4.6648,-4.6648,-4.7355,-4.7717,-4.77,-4.6993,-4.6648,-4.6613,-4.5855,-4.544,-4.5352,-4.4088,-4.3529,-4.3393,-4.2126,-4.1588,-4.1446,-4.0103,-3.9566,-3.9566,-3.9566,-3.9566,-3.9503,-3.8914,-3.8361,-3.7864,-3.7282,-3.674,-3.6199,-3.559,-3.547,-3.5256,-3.4646,-3.4457,-3.4443,-3.4443,-3.3978,-3.3499,-3.3499,-3.3021,-3.2571,-3.2571,-3.2507,-3.209,-3.0624,-2.9876,-2.9026,-2.7507,-2.6709,-2.6181,-2.6005,-2.5783,0.0,-2.5606,-2.5453,-2.5312,-2.5312,-2.5312,-2.5312,-2.5312,-2.5312,-2.5312,-2.5312,-2.5312,-2.5312,-2.5312,-2.5312,-2.5312,-2.5312,-2.53,-2.4554,-2.3021,0.0,0.0,0.0,0.0,0.0,0.0,0.0,0.0,0.0,0.0,0.0,0.0,0.0,0.0,0.0,0.0,0.0,0.0,0.0,0.0,0.0,0.0,-3.5802,-3.6847,-3.7947,-3.8968,-3.9986,-4.1035,-4.1899,-4.2428,-4.3078,-4.3439,-4.327,-4.4696,-4.5524,-4.5419,-4.6284,-4.6872,-4.7079,-4.7303,-4.7424,-4.7424,-4.7614,-4.7717,-4.7717,-4.751,-4.7424,-4.7407,-4.7182,-4.6533,-4.5524,-4.4682,-4.3784,-4.2756,-4.1948,-4.1588,-4.1541,-4.1162,-4.102,-4.102,-4.102,-4.102,-4.0876,-3.9835,-3.9133,-3.8531,-3.7446,-3.674,-3.6272,-3.6098,-3.604,-3.6011,-3.5836,-3.5459,-3.5111,-3.5111,-3.4632,-3.4153,-3.4153,-3.4022,-3.3891,-3.3891,-3.3446,-3.2595,-3.1308,-3.0405,-2.9489,-2.8092,-2.7717,-2.7448,-2.6976,-2.6843,0.0,-2.6295,-2.605,-2.591,-2.5758,-2.5606,-2.5453,-2.5312,-2.5312,-2.5312,0.0,-2.5312,-2.5312,-2.5312,-2.5312,-2.5312,-2.5312,-2.4743,-2.3927,0.0,0.0,0.0,0.0,0.0,0.0,0.0,0.0,0.0,0.0,0.0,0.0,0.0,0.0,0.0,0.0,0.0,0.0,0.0,0.0,0.0,0.0,-3.6322,-3.675,-3.7875,-3.876,-3.9814,-4.1285,-4.2236,-4.2949,-4.3342,-4.4164,-4.4678,-4.4715,-4.6045,-4.6824,-4.679,-4.7348,-4.7717,-4.7717,-4.801,-4.8183,-4.8183,-4.851,-4.8665,-4.8665,-4.8338,-4.8183,-4.8165,-4.7855,-4.6918,0.0,-4.494,-4.392,-4.2522,-4.19,-4.1588,0.0,0.0,0.0,0.0,0.0,-4.1588,-4.1459,-4.022,-3.9604,-3.9143,-3.7937,-3.7317,-3.7056,-3.6809,-3.6722,-3.6664,-3.6388,-3.604,-3.5706,-3.543,-3.5082,-3.4748,-3.4472,-3.4414,-3.4332,-3.3962,-3.352,-3.2821,-3.1397,0.0,0.0,-2.9012,-2.8423,-2.7996,-2.767,-2.7548,-2.7347,-2.6797,-2.6454,-2.6156,-2.5783,-2.5606,-2.5453,-2.5453,-2.5382,0.0,0.0,0.0,-2.5312,-2.5312,-2.5312,0.0,0.0,0.0,-2.358,-2.2491,0.0,0.0,0.0,-2.0459,-1.9955,0.0,0.0,0.0,0.0,0.0,0.0,0.0,0.0,0.0,0.0,0.0,0.0,0.0,0.0,0.0,0.0,-3.7569,-3.8087,-3.9314,-3.9534,-4.0484,-4.2959,-4.3432,-4.3859,-4.4637,-4.5314,-4.5794,-4.6034,-4.6885,-4.7427,-4.7631,0.0,0.0,0.0,0.0,-4.8959,-4.8959,-4.9648,-5.0011,-4.9993,-4.9304,-4.8959,-4.8924,-4.8269,-4.7175,-4.5838,-4.5173,-4.4118,-4.2636,-4.2027,-4.1667,-4.1588,-4.1588,-4.1588,-4.1588,-4.1588,-4.1588,-4.144,-4.0324,0.0,0.0,-3.8546,-3.8202,-3.8101,-3.7564,-3.7404,-3.7288,-3.6693,-3.6475,-3.6286,-3.572,-3.5543,-3.5227,-3.4646,-3.4472,-3.4182,-3.3367,-3.3143,-3.2635,-3.118,-3.082,-3.0545,-2.9934,-2.8963,-2.8273,-2.821,-2.8038,-2.7765,-2.7217,-2.6734,-2.6298,-2.5822,0.0,0.0,-2.5606,-2.5465,-2.5453,-2.5606,-2.5453,-2.5312,-2.5312,-2.5312,-2.4933,-2.412,-2.4127,-2.3363,-2.1765,-2.1797,-2.1356,-2.0566,-2.0566,-2.0048,0.0,0.0,0.0,0.0,0.0,0.0,0.0,0.0,0.0,0.0,0.0,0.0,0.0,0.0,0.0,-3.7461,-3.7954,-3.8784,-4.007,-4.0309,-4.0855,-4.2419,-4.3665,-4.4654,-4.5415,-4.5716,-4.6153,-4.6903,-4.7843,-4.8369,-4.8557,-4.9217,0.0,-4.9562,-4.97,-4.9769,-4.9769,-4.9924,-5.0011,-5.0011,0.0,0.0,-4.9769,-4.9631,-4.8751,-4.7318,-4.6674,-4.5255,-4.3379,-4.2709,-4.2126,-4.1588,-4.1588,-4.1588,-4.1588,-4.1588,-4.1588,-4.144,-4.0324,-3.9889,-3.9677,-3.8546,-3.8202,-3.8188,-3.8072,-3.8028,0.0,-3.7868,-3.7491,-3.7085,-3.6954,-3.6156,-3.5398,-3.5212,-3.4777,-3.4182,-3.3367,-3.272,-3.2001,-3.1106,-3.0406,-3.0011,-2.9792,-2.9616,-2.9315,-2.8837,-2.8687,-2.8487,-2.7936,-2.7413,-2.7018,-2.6763,-2.6309,-2.591,-2.5606,-2.5676,-2.5758,-2.5606,-2.5535,-2.5465,-2.5312,-2.5312,-2.4933,-2.412,-2.4131,-2.3356,-2.1803,-2.18,-2.1385,-2.0566,-2.0566,-1.9743,0.0,0.0,0.0,0.0,0.0,0.0,0.0,0.0,0.0,0.0,0.0,-3.6599,0.0,0.0,-3.8123,-3.8462,-3.88,-3.9365,-4.0364,-4.0758,-4.1501,-4.2805,-4.3623,-4.4522,-4.5716,-4.6123,-4.6765,-4.7745,-4.8555,-4.91,-4.9258,-4.9729,-5.0011,-5.0011,-5.0011,-5.0011,-5.0011,-5.0011,-5.0011,-5.0011,-5.0011,-5.0011,-5.0011,-4.959,-4.865,-4.7295,-4.6583,-4.5081,-4.3083,-4.2401,-4.192,-4.1588,-4.1588,-4.1588,-4.1588,-4.1588,-4.1456,-4.1055,-4.0185,-3.9692,-3.9349,-3.8486,-3.8202,-3.8202,-3.8202,-3.8202,-3.8202,-3.8202,-3.7984,-3.768,-3.7389,-3.6823,-3.617,-3.5517,-3.4833,-3.4001,-3.2874,-3.206,-3.1267,-3.0482,-3.0075,-2.9792,-2.9792,-2.9792,-2.9691,-2.9402,-2.9365,-2.9151,-2.8586,-2.8211,-2.7863,-2.7406,-2.7073,-2.6729,-2.6304,-2.6304,-2.6233,-2.6162,-2.619,-2.6275,-2.6251,-2.5813,-2.521,-2.4287,-2.3908,-2.3139,-2.1839,-2.1809,-2.166,-2.123,-2.0719,-1.9707,0.0,0.0,0.0,0.0,0.0,0.0,0.0,0.0,-3.603,-3.6569,-3.723,-3.7692,-3.7692,-3.8246,-3.8893,-3.9431,-3.9631,-3.9908,-4.0447,-4.0956,-4.1771,-4.3136,-4.3453,-4.4173,-4.5886,-4.6547,-4.7335,-4.8472,-4.9146,-4.953,-4.9708,-4.986,-4.9935,-5.0011,-5.0011,-5.0011,-5.0011,-5.0011,-5.0011,-5.0011,-5.0011,-4.9935,-4.9801,-4.9161,-4.8111,-4.6716,-4.5942,-4.4525,-4.2837,-4.211,-4.1715,-4.1588,-4.1588,-4.1588,-4.1588,-4.1588,-4.1256,-4.0715,-4.0115,-3.9565,-3.9031,-3.8427,-3.8202,-3.8202,-3.8202,-3.8202,-3.8202,-3.8202,-3.8202,-3.8086,-3.7607,-3.7404,-3.6968,-3.5825,-3.4868,-3.3826,-3.2359,-3.1421,-3.0683,-2.9921,-2.9792,-2.9792,-2.9792,-2.9792,-2.9792,-2.9792,-2.9792,-2.9616,-2.9151,-2.885,-2.8537,-2.8076,-2.7779,-2.7532,-2.7242,-2.7001,-2.6941,-2.6941,-2.6992,-2.7136,-2.7273,-2.6358,-2.5438,-2.4478,-2.3705,-2.2839,-2.1885,-2.1885,-2.1885,-2.1885,-2.0848,-1.9738,-3.3121,-3.3752,-3.426,-3.4337,-3.486,-3.5399,0.0,0.0,-3.7292,-3.7369,-3.7923,-3.84,-3.84,-3.8954,-3.9431,-3.9508,-4.0016,-4.0432,-4.0524,-4.0593,-4.1091,-4.2458,-4.3136,-4.4314,-4.6515,-4.6852,-4.7597,-4.8991,-4.9376,-4.953,-4.9708,-4.9708,-4.9801,-5.0011,-5.0011,-5.0011,-5.0011,-5.0011,-5.0011,-5.0011,-5.0011,-4.9666,-4.9023,-4.8961,-4.8125,-4.6734,-4.5378,-4.4345,-4.3564,-4.2853,-4.2173,-4.1588,-4.1588,-4.1588,-4.1588,-4.1588,-4.1256,-4.0715,-4.0115,-3.9565,-3.9031,-3.8427,-3.8202,-3.8202,-3.8202,-3.8202,-3.8202,-3.8202,-3.8202,-3.8188,-3.813,-3.7709,-3.7038,-3.6155,-3.5057,-3.3779,-3.2124,-3.1323,-3.0683,-2.9921,-2.9792,-2.9792,-2.9792,-2.9792,-2.9792,-2.9792,-2.9792,-2.9767,-2.9704,-2.9252,-2.8825,-2.8762,-2.8324,-2.7999,-2.7949,-2.7777,-2.7704,-2.7704,-2.768,-2.7631,-2.7471,-2.6486,-2.5481,-2.4681,-2.3695,-2.2768,-2.1885,-2.1885,-2.1885,-2.1885,-2.0848,-1.9885,-3.4306,-3.4829,0.0,0.0,-3.6153,-3.6661,-3.6661,-3.74,-3.8092,-3.8092,-3.8631,-3.9093,-3.9093,-3.9647,-4.0108,0.0,-4.0339,-4.0524,-4.0524,-4.0524,-4.0836,-4.1836,-4.2527,-4.4017,-4.6667,-4.6903,-4.7573,-4.9248,-4.935,-4.9411,-4.9708,-4.9649,-4.9725,-5.0011,-4.986,-4.986,-5.0011,-5.0011,-5.0011,-5.0011,-4.9573,-4.9178,-4.8883,-4.8046,-4.7137,-4.6143,-4.516,-4.4338,-4.3674,-4.2979,-4.2252,-4.1588,-4.1588,-4.1588,-4.1588,-4.1256,-4.0768,-4.02,-3.9636,-3.9075,-3.8501,-3.8277,-3.8202,-3.8202,-3.8202,-3.8202,-3.8202,-3.8202,-3.8202,-3.8202,-3.8202,-3.7624,-3.6869,-3.6183,-3.4843,-3.3534,-3.2424,-3.1694,-3.0991,-3.0398,-3.0269,-3.0168,-2.9842,-2.9792,-2.9792,-2.9792,-2.9792,-2.9792,-2.9792,-2.9578,-2.9428,-2.9428,-2.8925,-2.8586,-2.8586,-2.8338,-2.8338,-2.8425,-2.8498,-2.8595,-2.8571,-2.7219,-2.6177,-2.551,-2.4169,-2.3203,-2.2617,-2.2617,-2.2351,-2.1729,-2.0745,-1.9769,-3.5491,0.0,0.0,-3.6692,-3.7277,-3.7784,-3.7784,-3.8308,-3.8785,-3.8785,-3.9323,-3.9801,-3.9801,-4.0201,0.0,-4.0524,-4.0524,-4.0524,-4.0524,-4.0709,-4.1078,-4.1692,-4.2473,-4.3877,-4.6397,-4.674,-4.746,-4.8927,-4.9152,-4.929,-4.953,-4.953,-4.9607,-4.9935,-4.986,-4.986,-5.0011,-5.0011,-5.0011,-5.0011,-4.9239,-4.8821,-4.8572,-4.7153,-4.6246,-4.5776,-4.5254,-4.4527,-4.369,-4.3184,-4.2426,-4.1588,-4.1588,-4.1588,-4.1522,-4.0836,-4.027,-3.9834,-3.9307,-3.8723,-3.8202,-3.8202,-3.8202,-3.8202,-3.8202,-3.8202,-3.8202,-3.8202,-3.8202,-3.8202,-3.8202,-3.7567,-3.6746,-3.6052,-3.4631,-3.3297,-3.2652,-3.1894,-3.1286,-3.0896,-3.0834,-3.0696,-3.0306,-3.0118,-3.0018,-3.0018,-2.9892,-2.9792,-2.9792,-2.9792,-2.9792,-2.9792,-2.9415,-2.9164,-2.9164,-2.8999,-2.8999,-2.9164,-2.9232,-2.9378,-2.9509,-2.7799,-2.6637,-2.6295,-2.4659,-2.358,-2.3232,-2.3232,-2.2687,-2.1695,-2.0692,-1.9695,0.0,0.0,-3.8262,-3.7631,-3.7984,-3.8477,-3.8477,-3.9,-3.9493,-3.9493,-4.0016,-4.0493,-4.0493,-4.0524,-4.0524,-4.0524,-4.0524,-4.0524,-4.0524,-4.1124,-4.1821,-4.2464,-4.3132,-4.4156,0.0,-4.6485,-4.7265,-4.79,-4.8765,-4.9229,-4.9229,-4.9428,-4.953,-4.9708,-4.986,-5.0011,-5.0011,-5.0011,-5.0011,-5.0011,-4.9239,-4.8572,-4.7885,-4.6458,-4.5807,-4.5807,-4.5792,-4.5001,-4.3722,-4.3706,-4.2853,-4.1588,-4.1588,-4.1588,-4.144,-4.0324,-3.9905,-3.9834,-3.9307,-3.8723,-3.8202,-3.8202,-3.8202,-3.8202,-3.8202,-3.8202,-3.8202,-3.8202,-3.8202,-3.8202,-3.8202,-3.7567,-3.6674,-3.5842,-3.4526,-3.3251,-3.2427,-3.1763,-3.1386,-3.1373,-3.1361,-3.1361,-3.1348,-3.0922,-3.0595,-3.0595,-3.0131,-2.9792,-2.9792,-2.9792,-2.9792,-2.9792,-2.9779,-2.9767,-2.9767,-2.9767,-2.9767,-2.9767,-2.9779,-2.9792,-2.9792,-2.7879,-2.6812,-2.6812,-2.4829,-2.3667,-2.3503,-2.3503,-2.2862,-2.1695,-2.0692,-1.9695,0.0,0.0,-3.8,-3.8677,-3.9016,-3.917,-3.917,-3.9708,-4.0324,-4.0801,-4.1078,-4.1386,-4.1832,-4.154,-4.1232,-4.1232,-4.0832,-4.0693,-4.117,-4.1447,-4.1826,-4.2543,-4.318,0.0,0.0,0.0,0.0,-4.7104,-4.7422,-4.7671,-4.7917,-4.795,-4.8096,-4.848,-4.8463,-4.8463,-4.8623,-4.8623,-4.8623,-4.8606,-4.7868,-4.7153,-4.6458,-4.6008,-4.5807,-4.5807,-4.5807,-4.5017,-4.3722,-4.3722,-4.2884,-4.1588,-4.1588,-4.1588,-4.144,-4.0324,-3.9889,-3.9763,-3.8855,-3.8352,-3.8202,-3.8202,-3.8202,-3.8202,-3.8202,-3.8202,-3.8202,-3.8202,-3.781,-3.7323,-3.7323,-3.6294,-3.5196,-3.4855,-3.3978,-3.3107,-3.2865,-3.2641,-3.2403,-3.2014,-3.1938,-3.1813,-3.1449,-3.1248,-3.1009,-3.067,-3.0143,-2.9792,-2.9792,-2.9792,-2.9792,-2.9792,-2.9792,-2.9792,-2.9792,-2.9792,-2.9792,-2.9792,-2.9792,-2.9546,-2.8961,-2.7718,-2.6648,-2.5986,-2.468,-2.3851,-2.3503,-2.3503,-2.2501,-2.0692,-2.0331,-1.933,-3.88,-3.8877,-3.8739,-3.9354,-3.9693,-3.9878,-3.9878,-4.0416,-4.097,-4.117,-4.1432,-4.1648,-4.1832,-4.1509,-4.1294,-4.1555,-4.1217,-4.1155,-4.1863,-4.2155,-4.2463,-4.291,-4.3541,0.0,0.0,0.0,0.0,-4.6362,-4.6759,-4.7017,-4.7188,-4.7272,-4.7422,-4.7803,-4.7737,-4.7737,-4.7885,-4.7885,-4.7754,-4.7489,-4.7017,-4.6442,-4.5807,-4.5807,-4.5807,-4.5807,-4.5807,-4.5017,-4.3722,-4.3722,-4.2884,-4.1588,-4.1588,-4.1456,-4.1189,-4.0255,-3.9763,-3.9493,-3.856,-3.8202,-3.8202,-3.8202,-3.8202,-3.8202,-3.8202,-3.8202,-3.8202,-3.8202,-3.7567,-3.6936,-3.6936,-3.5669,-3.4397,-3.4397,-3.3738,-3.3081,-3.3081,-3.3081,-3.2968,-3.2591,-3.2516,-3.2403,-3.2051,-3.1825,-3.1499,-3.0972,-3.0583,-3.0218,-2.9842,-2.9792,-2.9792,-2.9792,-2.9792,-2.9792,-2.9792,-2.9792,-2.9792,-2.9792,-2.9792,-2.9378,-2.8542,-2.7637,-2.6648,-2.5663,-2.4775,-2.411,-2.3764,-2.3764,-2.2589,-2.0503,-2.0503,-1.9487,-3.86,-3.9524,-4.0324,-3.9724,-4.0047,-4.0539,-4.057,-4.1078,-4.137,-4.077,-4.1155,-4.1401,0.0,0.0,-4.0816,-4.1494,-4.1571,-4.1801,-4.2509,-4.314,-4.3541,0.0,0.0,0.0,0.0,0.0,0.0,-4.5551,0.0,-4.6965,-4.6981,-4.7272,-4.7456,-4.7523,-4.7671,-4.7754,-4.7819,-4.7819,-4.7422,-4.6759,-4.6759,-4.6442,-4.5807,-4.5807,-4.5807,-4.5807,-4.5807,-4.5017,-4.3722,-4.3722,-4.2868,-4.1588,-4.1588,-4.1256,-4.073,-4.0115,-3.9565,-3.9031,-3.8427,-3.8202,-3.8202,-3.8202,-3.8202,-3.8202,-3.8127,-3.8127,-3.8127,-3.8052,-3.7414,-3.678,-3.678,-3.5588,-3.4314,-3.4314,-3.3738,-3.3081,-3.3081,-3.3081,-3.3081,-3.3081,-3.3081,-3.3081,-3.3081,-3.2616,-3.2064,-3.1512,-3.1436,-3.1047,-2.998,-2.9829,-2.9829,-2.9792,-2.9792,-2.9792,-2.9792,-2.9792,-2.9792,-2.9792,-2.9792,-2.9378,-2.8462,-2.7557,-2.6648,-2.5746,-2.4946,-2.4368,-2.4206,-2.411,-2.3038,-2.0979,-2.0988,-1.9929,-3.9739,-3.9893,-3.9862,-4.0185,-4.0401,-4.0662,-4.1201,-4.1047,-4.1047,-4.1909,-4.1817,-4.1694,0.0,0.0,0.0,-4.1571,-4.1155,0.0,-4.2432,-4.2756,0.0,0.0,0.0,-4.4572,-4.4572,-4.4572,0.0,0.0,-4.5216,-4.5526,-4.5687,-4.5744,-4.5961,-4.6262,-4.6175,-4.6175,-4.6333,-4.6333,-4.6262,-4.6064,-4.6064,-4.5936,-4.5807,-4.5807,-4.5807,-4.5807,-4.5807,-4.5001,-4.369,-4.369,-4.2853,-4.1588,-4.1588,-4.1256,-4.073,-4.0115,-3.9565,-3.9031,-3.8427,-3.8202,-3.8202,-3.8202,-3.8202,-3.8052,-3.7414,-3.7246,-3.7092,-3.6425,-3.5642,-3.5032,-3.5032,-3.4217,-3.3398,-3.3398,-3.324,-3.3081,-3.3081,-3.3081,-3.3081,-3.3081,-3.3081,-3.3081,-3.3081,-3.2955,-3.2667,-3.2089,-3.2001,-3.1612,-3.0545,-3.0407,-3.0244,-2.9829,-2.9792,-2.9792,-2.9792,-2.9792,-2.9792,-2.9792,-2.9792,-2.9131,-2.7557,-2.7232,-2.6412,-2.4861,-2.4615,-2.4368,-2.4206,-2.3484,-2.2555,-2.1396,-2.0677,-1.9668,-3.9801,-4.0016,-4.0047,-4.0432,-4.0524,-4.0632,-4.1032,-4.1063,-4.114,-4.1601,-4.1648,0.0,0.0,0.0,0.0,0.0,0.0,0.0,-4.2463,-4.2848,-4.331,0.0,-4.4402,0.0,-4.4572,-4.4572,-4.4572,0.0,-4.4889,-4.5039,-4.5055,-4.522,-4.5442,-4.5662,-4.5589,-4.5589,-4.5807,-4.5807,-4.5807,-4.5807,-4.5807,-4.5807,-4.5807,-4.5807,-4.5807,-4.5792,0.0,-4.4701,-4.3674,-4.3374,-4.2584,-4.1588,-4.1588,-4.1107,-4.0339,-4.0045,-3.9406,-3.8649,-3.8352,-3.8202,-3.8202,-3.8202,-3.8202,-3.8037,-3.7169,-3.6936,-3.6688,-3.5869,-3.5006,-3.4397,-3.4397,-3.3738,-3.3081,-3.3081,-3.3081,-3.3081,-3.3081,-3.3081,-3.3081,-3.3081,-3.3081,-3.3081,-3.3081,-3.3081,-3.2968,-3.2641,-3.2591,-3.2277,-3.1424,-3.0909,-3.0495,-3.0181,-2.9942,-2.9792,-2.9792,-2.9792,-2.9792,-2.9792,-2.9456,-2.8554,-2.7151,-2.673,-2.5924,-2.454,-2.454,-2.4557,-2.4676,-2.3673,-2.2787,-2.2075,-2.0977,-1.9942,-3.9447,-4.0078,-4.0524,-4.0524,-4.0524,-4.0555,-4.0647,-4.1078,-4.1309,-4.0786,0.0,-4.1263,-4.0647,0.0,-4.0724,-4.1355,0.0,-4.1694,-4.2371,-4.3033,-4.3479,-4.3556,-4.4156,-4.4572,-4.4572,-4.4572,-4.4572,-4.4572,-4.498,-4.5055,-4.4874,-4.5278,-4.5442,-4.5442,-4.5515,-4.5589,-4.5735,-4.5735,-4.5735,-4.5807,-4.5807,-4.5807,-4.5807,-4.5807,-4.576,-4.5634,0.0,0.0,-4.3532,-4.2932,-4.2252,-4.1588,-4.1522,-4.082,-3.9889,-3.9834,-3.9133,-3.8202,-3.8202,-3.8202,-3.8202,-3.8202,-3.8127,-3.7872,-3.7014,-3.661,-3.6373,-3.5548,-3.4772,-3.423,-3.423,-3.3654,-3.3081,-3.3081,-3.3081,-3.3081,-3.3081,-3.3081,-3.3081,-3.3081,-3.3081,-3.3081,-3.3081,-3.3081,-3.3081,-3.3081,-3.3081,-3.2893,-3.239,-3.1386,-3.0696,-3.062,-3.0118,-2.9792,-2.9792,-2.9792,-2.9792,-2.9792,-2.8961,-2.8051,-2.7151,-2.6235,-2.5421,-2.454,-2.4516,-2.483,-2.5233,-2.4078,-2.3303,-2.2951,-2.1456,-2.0418,-4.0016,-4.0432,-4.0524,-4.0524,-4.0524,-4.0693,-4.1278,-4.1047,0.0,0.0,0.0,-4.0678,-4.0555,-4.0524,0.0,-4.0693,0.0,0.0,0.0,0.0,-4.2971,0.0,0.0,0.0,0.0,0.0,0.0,0.0,0.0,0.0,-4.4874,-4.5129,-4.522,-4.522,-4.5442,-4.5515,-4.5515,-4.5515,-4.5662,-4.5807,-4.5807,-4.5807,-4.5807,-4.5807,-4.5476,-4.4891,0.0,0.0,-4.2853,-4.2742,-4.2252,-4.1588,-4.1122,-4.0493,-3.9834,-3.9436,-3.8797,-3.8202,-3.8202,-3.8202,-3.8202,-3.8202,-3.772,-3.6922,-3.6108,-3.5318,-3.462,-3.381,-3.3398,-3.3326,-3.3326,-3.324,-3.3081,-3.3081,-3.3081,-3.3081,-3.3081,-3.3081,-3.3081,-3.3081,-3.3081,-3.3081,-3.3081,-3.3081,-3.3081,-3.3081,-3.3081,-3.3043,-3.2943,-3.1951,-3.1085,-3.0658,-3.0118,-2.9792,-2.9792,-2.9792,-2.9792,-2.9792,-2.8961,-2.8051,-2.7151,-2.6235,-2.5421,-2.454,-2.4923,-2.515,-2.5233,-2.3727,-2.3167,-2.3277,-2.1172,-2.0085,-4.017,-4.0524,-4.0524,-4.0524,-4.0262,-4.0185,-4.0878,0.0,0.0,0.0,0.0,-4.0524,-4.0524,0.0,0.0,0.0,0.0,0.0,0.0,0.0,0.0,0.0,0.0,0.0,0.0,0.0,0.0,0.0,0.0,0.0,-4.4874,-4.5055,-4.522,-4.522,-4.5294,-4.5368,-4.5515,-4.5515,-4.5589,-4.5807,-4.5807,-4.5807,-4.5807,-4.5412,-4.5049,-4.467,-4.3959,0.0,-4.2663,-4.2284,-4.1904,-4.1522,-4.0987,-4.0424,-3.9834,-3.9307,-3.8723,-3.8202,-3.8202,-3.8202,-3.8202,-3.8202,-3.7644,-3.6766,-3.5869,-3.5006,-3.423,-3.3326,-3.3081,-3.3081,-3.3081,-3.3081,-3.3081,-3.3081,-3.3081,-3.3081,-3.3081,-3.3081,-3.3081,-3.3081,-3.3081,-3.3081,-3.3081,-3.3081,-3.3081,-3.3081,-3.3081,-3.3081,-3.3081,-3.234,-3.1612,-3.1072,-3.0545,-3.0105,-2.9817,-2.9378,-2.9131,-2.9131,-2.7879,-2.6894,-2.64,-2.5589,-2.5051,-2.4892,-2.5119,-2.5461,-2.5927,-2.4049,-2.34,-2.3697,-2.1235,-2.0036,-3.9939,-4.0309,-4.0309,-4.0309,-3.9908,-3.9662,-4.0185,-3.9893,0.0,0.0,-4.0524,-4.0524,-4.0524,0.0,0.0,0.0,0.0,0.0,0.0,0.0,0.0,0.0,0.0,0.0,0.0,0.0,0.0,0.0,0.0,0.0,-4.4874,-4.5055,-4.522,-4.522,-4.522,-4.5294,-4.5442,-4.5442,-4.5515,-4.5735,-4.5807,-4.5728,-4.5555,-4.497,-4.4543,-4.4211,-4.3153,0.0,0.0,-4.1825,-4.1522,-4.139,-4.0836,-4.027,-3.9692,-3.909,-3.8575,-3.8202,-3.8202,-3.8202,-3.8202,-3.7962,-3.7323,-3.6517,-3.5789,-3.4924,-3.3992,-3.3326,-3.3081,-3.3081,-3.3081,-3.3081,-3.3081,-3.3081,-3.3081,-3.3081,-3.3081,-3.3081,-3.3081,-3.3081,-3.3081,-3.3081,-3.3081,-3.3081,-3.3081,-3.3081,-3.3081,-3.3081,-3.3081,-3.2679,-3.219,-3.1625,-3.0997,-3.0394,-2.9842,-2.904,-2.8462,-2.8462,-2.6812,-2.5819,-2.5819,-2.4935,-2.4757,-2.5223,-2.5326,-2.5771,-2.6568,-2.4536,-2.3678,-2.3989,-2.1285,-2.0086,-3.9247,-3.9616,-3.9616,-3.9616,-3.957,-3.9539,-3.9601,0.0,0.0,-4.0385,-4.0524,-4.0524,-4.0524,-4.0524,-4.0524,0.0,0.0,0.0,0.0,0.0,0.0,0.0,0.0,0.0,0.0,0.0,0.0,0.0,0.0,0.0,0.0,-4.5055,-4.522,-4.522,-4.522,-4.522,-4.522,-4.522,-4.5294,-4.5515,-4.5735,-4.546,-4.4812,-4.4733,-4.4038,-4.2868,0.0,0.0,0.0,-4.162,-4.1323,-4.0783,-4.02,-3.9636,-3.909,-3.8501,-3.8277,-3.8202,-3.8202,-3.8202,-3.8052,-3.7246,-3.6439,-3.5695,-3.5615,-3.4511,-3.3154,-3.3167,-3.3081,-3.3081,-3.3081,-3.3081,-3.3081,-3.3081,-3.3081,-3.3081,-3.3081,-3.3081,-3.3081,-3.3081,-3.3081,-3.3081,-3.3081,-3.3081,-3.3081,-3.3081,-3.3081,-3.3081,-3.3081,-3.3031,-3.278,-3.2202,-3.1223,-3.0394,-2.9842,-2.904,-2.8462,-2.8462,-2.6812,-2.5819,-2.5819,-2.4935,-2.4757,-2.5223,-2.5616,-2.6061,-2.6568,-2.4832,-2.3952,-2.3692,-2.1285,-1.9983,-3.7455,-3.7916,-3.8258,-3.8258,-3.8254,-3.8523,-3.9339,0.0,-3.9082,-3.9637,-4.0146,-4.037,-3.9849,-4.0146,-4.0524,-4.0524,0.0,0.0,0.0,0.0,0.0,0.0,0.0,0.0,0.0,0.0,0.0,0.0,0.0,0.0,0.0,-4.4889,-4.5039,-4.5039,-4.5039,-4.5055,-4.522,-4.4856,-4.4856,-4.5,-4.4717,-4.4385,-4.4101,-4.369,-4.32,-4.2663,0.0,0.0,0.0,-4.1588,-4.1256,-4.073,-4.013,-3.9565,-3.9031,-3.8427,-3.8202,-3.8202,-3.8202,-3.8202,-3.8037,-3.7169,-3.6281,-3.5548,-3.5006,-3.405,-3.3081,-3.3081,-3.3081,-3.3081,-3.3081,-3.3081,-3.3081,-3.3081,-3.3081,-3.3081,-3.3081,-3.3081,-3.3081,-3.3081,-3.3081,-3.3081,-3.3081,-3.3081,-3.3081,-3.3081,-3.3081,-3.3081,-3.3081,-3.3081,-3.2729,-3.1813,-3.1336,-3.0871,-3.0331,-2.8655,-2.7637,-2.7637,-2.6008,-2.502,-2.502,-2.47,-2.4881,-2.5606,-2.5792,-2.6248,-2.6982,-2.5692,-2.4688,-2.389,-2.2089,-2.0783,-3.6003,-3.6443,-3.6788,-3.6788,-3.6783,-3.7122,0.0,0.0,-3.825,-3.8639,-3.9485,-3.999,-3.9391,-3.9763,-4.0231,-4.0455,0.0,-4.0524,0.0,0.0,0.0,0.0,0.0,0.0,0.0,0.0,0.0,0.0,0.0,0.0,0.0,-4.4598,-4.4673,-4.4949,-4.4822,-4.4802,-4.4966,-4.4407,-4.4189,-4.4331,-4.3927,-4.3595,-4.3406,-4.2916,-4.2568,-4.2331,0.0,0.0,0.0,-4.1588,-4.1174,-4.0493,-4.0045,-3.9478,-3.8797,-3.8352,-3.8202,-3.8202,-3.8202,-3.8202,-3.8037,-3.6922,-3.6108,-3.5386,-3.4384,-3.3569,-3.3081,-3.3081,-3.3081,-3.3081,-3.3081,-3.3081,-3.3081,-3.3081,-3.3081,-3.3081,-3.3081,-3.3081,-3.3081,-3.3081,-3.3081,-3.3081,-3.3081,-3.3081,-3.3081,-3.3081,-3.3081,-3.3081,-3.3081,-3.3081,-3.2704,-3.1738,-3.1486,-3.1122,-3.0432,-2.8345,-2.7069,-2.7069,-2.5443,-2.454,-2.454,-2.454,-2.4902,-2.5668,-2.5813,-2.6268,-2.7055,-2.6118,-2.5089,-2.3989,-2.2693,-2.1387,-3.5165,-3.5339,-3.5339,-3.5339,-3.5339,-3.5339,0.0,0.0,-3.7401,-3.7244,-3.8339,-3.932,-3.9305,-3.932,-3.9535,-4.037,-4.0524,0.0,0.0,0.0,0.0,0.0,0.0,0.0,0.0,0.0,0.0,0.0,0.0,0.0,0.0,-4.409,-4.4251,-4.5188,-4.4664,-4.4432,-4.4432,-4.3741,-4.3411,-4.3411,-4.3636,-4.3358,-4.2695,-4.2695,-4.2284,0.0,0.0,0.0,0.0,-4.1588,-4.0956,-3.9889,-3.9889,-3.919,-3.8202,-3.8202,-3.8202,-3.8202,-3.8202,-3.8202,-3.7872,-3.6188,-3.5615,-3.5305,-3.3641,-3.3081,-3.3081,-3.3081,-3.3081,-3.3081,-3.3081,-3.3081,-3.3081,-3.3081,-3.3081,-3.3081,-3.3081,-3.3081,-3.3081,-3.3081,-3.3081,-3.3081,-3.3081,-3.3081,-3.3081,-3.3081,-3.3081,-3.3081,-3.3081,-3.3081,-3.2855,-3.2265,-3.1725,-3.0959,-2.9892,-2.8143,-2.7069,-2.7069,-2.5443,-2.454,-2.454,-2.454,-2.4757,-2.5233,-2.5658,-2.6113,-2.6579,-2.5968,-2.4992,-2.3692,-2.2584,-2.1285,-3.3282,-3.3536,-3.3845,-3.3845,-3.4261,-3.4719,-3.5238,-3.5959,-3.6531,-3.6439,-3.7502,-3.8473,-3.8473,-3.8928,-3.9535,-4.037,-4.0524,0.0,0.0,0.0,0.0,0.0,0.0,0.0,0.0,0.0,0.0,0.0,0.0,0.0,0.0,0.0,-4.3975,-4.4251,-4.3872,-4.3725,-4.3725,-4.3189,-4.2926,-4.2926,-4.2505,-4.2141,-4.1936,-4.1936,0.0,0.0,0.0,0.0,0.0,-4.1588,-4.0956,-3.9889,-3.9889,-3.919,-3.8202,-3.8202,-3.8202,-3.8202,-3.8202,-3.8202,-3.7886,-3.6188,-3.5615,-3.5305,-3.3641,-3.3081,-3.3081,-3.3081,-3.3081,-3.3081,-3.3081,-3.3081,-3.3081,-3.3081,-3.3081,-3.3081,-3.3081,-3.3081,-3.3081,-3.3081,-3.3081,-3.3081,-3.3081,-3.3081,-3.3081,-3.3081,-3.3081,-3.3081,-3.3081,-3.3081,-3.2717,-3.175,-3.1499,-3.111,-3.0419,-2.8345,-2.7069,-2.7069,-2.5443,-2.454,-2.454,-2.454,-2.4757,-2.5223,-2.5368,-2.5813,-2.6568,-2.6433,-2.5486,-2.3989,-2.2693,-2.1387,0.0,-3.2503,-3.2832,-3.2832,-3.3171,0.0,0.0,-3.5025,-3.5666,-3.5258,-3.6547,-3.7663,-3.7663,-3.8135,-3.8805,-3.9889,-4.0086,0.0,0.0,0.0,0.0,0.0,0.0,0.0,0.0,0.0,0.0,0.0,0.0,0.0,0.0,0.0,-4.318,-4.3149,-4.3099,-4.3088,-4.3173,-4.2548,-4.2268,-4.2268,-4.181,-4.1588,-4.1588,-4.1588,0.0,0.0,0.0,0.0,0.0,-4.1323,-4.0615,-3.9565,-3.9565,-3.8987,-3.8202,-3.8202,-3.8202,-3.8202,-3.8202,-3.8202,-3.7886,-3.6188,-3.5142,-3.4428,-3.3398,-3.3081,-3.3081,-3.3081,-3.3081,-3.3081,-3.3081,-3.3081,-3.3081,-3.3081,-3.3081,-3.3081,-3.3081,-3.3081,-3.3081,-3.3081,-3.3081,-3.3081,-3.3081,-3.3081,-3.3081,-3.3081,-3.3081,-3.3081,-3.3081,-3.3081,-3.2641,-3.1512,-3.1386,-3.1004,-2.9868,-2.816,-2.6987,-2.6648,-2.5274,-2.454,-2.454,-2.454,-2.4674,-2.4964,-2.514,-2.5502,-2.6061,-2.6023,-2.5261,-2.377,-2.2524,-2.1221,0.0,-3.2182,0.0,0.0,0.0,0.0,0.0,-3.3601,0.0,-3.4072,-3.5452,-3.6788,-3.6866,-3.6968,-3.7478,-3.8865,-3.9297,0.0,0.0,0.0,0.0,0.0,0.0,0.0,0.0,0.0,0.0,0.0,0.0,0.0,0.0,0.0,-4.2069,-4.2022,-4.2191,-4.2412,-4.2616,-4.1936,-4.1588,-4.1588,-4.1588,-4.1588,-4.1588,-4.1588,0.0,0.0,0.0,0.0,0.0,-4.0799,-4.0161,-3.9104,-3.9104,-3.8723,-3.8202,-3.8202,-3.8202,-3.8202,-3.8202,-3.8202,-3.7886,-3.6188,-3.4511,-3.3081,-3.3081,-3.3081,-3.3081,-3.3081,-3.3081,-3.3081,-3.3081,-3.3081,-3.3081,-3.3081,-3.3081,-3.3081,-3.3081,-3.3081,-3.3081,-3.3081,-3.3081,-3.3081,-3.3081,-3.3081,-3.3081,-3.3081,-3.3081,-3.3081,-3.3081,-3.3043,-3.2604,-3.1512,-3.1361,-3.0562,-2.8546,-2.7637,-2.6741,-2.5819,-2.4935,-2.454,-2.454,-2.454,-2.454,-2.454,-2.4995,-2.5233,-2.5233,-2.5063,-2.4507,-2.335,-2.2244,-2.0942,-3.2182,0.0,-3.2182,-3.2182,-3.2182,-3.2182,0.0,-3.2872,-3.3602,-3.3851,0.0,-3.5476,-3.6129,-3.6217,-3.6453,-3.6967,-3.7983,0.0,0.0,0.0,0.0,0.0,0.0,0.0,0.0,0.0,0.0,0.0,0.0,0.0,0.0,0.0,-4.162,-4.1351,-4.1351,-4.1539,-4.1841,-4.1683,-4.1588,-4.1588,-4.1588,-4.1588,-4.1588,-4.1588,0.0,0.0,0.0,0.0,-4.0799,-4.0799,-4.0161,-3.9104,-3.9104,-3.8723,-3.8202,-3.8202,-3.8202,-3.8202,-3.8202,-3.8202,-3.7886,-3.6215,-3.4524,-3.3081,-3.3081,-3.3081,-3.3081,-3.3081,-3.3081,-3.3081,-3.3081,-3.3081,-3.3081,-3.3081,-3.3081,-3.3081,-3.3081,-3.3081,-3.3081,-3.3081,-3.3081,-3.3081,-3.3081,-3.3081,-3.3081,-3.3081,-3.3081,-3.3081,-3.3081,-3.2692,-3.2152,-3.1461,-3.1035,-2.9843,-2.7615,-2.7232,-2.6741,-2.5819,-2.4935,-2.454,-2.454,-2.454,-2.454,-2.454,-2.4995,-2.5233,-2.5233,-2.5501,-2.4809,-2.3015,-2.2536,-2.1198,-3.2182,-3.2182,-3.2182,-3.2182,-3.2182,-3.2182,-3.2182,0.0,0.0,0.0,0.0,0.0,0.0,0.0,0.0,0.0,0.0,0.0,0.0,0.0,0.0,0.0,0.0,0.0,0.0,0.0,0.0,0.0,0.0,0.0,0.0,0.0,-4.0598,-4.0439,-4.0935,-4.1339,-4.1588,-4.1588,-4.1588,-4.1588,-4.1588,-4.1588,-4.1588,-4.1588,0.0,0.0,0.0,0.0,-4.0355,-4.0146,-3.9508,-3.8649,-3.8649,-3.8501,-3.8202,-3.8202,-3.8202,-3.8202,-3.8202,-3.772,-3.683,-3.5963,-3.4524,-3.3081,-3.3081,-3.3081,-3.3081,-3.3081,-3.3081,-3.3081,-3.3081,-3.3081,-3.3081,-3.3081,-3.3081,-3.3081,-3.3081,-3.3081,-3.3081,-3.3081,-3.3081,-3.3081,-3.3081,-3.3081,-3.3081,-3.3081,-3.3081,-3.298,-3.2717,-3.2403,-3.1913,-3.1122,-3.0783,-2.9628,-2.7278,-2.7069,-2.6577,-2.5263,-2.4786,-2.454,-2.454,-2.454,-2.454,-2.454,-2.4788,-2.4923,-2.4923,-2.5368,-2.4746,-2.3074,-2.2599,-2.1458,-3.2182,-3.2182,-3.2182,-3.2182,-3.2182,-3.2182,-3.2182,0.0,0.0,0.0,0.0,0.0,0.0,0.0,0.0,0.0,0.0,0.0,0.0,0.0,0.0,0.0,0.0,0.0,0.0,0.0,0.0,0.0,0.0,0.0,0.0,0.0,0.0,-3.9433,-4.0447,-4.1091,-4.1358,-4.1507,-4.1588,-4.1588,-4.1588,-4.1588,-4.1588,-4.1588,-4.1588,0.0,0.0,0.0,-3.9834,-3.9307,-3.8723,-3.8202,-3.8202,-3.8202,-3.8202,-3.8202,-3.8202,-3.8202,-3.8202,-3.7078,-3.5615,-3.5615,-3.4511,-3.3081,-3.3081,-3.3081,-3.3081,-3.3081,-3.3081,-3.3081,-3.3081,-3.3081,-3.3081,-3.3081,-3.3081,-3.3081,-3.3081,-3.3081,-3.3081,-3.3081,-3.3081,-3.3081,-3.3081,-3.3081,-3.3081,-3.3081,-3.3081,-3.2867,-3.229,-3.2139,-3.1712,-3.0721,-3.0545,-2.9542,-2.7267,-2.7069,-2.6329,-2.4625,-2.454,-2.454,-2.454,-2.454,-2.454,-2.454,-2.454,-2.454,-2.454,-2.4933,-2.4482,-2.3214,-2.2437,-2.176,-3.2182,-3.2182,-3.2182,-3.2182,-3.2182,-3.2182,-3.2182,-3.225,0.0,0.0,0.0,0.0,0.0,0.0,0.0,0.0,0.0,0.0,0.0,0.0,0.0,0.0,0.0,0.0,0.0,0.0,0.0,0.0,0.0,0.0,0.0,0.0,0.0,-3.8561,-3.9058,-3.9703,-4.0317,-4.1142,-4.1588,-4.1588,-4.1588,-4.1588,-4.1588,-4.1588,-4.1588,0.0,0.0,-4.0493,-3.9834,-3.9307,-3.8723,-3.8202,-3.8202,-3.8202,-3.8202,-3.8202,-3.8202,-3.8202,-3.8202,-3.7078,-3.5615,-3.5615,-3.4511,-3.3081,-3.3081,-3.3081,-3.3081,-3.3081,-3.3081,-3.3081,-3.3081,-3.3081,-3.3081,-3.3081,-3.3081,-3.3081,-3.3081,-3.3081,-3.3081,-3.3081,-3.3081,-3.3081,-3.3081,-3.3081,-3.3081,-3.3081,-3.3081,-3.2867,-3.229,-3.18,-3.1286,-3.0683,-3.0193,-2.9138,-2.7232,-2.7069,-2.6329,-2.4625,-2.454,-2.454,-2.454,-2.454,-2.454,-2.454,-2.454,-2.454,-2.454,-2.4612,-2.4018,-2.2851,-2.2555,-2.1743,-3.2182,-3.2182,-3.2182,-3.2182,-3.2182,-3.2182,-3.2182,-3.2182,0.0,0.0,0.0,0.0,0.0,0.0,0.0,0.0,0.0,0.0,0.0,0.0,0.0,0.0,0.0,0.0,0.0,0.0,0.0,0.0,0.0,0.0,0.0,0.0,0.0,0.0,-3.8635,-3.929,-3.9905,-4.0393,-4.082,-4.1189,-4.082,-4.0668,-4.0668,-4.1039,-4.0972,-4.0668,0.0,-3.999,-3.9436,-3.887,-3.8427,-3.8202,-3.8202,-3.8202,-3.8202,-3.8202,-3.8202,-3.8202,-3.8202,-3.7078,-3.5615,-3.5615,-3.4511,-3.3081,-3.3081,-3.3081,-3.3081,-3.3081,-3.3081,-3.3081,-3.3081,-3.3081,-3.3081,-3.3081,-3.3081,-3.3081,-3.3081,-3.3081,-3.3081,-3.3081,-3.3081,-3.3081,-3.3081,-3.3081,-3.3081,-3.3081,-3.3081,-3.2767,-3.1876,-3.1549,-3.1072,-3.0256,-2.9526,-2.8554,-2.7232,-2.6648,-2.583,-2.4625,-2.454,-2.454,-2.454,-2.454,-2.454,-2.454,-2.454,-2.454,-2.454,-2.4368,-2.41,-2.357,-2.2755,-2.2315,-3.195,-3.2096,-3.2182,-3.2182,0.0,-3.2182,-3.2182,-3.2182,0.0,0.0,0.0,0.0,0.0,0.0,0.0,0.0,0.0,0.0,0.0,0.0,0.0,0.0,0.0,0.0,0.0,0.0,0.0,0.0,0.0,0.0,0.0,0.0,0.0,0.0,-3.7979,-3.859,-3.9133,-3.919,-3.9677,-4.0562,-4.0115,-3.9889,-3.9905,-4.0355,-4.0339,-3.9889,-3.9763,-3.9508,-3.9031,-3.8427,-3.8202,-3.8202,-3.8202,-3.8202,-3.8202,-3.8202,-3.8202,-3.8202,-3.7962,-3.6908,-3.5534,-3.5386,-3.4275,-3.3081,-3.3081,-3.3081,-3.3081,-3.3081,-3.3081,-3.3081,-3.3081,-3.3081,-3.3081,-3.3081,-3.3081,-3.3081,-3.3081,-3.3081,-3.3081,-3.3081,-3.3081,-3.3081,-3.3081,-3.3081,-3.3081,-3.3081,-3.2968,-3.2516,-3.1512,-3.1286,-3.0846,-2.9892,-2.9209,-2.8303,-2.7232,-2.608,-2.5179,-2.454,-2.454,-2.454,-2.454,-2.454,-2.454,-2.454,-2.454,-2.4454,-2.4454,-2.4292,-2.4206,-2.411,-2.3115,-2.3038,-3.1307,-3.1703,-3.2182,-3.2182,-3.2182,-3.2182,-3.2182,-3.2182,0.0,-3.2236,0.0,0.0,0.0,0.0,0.0,0.0,0.0,0.0,0.0,0.0,0.0,0.0,0.0,0.0,0.0,0.0,0.0,0.0,0.0,0.0,0.0,0.0,0.0,0.0,0.0,-3.6808,-3.7357,-3.726,-3.8159,-3.996,-3.9905,-3.9889,-3.9889,-3.996,-3.996,-3.9889,-3.9364,-3.9177,-3.9031,-3.8427,-3.8202,-3.8202,-3.8202,-3.8202,-3.8202,-3.8202,-3.8202,-3.8052,-3.7246,-3.636,-3.5467,-3.4703,-3.3894,-3.3081,-3.3081,-3.3081,-3.3081,-3.3081,-3.3081,-3.3081,-3.3081,-3.3081,-3.3081,-3.3081,-3.3081,-3.3081,-3.3081,-3.3081,-3.3081,-3.3081,-3.3081,-3.3081,-3.3081,-3.3081,-3.3081,-3.3081,-3.2616,-3.2064,-3.1461,-3.0972,-3.0444,-2.9854,-2.9714,-2.8961,-2.7232,-2.56,-2.454,-2.454,-2.454,-2.454,-2.454,-2.454,-2.454,-2.454,-2.454,-2.4368,-2.4206,-2.4206,-2.411,-2.3841,-2.3754,-2.3667,-3.122,-3.1703,-3.2182,-3.2182,-3.2182,0.0,0.0,-3.2182,-3.2182,-3.2182,-3.2643,0.0,0.0,0.0,0.0,0.0,0.0,0.0,0.0,0.0,0.0,0.0,0.0,0.0,0.0,0.0,0.0,0.0,0.0,0.0,0.0,0.0,0.0,0.0,0.0,-3.6615,-3.7106,-3.7056,-3.7505,-3.8472,-3.8472,-3.862,-3.8841,-3.9205,-3.9205,-3.8841,-3.9017,-3.8885,-3.8501,-3.8277,-3.8202,-3.8202,-3.8202,-3.8202,-3.8202,-3.8202,-3.8202,-3.8127,-3.781,-3.6752,-3.5534,-3.5237,-3.4204,-3.3081,-3.3081,-3.3081,-3.3081,-3.3081,-3.3081,-3.3081,-3.3081,-3.3081,-3.3081,-3.3081,-3.3081,-3.3081,-3.3081,-3.3081,-3.3081,-3.3081,-3.3081,-3.3081,-3.3081,-3.3081,-3.3081,-3.3081,-3.2591,-3.2014,-3.1461,-3.0934,-3.0407,-2.9854,-2.93,-2.8303,-2.6483,-2.5663,-2.5348,-2.5348,-2.4775,-2.454,-2.454,-2.454,-2.454,-2.454,-2.4368,-2.4292,-2.4206,-2.3947,-2.3851,-2.4024,-2.3764,-2.3677,-3.1071,-3.1542,-3.1936,-3.2169,0.0,0.0,-3.2182,-3.2182,-3.2182,-3.2182,-3.2643,0.0,0.0,0.0,0.0,0.0,0.0,0.0,0.0,0.0,0.0,0.0,0.0,0.0,0.0,0.0,0.0,0.0,0.0,0.0,0.0,0.0,0.0,0.0,0.0,0.0,-3.6587,-3.6758,-3.6993,-3.738,-3.7534,-3.7839,-3.8202,-3.8649,-3.8575,-3.8202,-3.8649,-3.8575,-3.8202,-3.8202,-3.8202,-3.8202,-3.8202,-3.8202,-3.8202,-3.8202,-3.8202,-3.8127,-3.7886,-3.683,-3.5548,-3.5305,-3.4275,-3.3081,-3.3081,-3.3081,-3.3081,-3.3081,-3.3081,-3.3081,-3.3081,-3.3081,-3.3081,-3.3081,-3.3081,-3.3081,-3.3081,-3.3081,-3.3081,-3.3081,-3.3081,-3.3081,-3.3081,-3.3081,-3.3018,-3.283,-3.2315,-3.175,-3.1223,-3.0683,-3.0218,-2.9829,-2.904,-2.7879,-2.6318,-2.5986,-2.5819,-2.5819,-2.4935,-2.4615,-2.4946,-2.4615,-2.454,-2.454,-2.4282,-2.4206,-2.4206,-2.3764,-2.3764,-2.4024,-2.3764,-2.3667,-3.0846,-3.122,-3.1381,0.0,0.0,0.0,-3.2182,-3.2182,-3.2182,-3.2182,0.0,0.0,0.0,0.0,0.0,0.0,0.0,0.0,0.0,0.0,0.0,0.0,0.0,0.0,0.0,0.0,0.0,0.0,0.0,0.0,0.0,0.0,0.0,0.0,0.0,0.0,-3.571,-3.6138,-3.6628,-3.6978,-3.738,-3.7839,-3.8202,-3.8202,-3.8202,-3.8202,-3.8202,-3.8202,-3.8202,-3.8202,-3.8202,-3.8202,-3.8202,-3.8202,-3.8202,-3.8202,-3.8202,-3.8052,-3.7169,-3.636,-3.5467,-3.4703,-3.3823,-3.3081,-3.3081,-3.3081,-3.3081,-3.3081,-3.3081,-3.3081,-3.3081,-3.3081,-3.3081,-3.3081,-3.3081,-3.3081,-3.3081,-3.3081,-3.3081,-3.3081,-3.3081,-3.3081,-3.3068,-3.3068,-3.2867,-3.229,-3.1738,-3.1198,-3.067,-3.0131,-2.9792,-2.9792,-2.904,-2.8131,-2.7151,-2.6318,-2.5819,-2.5819,-2.502,-2.4946,-2.5746,-2.4935,-2.454,-2.454,-2.4282,-2.4206,-2.4206,-2.3937,-2.3841,-2.3841,-2.3841,-2.3667,-3.0317,-3.0846,0.0,0.0,0.0,0.0,0.0,-3.2182,0.0,0.0,0.0,0.0,0.0,0.0,0.0,0.0,0.0,0.0,0.0,0.0,0.0,0.0,0.0,0.0,0.0,0.0,0.0,0.0,0.0,0.0,0.0,0.0,0.0,0.0,0.0,0.0,-3.6232,-3.6615,-3.6993,-3.738,-3.7534,-3.7839,-3.8202,-3.8202,-3.8202,-3.8202,-3.8202,-3.8202,-3.8202,-3.8202,-3.8202,-3.8202,-3.8202,-3.8202,-3.8202,-3.8202,-3.8202,-3.8127,-3.7886,-3.683,-3.5534,-3.5305,-3.4275,-3.3081,-3.3081,-3.3081,-3.3081,-3.3081,-3.3081,-3.3081,-3.3081,-3.3081,-3.3081,-3.3081,-3.3081,-3.3081,-3.3081,-3.3081,-3.3081,-3.3081,-3.3081,-3.2955,-3.2541,-3.2466,-3.2277,-3.1725,-3.1185,-3.0393,-2.9267,-2.898,-2.8882,-2.8882,-2.9209,-2.8803,-2.7232,-2.7476,-2.7383,-2.6741,-2.6494,-2.6163,-2.5819,-2.4935,-2.454,-2.454,-2.4282,-2.4206,-2.4206,-2.3764,-2.3667,-2.3754,-2.3484,-2.3406,-3.0393,0.0,0.0,0.0,0.0,0.0,0.0,0.0,0.0,0.0,0.0,0.0,0.0,0.0,0.0,0.0,0.0,0.0,0.0,0.0,0.0,0.0,0.0,0.0,0.0,0.0,0.0,0.0,0.0,0.0,0.0,0.0,0.0,0.0,0.0,0.0,-3.6615,-3.707,-3.738,-3.7625,-3.7763,-3.7991,-3.8202,-3.8202,-3.8202,-3.8202,-3.8202,-3.8202,-3.8202,-3.8202,-3.8202,-3.8202,-3.8202,-3.8202,-3.8202,-3.8202,-3.8202,-3.8202,-3.8202,-3.7078,-3.5615,-3.5615,-3.4511,-3.3081,-3.3081,-3.2918,-3.2729,-3.2729,-3.2579,-3.2403,-3.2403,-3.2403,-3.2466,-3.2679,-3.2729,-3.2667,-3.2453,-3.2403,-3.2403,-3.2403,-3.2403,-3.2206,-3.1509,-3.1376,-3.1095,-3.0141,-2.9525,-2.9076,-2.8578,-2.8462,-2.8621,-2.8961,-2.9468,-2.9209,-2.781,-2.8131,-2.8291,-2.7718,-2.7313,-2.7058,-2.6894,-2.5673,-2.4861,-2.454,-2.4282,-2.4206,-2.4292,-2.3851,-2.3667,-2.3754,-2.3406,-2.3319,-3.0696,0.0,0.0,0.0,0.0,0.0,0.0,0.0,0.0,0.0,0.0,0.0,0.0,0.0,0.0,0.0,0.0,0.0,0.0,0.0,0.0,0.0,0.0,0.0,0.0,0.0,0.0,0.0,0.0,0.0,0.0,0.0,0.0,0.0,0.0,0.0,-3.7225,-3.7628,-3.7859,0.0,-3.8225,-3.8376,-3.8376,-3.826,-3.8202,-3.8202,-3.8202,-3.8202,-3.8202,-3.8202,-3.8202,-3.8202,-3.8202,-3.8202,-3.8202,-3.8202,-3.8202,-3.8202,-3.8202,-3.7078,-3.5601,-3.5547,-3.4432,-3.2993,-3.2943,-3.2554,-3.2139,-3.2139,-3.1775,-3.1386,-3.1386,-3.1386,-3.1499,-3.1964,-3.2102,-3.2001,-3.1499,-3.1386,-3.1386,-3.1386,-3.1386,-3.1128,-3.0311,-3.0049,-2.9535,-2.8277,-2.7625,-2.7557,-2.8383,-2.8462,-2.8791,-2.9624,-2.9792,-2.9456,-2.8542,-2.8542,-2.8542,-2.8542,-2.7799,-2.7637,-2.8462,-2.673,-2.5421,-2.4615,-2.4368,-2.4292,-2.4454,-2.4013,-2.3754,-2.3754,-2.359,-2.3319,0.0,-3.0088,0.0,0.0,0.0,0.0,0.0,0.0,0.0,0.0,0.0,0.0,0.0,0.0,0.0,0.0,0.0,0.0,0.0,0.0,0.0,0.0,0.0,0.0,0.0,0.0,0.0,0.0,0.0,0.0,0.0,0.0,0.0,0.0,0.0,-3.8506,-3.8922,-3.9384,-3.9526,0.0,-3.9605,-3.9683,-3.9654,-3.8667,-3.8202,-3.8202,-3.8202,-3.8202,-3.8202,-3.8202,-3.8202,-3.8202,-3.8202,-3.8202,-3.8202,-3.8202,-3.8202,-3.8202,-3.8202,-3.7078,-3.5533,-3.5072,-3.3815,-3.2315,-3.1888,-3.1662,-3.1574,-3.1574,-3.1486,-3.1386,-3.1386,-3.1386,-3.1323,-3.1035,-3.1273,-3.1537,-3.1411,-3.1386,-3.1386,-3.1386,-3.1386,-3.1179,-3.0605,-2.9939,-2.9244,-2.8474,-2.8295,-2.8291,-2.8462,-2.8462,-2.8542,-2.8791,-2.9378,-2.9456,-2.8542,-2.9131,-2.9209,-2.8542,-2.8961,-2.8882,-2.8223,-2.6648,-2.5663,-2.5253,-2.4615,-2.411,-2.3927,-2.3677,-2.359,-2.359,-2.3319,-2.3144,0.0,0.0,0.0,0.0,0.0,0.0,0.0,0.0,0.0,0.0,0.0,0.0,0.0,0.0,0.0,0.0,0.0,0.0,0.0,0.0,0.0,0.0,0.0,0.0,0.0,0.0,0.0,0.0,0.0,0.0,0.0,0.0,0.0,0.0,-3.8394,-3.8655,-3.9173,-3.9576,-3.9816,-3.9816,-4.0025,-4.0104,-4.0075,-3.9407,-3.9102,-3.9102,-3.9102,-3.9102,-3.9102,-3.9102,-3.8942,-3.8681,-3.8681,-3.8478,-3.8202,-3.8202,-3.7774,-3.72,-3.72,-3.5892,-3.418,-3.3872,-3.2917,-3.1763,-3.1474,-3.1223,-3.1022,-3.1022,-3.0834,-3.062,-3.062,-3.062,-3.0557,-3.0281,-3.0633,-3.0947,-3.0683,-3.062,-3.062,-3.062,-3.062,-3.0453,-2.9677,-2.8871,-2.8116,-2.7846,-2.781,-2.7971,-2.8462,-2.8462,-2.8633,-2.904,-2.9546,-2.9624,-2.9131,-2.9546,-2.9624,-2.9131,-2.9546,-2.9456,-2.8779,-2.7706,-2.6577,-2.5348,-2.4946,-2.4358,-2.3841,-2.358,-2.3503,-2.3503,-2.3232,-2.3135,0.0,0.0,0.0,0.0,0.0,0.0,0.0,0.0,0.0,0.0,0.0,0.0,0.0,0.0,0.0,0.0,0.0,0.0,0.0,0.0,0.0,0.0,0.0,0.0,0.0,0.0,0.0,0.0,0.0,0.0,0.0,0.0,-3.8201,-3.8075,-3.8255,-3.8575,-3.9112,-3.9552,-3.9853,-3.9934,-4.0307,-4.0437,-4.0437,-4.0437,-4.0321,-4.0104,-4.0104,-4.0104,-4.0104,-4.0104,-3.9813,-3.9334,-3.9117,-3.8696,-3.8173,-3.7955,-3.7075,-3.593,-3.593,-3.4517,-3.2699,-3.2607,-3.1947,-3.1235,-3.1148,-3.0809,-3.047,-3.047,-3.0143,-2.9792,-2.9792,-2.9792,-2.9792,-2.9792,-3.0143,-3.0357,-2.9892,-2.9792,-2.9792,-2.9792,-2.9792,-2.9456,-2.8462,-2.773,-2.7313,-2.7151,-2.7232,-2.7637,-2.8633,-2.8712,-2.904,-2.9702,-2.9792,-2.9792,-2.9792,-2.9792,-2.9792,-2.9792,-2.9792,-2.9702,-2.9341,-2.8858,-2.7649,-2.5611,-2.5274,-2.4765,-2.3917,-2.358,-2.3406,-2.3416,-2.3232,-2.3135,0.0,0.0,0.0,0.0,0.0,0.0,0.0,0.0,0.0,0.0,0.0,0.0,0.0,0.0,0.0,0.0,0.0,0.0,0.0,0.0,0.0,0.0,0.0,0.0,0.0,0.0,0.0,0.0,0.0,0.0,0.0,-3.7351,-3.7765,-3.8145,-3.8684,-3.9396,-4.0256,-4.0867,-4.132,-4.1763,-4.1831,-4.1831,-4.1831,-4.1831,-4.1192,-4.0104,-4.0104,-4.0104,-4.0104,-4.0104,-4.0046,-3.9871,-3.8768,-3.8275,-3.8072,-3.6968,-3.6056,-3.5296,-3.5296,-3.4162,-3.2633,-3.2136,-3.1382,-3.0633,-3.0143,-2.9955,-2.9905,-2.9905,-2.9854,-2.9792,-2.9792,-2.9792,-2.9792,-2.9792,-2.9842,-2.988,-2.9817,-2.9792,-2.9792,-2.9792,-2.9792,-2.9287,-2.7557,-2.7891,-2.8051,-2.7232,-2.781,-2.8621,-2.9534,-2.9624,-2.9702,-2.9792,-2.9792,-2.9792,-2.9792,-2.9792,-2.9792,-2.9792,-2.9792,-2.9624,-2.9131,-2.9052,-2.8395,-2.694,-2.5735,-2.4893,-2.4413,-2.356,-2.3135,-2.3135,-2.3135,-2.3135,-2.9793,0.0,0.0,0.0,0.0,0.0,0.0,0.0,0.0,0.0,0.0,0.0,0.0,0.0,0.0,0.0,0.0,0.0,0.0,0.0,0.0,0.0,0.0,0.0,0.0,0.0,0.0,0.0,0.0,0.0,-3.6103,-3.6525,-3.6907,-3.7137,-3.7909,-3.8557,-3.8979,-3.9861,-4.0584,-4.0974,-4.0974,-4.0974,-4.096,-4.0626,-4.0742,-4.1221,-4.1221,-4.1004,-4.0626,-4.0249,-3.9683,-3.8942,-3.8043,-3.7476,-3.707,-3.6519,-3.5323,-3.3974,-3.3974,-3.2707,-3.106,-3.0817,-3.0443,-3.0105,-2.9867,-2.9792,-2.9792,-2.9792,-2.9792,-2.9792,-2.9792,-2.9792,-2.9792,-2.9792,-2.9792,-2.9792,-2.9792,-2.9792,-2.9624,-2.9209,-2.8633,-2.8051,-2.7232,-2.7476,-2.7557,-2.7151,-2.7476,-2.7879,-2.8223,-2.8712,-2.904,-2.904,-2.9534,-2.9792,-2.9792,-2.9792,-2.9702,-2.9611,-2.9599,-2.9365,-2.8961,-2.9052,-2.8724,-2.7926,-2.6823,-2.5902,-2.5242,-2.4819,-2.4317,-2.3907,-2.3907,-2.356,0.0,0.0,0.0,0.0,0.0,0.0,0.0,0.0,0.0,0.0,0.0,0.0,0.0,0.0,0.0,0.0,0.0,0.0,0.0,0.0,0.0,0.0,0.0,0.0,0.0,0.0,0.0,0.0,0.0,0.0,-3.5045,-3.5418,-3.5737,-3.5815,-3.6712,-3.727,-3.7521,-3.8631,-3.9341,-3.9625,-3.9625,-3.9625,-3.9596,-3.9146,-3.9741,-4.1105,-4.1105,-4.0829,-4.0321,-3.9813,-3.9059,-3.813,-3.736,-3.6751,-3.6272,-3.5711,-3.4323,-3.2738,-3.2516,-3.1287,-2.9792,-2.9792,-2.9792,-2.9792,-2.9792,-2.9792,-2.9792,-2.9792,-2.9792,-2.9792,-2.9792,-2.9792,-2.9792,-2.9792,-2.9792,-2.9792,-2.9792,-2.9792,-2.9624,-2.8961,-2.8051,-2.7476,-2.7476,-2.7232,-2.7151,-2.7395,-2.7476,-2.7557,-2.773,-2.8383,-2.8791,-2.8791,-2.9378,-2.9792,-2.9792,-2.9792,-2.9702,-2.9419,-2.9419,-2.9184,-2.8803,-2.8961,-2.8895,-2.851,-2.7846,-2.7092,-2.6163,-2.5913,-2.5326,-2.4498,-2.4498,-2.3983,0.0,0.0,0.0,0.0,0.0,0.0,0.0,0.0,0.0,0.0,0.0,0.0,0.0,0.0,0.0,0.0,0.0,0.0,0.0,0.0,0.0,0.0,0.0,0.0,0.0,0.0,0.0,0.0,0.0,0.0,-3.32,-3.3729,-3.4194,-3.4575,-3.5231,-3.5934,-3.6782,-3.776,-3.8304,-3.8304,-3.8304,-3.8304,-3.8304,-3.8275,-3.8318,-3.8405,-3.8405,-3.8376,-3.8347,-3.8318,-3.826,-3.8086,-3.6838,-3.6344,-3.6085,-3.4115,-3.2874,-3.2055,-3.1307,-3.0508,-2.9792,-2.9792,-2.9792,-2.9792,-2.9792,-2.9792,-2.9792,-2.9792,-2.9792,-2.9792,-2.9792,-2.9792,-2.9792,-2.9792,-2.9792,-2.9792,-2.9792,-2.9792,-2.9792,-2.9714,-2.904,-2.8462,-2.8462,-2.7718,-2.7395,-2.8291,-2.8462,-2.8712,-2.9546,-2.9714,-2.9714,-2.9714,-2.9792,-2.9792,-2.9792,-2.9792,-2.9702,-2.9419,-2.9419,-2.9184,-2.8803,-2.8791,-2.8736,-2.851,-2.8431,-2.8007,-2.7103,-2.6246,-2.5326,-2.4498,-2.4498,-2.3983,0.0,0.0,0.0,0.0,0.0,0.0,0.0,0.0,0.0,0.0,0.0,0.0,0.0,0.0,0.0,0.0,0.0,0.0,0.0,0.0,0.0,0.0,0.0,0.0,0.0,0.0,0.0,0.0,0.0,0.0,-3.2494,-3.2891,-3.3221,-3.3367,-3.4461,-3.5494,-3.6432,-3.6794,-3.6983,-3.6983,-3.6983,-3.6983,-3.6983,-3.6562,-3.6373,-3.6359,-3.5952,-3.6475,-3.7593,-3.7172,-3.6751,-3.6286,-3.543,-3.5096,-3.4955,-3.3676,-3.272,-3.2001,-3.118,-3.0419,-2.9792,-2.9792,-2.9792,-2.9792,-2.9792,-2.9792,-2.9792,-2.9792,-2.9792,-2.9792,-2.9792,-2.9792,-2.9792,-2.9792,-2.9792,-2.9792,-2.9792,-2.9378,-2.8961,-2.8961,-2.8223,-2.7637,-2.7637,-2.7313,-2.7232,-2.7557,-2.7637,-2.7718,-2.8051,-2.8621,-2.8961,-2.8961,-2.9456,-2.9792,-2.9792,-2.9611,-2.9443,-2.9197,-2.9118,-2.8882,-2.8657,-2.8578,-2.8578,-2.851,-2.851,-2.8351,-2.8007,-2.7672,-2.708,-2.6257,-2.6257,-2.5421,-2.9947,0.0,0.0,0.0,0.0,0.0,0.0,0.0,0.0,0.0,0.0,0.0,0.0,0.0,0.0,0.0,0.0,0.0,0.0,0.0,0.0,0.0,0.0,0.0,0.0,0.0,0.0,0.0,0.0,0.0,-3.2182,-3.2503,-3.2704,-3.2704,-3.3889,-3.4809,-3.5437,-3.5592,-3.5592,-3.5451,-3.5592,-3.5592,-3.5437,-3.5172,-3.5038,-3.5024,-3.4588,-3.514,-3.6301,-3.5851,-3.543,-3.5009,-3.4574,-3.4414,-3.4264,-3.3241,-3.2506,-3.1928,-3.0921,-3.0203,-2.9792,-2.9792,-2.9792,-2.9792,-2.9792,-2.9792,-2.9792,-2.9792,-2.9792,-2.9792,-2.9792,-2.9792,-2.9792,-2.9792,-2.9792,-2.9792,-2.9792,-2.9378,-2.8961,-2.8961,-2.8211,-2.7637,-2.7971,-2.7718,-2.7649,-2.7971,-2.7971,-2.7971,-2.7971,-2.8542,-2.8961,-2.8961,-2.9456,-2.9792,-2.9689,-2.9509,-2.9275,-2.904,-2.8882,-2.8724,-2.851,-2.851,-2.851,-2.851,-2.851,-2.851,-2.851,-2.851,-2.8018,-2.7185,-2.7185,-2.6423,0.0,0.0,0.0,0.0,0.0,0.0,0.0,0.0,0.0,0.0,0.0,0.0,0.0,0.0,0.0,0.0,0.0,0.0,0.0,0.0,0.0,0.0,0.0,0.0,0.0,0.0,0.0,0.0,0.0,-3.2574,-3.2241,-3.2516,-3.2731,-3.2731,-3.3437,-3.3785,-3.377,-3.4196,-3.4196,-3.377,-3.4196,-3.4196,-3.3839,-3.4196,-3.4414,-3.4414,-3.4414,-3.4414,-3.4414,-3.4414,-3.4414,-3.4414,-3.4332,-3.4332,-3.4196,-3.2662,-3.2074,-3.1869,-3.0292,-2.9792,-2.9792,-2.9792,-2.9792,-2.9792,-2.9792,-2.9792,-2.9792,-2.9792,-2.9792,-2.9792,-2.9792,-2.9792,-2.9792,-2.9792,-2.9792,-2.9792,-2.9792,-2.9792,-2.9792,-2.9792,-2.9131,-2.8791,-2.9624,-2.9131,-2.8791,-2.9702,-2.9792,-2.9792,-2.9792,-2.9792,-2.9792,-2.9792,-2.9792,-2.9689,-2.9419,-2.9419,-2.9184,-2.8803,-2.8803,-2.8724,-2.851,-2.851,-2.851,-2.851,-2.851,-2.851,-2.851,-2.851,-2.8099,-2.7267,-2.7185,-2.667,-2.9419,0.0,0.0,0.0,0.0,0.0,0.0,0.0,0.0,0.0,0.0,0.0,0.0,0.0,0.0,0.0,0.0,0.0,0.0,0.0,0.0,0.0,0.0,0.0,0.0,0.0,0.0,0.0,-3.2314,-3.2372,-3.2574,-3.3334,-3.3786,-3.3786,-3.4001,-3.3861,-3.3423,-3.3563,-3.3563,-3.3409,-3.377,-3.3908,-3.3839,-3.4196,-3.4414,-3.4414,-3.4414,-3.4414,-3.4414,-3.4414,-3.4414,-3.4332,-3.3742,-3.352,-3.3367,-3.1769,-3.1267,-3.1119,-3.0139,-2.9792,-2.9792,-2.9792,-2.9792,-2.9792,-2.9792,-2.9792,-2.9792,-2.9792,-2.9792,-2.9792,-2.9792,-2.9792,-2.9792,-2.9792,-2.9792,-2.9792,-2.9792,-2.9792,-2.9792,-2.9792,-2.9624,-2.9546,-2.9792,-2.9624,-2.9534,-2.9792,-2.9792,-2.9792,-2.9792,-2.9792,-2.9792,-2.9792,-2.9792,-2.9689,-2.9419,-2.9275,-2.904,-2.8803,-2.8657,-2.8578,-2.851,-2.851,-2.851,-2.851,-2.851,-2.851,-2.851,-2.851,-2.8351,-2.8099,-2.751,-2.7092,0.0,0.0,0.0,0.0,0.0,0.0,0.0,-3.2182,0.0,0.0,0.0,0.0,0.0,0.0,0.0,0.0,0.0,0.0,0.0,0.0,0.0,0.0,0.0,0.0,0.0,0.0,0.0,0.0,-3.2731,-3.2931,-3.3129,-3.3393,-3.3661,-3.3803,-3.3945,-3.3974,-3.3945,-3.4085,-3.4228,-3.4356,-3.4695,-3.4622,-3.4225,-3.4669,-3.451,-3.3894,-3.4264,-3.4196,-3.3894,-3.4264,-3.4414,-3.4332,-3.352,-3.3213,-3.3003,-3.1476,-3.0895,-3.0833,-3.0075,-2.9792,-2.9792,-2.9792,-2.9792,-2.9792,-2.9792,-2.9792,-2.9792,-2.9792,-2.9792,-2.9792,-2.9792,-2.9792,-2.9792,-2.9792,-2.9792,-2.9792,-2.9792,-2.9792,-2.9792,-2.9792,-2.9792,-2.9702,-2.9287,-2.9546,-2.9714,-2.93,-2.9546,-2.9792,-2.9792,-2.9792,-2.9792,-2.9792,-2.9702,-2.9521,-2.9275,-2.9118,-2.8882,-2.8724,-2.8578,-2.851,-2.851,-2.851,-2.851,-2.851,-2.851,-2.851,-2.851,-2.851,-2.851,-2.851,-2.8007,-2.7765,0.0,0.0,0.0,0.0,0.0,0.0,-3.2182,-3.2128,-3.2074,0.0,0.0,0.0,0.0,0.0,0.0,0.0,0.0,0.0,0.0,0.0,0.0,0.0,0.0,0.0,0.0,0.0,-3.2632,-3.2632,-3.3353,-3.3799,-3.3939,-3.3297,-3.3085,-3.3368,-3.3662,-3.4071,-3.4697,-3.4994,-3.5409,-3.5753,-3.6029,-3.5726,-3.4953,-3.5249,-3.4778,-3.3579,-3.4315,-3.4177,-3.3424,-3.4106,-3.4322,-3.4196,-3.3367,-3.3003,-3.2777,-3.1328,-3.0758,-3.0683,-2.9998,-2.9792,-2.9792,-2.9792,-2.9792,-2.9792,-2.9792,-2.9792,-2.9792,-2.9792,-2.9792,-2.9792,-2.9792,-2.9792,-2.9792,-2.9792,-2.9792,-2.9792,-2.9792,-2.9792,-2.9792,-2.9792,-2.9792,-2.9546,-2.8791,-2.93,-2.9546,-2.8791,-2.9287,-2.9792,-2.9792,-2.9792,-2.9792,-2.9792,-2.9521,-2.9353,-2.9131,-2.8882,-2.8724,-2.851,-2.851,-2.851,-2.851,-2.851,-2.851,-2.851,-2.851,-2.851,-2.851,-2.851,-2.851,-2.851,-2.851,-2.851,0.0,0.0,0.0,0.0,0.0,0.0,-3.2182,-3.1802,-3.1477,0.0,0.0,0.0,0.0,0.0,0.0,0.0,0.0,0.0,0.0,0.0,0.0,0.0,0.0,0.0,0.0,0.0,-3.2314,-3.2314,-3.3002,-3.3775,-3.4568,-3.4441,-3.4299,-3.4014,-3.3826,-3.381,-3.3935,-3.4008,-3.4461,-3.53,-3.5345,-3.5435,-3.564,-3.5611,-3.5669,-3.5697,-3.5853,-3.5468,-3.466,-3.434,-3.3917,-3.3367,-3.2577,-3.1928,-3.1254,-3.0343,-2.9998,-2.9998,-2.9869,-2.9792,-2.9792,-2.9792,-2.9792,-2.9792,-2.9792,-2.9792,-2.9792,-2.9792,-2.9792,-2.9792,-2.9792,-2.9792,-2.9792,-2.9792,-2.9792,-2.9792,-2.9792,-2.9792,-2.9792,-2.9792,-2.9792,-2.9714,-2.9546,-2.9714,-2.9714,-2.9546,-2.9714,-2.9792,-2.9792,-2.9792,-2.9702,-2.9509,-2.9419,-2.9263,-2.8882,-2.8791,-2.8724,-2.851,-2.851,-2.851,-2.851,-2.851,-2.851,-2.851,-2.851,-2.851,-2.851,-2.851,-2.851,-2.851,-2.851,-2.851,0.0,0.0,0.0,-3.1468,0.0,0.0,0.0,-3.1273,0.0,0.0,0.0,0.0,0.0,0.0,0.0,0.0,0.0,0.0,0.0,0.0,0.0,0.0,0.0,0.0,0.0,0.0,-3.1958,-3.2316,-3.2492,-3.289,-3.3653,-3.3436,-3.3354,-3.3382,-3.349,-3.3733,-3.4044,-3.4654,-3.5437,-3.6225,-3.6496,-3.6644,-3.6533,-3.6504,-3.6244,-3.5783,-3.5682,-3.5229,-3.4458,-3.4079,-3.354,-3.2827,-3.1864,-3.1267,-3.082,-3.0062,-2.9792,-2.9792,-2.9792,-2.9792,-2.9792,-2.9792,-2.9792,-2.9792,-2.9792,-2.9792,-2.9792,-2.9792,-2.9792,-2.9792,-2.9792,-2.9792,-2.9792,-2.9792,-2.9792,-2.9792,-2.9792,-2.9792,-2.9792,-2.9792,-2.9792,-2.9624,-2.9209,-2.9534,-2.9624,-2.9209,-2.9534,-2.9792,-2.9792,-2.9792,-2.9702,-2.9419,-2.9353,-2.9118,-2.8803,-2.8724,-2.8578,-2.851,-2.851,-2.851,-2.851,-2.851,-2.851,-2.851,-2.851,-2.851,-2.851,-2.851,-2.851,-2.851,-2.851,-2.851,0.0,0.0,0.0,0.0,0.0,-3.1124,0.0,0.0,0.0,0.0,0.0,0.0,0.0,0.0,0.0,0.0,0.0,0.0,0.0,0.0,0.0,0.0,0.0,0.0,0.0,0.0,-3.1523,-3.2241,-3.2019,-3.2019,-3.2449,-3.2148,-3.2084,-3.237,-3.2876,-3.344,-3.4076,-3.5102,-3.6012,-3.6765,-3.7171,-3.7142,-3.6751,-3.6794,-3.617,-3.517,-3.5194,-3.4651,-3.3823,-3.3598,-3.3038,-3.2162,-3.1355,-3.0989,-3.0776,-3.0036,-2.9792,-2.9792,-2.9792,-2.9716,-2.9628,-2.9628,-2.9553,-2.9465,-2.9465,-2.9465,-2.949,-2.9591,-2.9628,-2.9654,-2.9767,-2.9792,-2.9792,-2.9792,-2.9792,-2.9792,-2.9792,-2.9792,-2.9792,-2.9792,-2.9792,-2.9546,-2.887,-2.9287,-2.9534,-2.8791,-2.9287,-2.9792,-2.9702,-2.9702,-2.9611,-2.9341,-2.9118,-2.8973,-2.8724,-2.8578,-2.851,-2.851,-2.851,-2.851,-2.851,-2.851,-2.851,-2.851,-2.851,-2.851,-2.851,-2.851,-2.851,-2.851,-2.851,-2.851,0.0,0.0,0.0,0.0,-3.0948,0.0,0.0,0.0,0.0,0.0,0.0,0.0,0.0,0.0,0.0,0.0,0.0,0.0,0.0,0.0,0.0,0.0,0.0,0.0,0.0,0.0,0.0,-3.1443,-3.1495,-3.1772,-3.2449,-3.2148,-3.1925,-3.2004,-3.1763,-3.2103,-3.3078,-3.3221,-3.3758,-3.4748,-3.4448,-3.4448,-3.4762,-3.488,-3.5009,-3.5082,-3.5658,-3.4977,-3.3526,-3.3014,-3.2044,-3.0922,-3.141,-3.1229,-3.0615,-2.9967,-2.9792,-2.9792,-2.9792,-2.9453,-2.9026,-2.9026,-2.8699,-2.8298,-2.8298,-2.8298,-2.8398,-2.8888,-2.9026,-2.9151,-2.9666,-2.9792,-2.9792,-2.9792,-2.9792,-2.9792,-2.9792,-2.9792,-2.9792,-2.9792,-2.9792,-2.9792,-2.9702,-2.9714,-2.9702,-2.9341,-2.9611,-2.9702,-2.9509,-2.9431,-2.9353,-2.9131,-2.8961,-2.8724,-2.859,-2.851,-2.851,-2.851,-2.851,-2.851,-2.851,-2.851,-2.851,-2.851,-2.851,-2.851,-2.851,-2.851,-2.851,-2.851,-2.851,-2.851,0.0,0.0,0.0,0.0,0.0,0.0,0.0,0.0,-2.8967,0.0,0.0,0.0,0.0,0.0,0.0,0.0,0.0,0.0,0.0,0.0,0.0,0.0,0.0,0.0,0.0,0.0,0.0,0.0,0.0,-3.1056,-3.138,-3.1242,-3.118,-3.118,-3.1352,-3.1668,-3.2069,-3.2445,-3.3025,-3.3877,-3.3668,-3.3839,-3.4414,-3.447,-3.4577,-3.4625,-3.3991,-3.3349,-3.2581,-3.1461,-3.0633,-3.0105,-3.0114,-3.0113,-3.0118,-2.988,-2.9578,-2.9289,-2.9289,-2.8925,-2.8448,-2.8448,-2.8298,-2.8109,-2.8109,-2.8109,-2.816,-2.8386,-2.8687,-2.8988,-2.9227,-2.9541,-2.9792,-2.9792,-2.9792,-2.9792,-2.9792,-2.9792,-2.9792,-2.9792,-2.9792,-2.9792,-2.9792,-2.9792,-2.9792,-2.9611,-2.9702,-2.9702,-2.9419,-2.9419,-2.9263,-2.8961,-2.8882,-2.8724,-2.851,-2.851,-2.851,-2.851,-2.851,-2.851,-2.851,-2.851,-2.851,-2.851,-2.851,-2.851,-2.851,-2.851,-2.851,-2.851,-2.851,-2.851,-2.8828,0.0,0.0,0.0,0.0,0.0,0.0,0.0,0.0,0.0,0.0,0.0,0.0,0.0,0.0,0.0,0.0,0.0,0.0,0.0,0.0,0.0,0.0,0.0,0.0,0.0,0.0,0.0,-3.028,-3.0522,-3.0582,-3.0568,-3.0568,-3.0568,-3.0834,-3.1003,-3.1003,-3.1432,-3.19,-3.24,-3.2582,-3.2811,-3.3091,-3.3264,-3.3221,-3.2887,-3.199,-3.1409,-3.1116,-2.9973,-2.9465,-2.9289,-2.8863,-2.8963,-2.9327,-2.9327,-2.9063,-2.8699,-2.8699,-2.8348,-2.7858,-2.7708,-2.7657,-2.7657,-2.7657,-2.7657,-2.7682,-2.7833,-2.8285,-2.8737,-2.8888,-2.9365,-2.9792,-2.9792,-2.9792,-2.9792,-2.9792,-2.9792,-2.9792,-2.9792,-2.9792,-2.9792,-2.9792,-2.9702,-2.9689,-2.9689,-2.9689,-2.9611,-2.9353,-2.9341,-2.9184,-2.8882,-2.8724,-2.8657,-2.851,-2.851,-2.851,-2.851,-2.851,-2.851,-2.851,-2.851,-2.851,-2.851,-2.851,-2.851,-2.851,-2.851,-2.851,-2.851,-2.851,-2.851,0.0,0.0,0.0,-2.9362,0.0,0.0,0.0,0.0,-2.8587,0.0,0.0,0.0,0.0,0.0,0.0,-2.8587,0.0,0.0,0.0,0.0,0.0,0.0,0.0,0.0,0.0,0.0,0.0,-2.9602,-2.9927,-3.0294,-3.0568,-3.0568,-3.0568,-3.0568,-3.0021,-2.9651,-2.9651,-2.9693,-2.9707,-2.9707,-3.0366,-3.038,-2.9763,-3.0355,-3.0143,-2.9274,-2.9935,-2.9744,-2.9026,-2.895,-2.8637,-2.816,-2.8134,-2.8147,-2.816,-2.816,-2.8147,-2.8134,-2.8134,-2.777,-2.7218,-2.6691,-2.6584,-2.6584,-2.6584,-2.6584,-2.6697,-2.7155,-2.7708,-2.826,-2.8787,-2.9365,-2.9792,-2.9792,-2.9792,-2.9792,-2.9792,-2.9792,-2.9792,-2.9792,-2.9792,-2.9792,-2.9792,-2.9599,-2.9419,-2.9419,-2.9419,-2.9353,-2.9131,-2.9131,-2.904,-2.8791,-2.8657,-2.851,-2.851,-2.851,-2.851,-2.851,-2.851,-2.851,-2.851,-2.851,-2.851,-2.851,-2.851,-2.851,-2.851,-2.851,-2.851,-2.851,-2.851,-2.851,0.0,0.0,-2.8213,-2.8754,0.0,0.0,0.0,0.0,0.0,0.0,0.0,0.0,0.0,0.0,-2.8587,-2.8587,-2.8587,0.0,0.0,0.0,0.0,0.0,0.0,0.0,0.0,0.0,0.0,-2.8629,-2.897,-2.9163,0.0,-2.8824,-2.8806,-2.9003,-2.8948,-2.8889,-2.8889,-2.8441,-2.8441,-2.8889,-2.8634,-2.8634,-2.8903,-2.9096,-2.8978,-2.8719,-2.8473,-2.8222,-2.7958,-2.7493,-2.718,-2.7017,-2.7017,-2.7017,-2.7105,-2.7833,-2.7871,-2.7507,-2.7143,-2.6892,-2.6703,-2.6584,-2.6533,-2.6533,-2.6533,-2.6533,-2.6571,-2.6747,-2.713,-2.7607,-2.7795,-2.8524,-2.9214,-2.9214,-2.9515,-2.9792,-2.9792,-2.9792,-2.9792,-2.9792,-2.9792,-2.9702,-2.9599,-2.9431,-2.9431,-2.9611,-2.9365,-2.9197,-2.9131,-2.8961,-2.8803,-2.8657,-2.851,-2.851,-2.851,-2.851,-2.851,-2.851,-2.851,-2.851,-2.851,-2.851,-2.851,-2.851,-2.851,-2.851,-2.851,-2.8162,-2.7993,-2.7981,-2.7633,-2.7657,-2.8052,-2.8052,0.0,-2.8522,-2.8587,0.0,-2.8587,0.0,0.0,0.0,0.0,0.0,0.0,0.0,0.0,-2.878,-2.8651,-2.8587,0.0,-2.8651,0.0,0.0,0.0,0.0,0.0,0.0,-2.8429,-2.7884,-2.819,-2.8201,0.0,0.0,-2.7592,-2.7886,-2.7863,-2.7902,-2.8051,-2.767,-2.7868,-2.8492,-2.8312,-2.8441,-2.8889,-2.8889,-2.8634,-2.8117,-2.767,-2.7351,-2.7095,-2.6658,-2.6533,-2.6533,-2.6533,-2.6533,-2.6609,-2.7256,-2.7293,-2.6942,-2.6647,-2.6533,-2.6533,-2.6533,-2.6533,-2.6533,-2.6533,-2.6533,-2.6571,-2.6703,-2.7005,-2.7318,-2.7519,-2.8109,-2.8637,-2.8637,-2.8913,-2.9252,-2.944,-2.9478,-2.9541,-2.9754,-2.9792,-2.9702,-2.9431,-2.9419,-2.9431,-2.9611,-2.9378,-2.9131,-2.9131,-2.8882,-2.8724,-2.851,-2.851,-2.851,-2.851,-2.851,-2.851,-2.851,-2.851,-2.851,-2.851,-2.851,-2.8426,-2.8234,-2.8234,-2.8138,-2.7945,-2.7609,-2.744,-2.7428,-2.6887,-2.6815]},{"header":{"parameterUnit":"m.s-1","parameterCategory":1,"la1":30.6,"la2":29.2853,"lo1":-89.7004,"lo2":-87.6739,"dy":0.0162,"dx":0.0183,"nx":112,"ny":82,"refTime":"2023-07-27T12:00:00:Z","depth":0,"parameterNumber":3,"parameterNumberName":"V-component_of_WINDS"},"data":[0.0,0.0,0.0,0.0,0.0,0.0,0.0,0.0,0.0,0.0,0.0,0.0,0.0,0.0,0.0,0.0,0.0,0.0,0.0,0.0,0.0,0.0,0.0,0.0,0.0,0.0,0.0,0.0,0.0,0.0,0.0,0.0,0.0,0.0,0.0,0.0,0.0,0.0,0.0,0.0,0.0,0.0,0.0,0.0,0.0,0.0,0.0,0.0,0.0,0.0,0.0,0.0,0.0,0.0,0.0,0.0,0.0,0.0,0.0,0.0,0.0,0.0,0.0,0.0,0.0,0.0,0.0,0.0,0.0,0.0,0.0,0.0,0.0,0.0,0.0,0.0,0.0,0.0,0.0,0.0,0.0,0.0,0.0,0.0,0.0,0.0,0.0,0.0,0.0,0.0,0.0,-2.6352,-2.6591,-2.6959,-2.7203,-2.6404,-2.6109,-2.6789,0.0,0.0,0.0,0.0,0.0,0.0,0.0,0.0,0.0,0.0,0.0,0.0,0.0,0.0,0.0,0.0,0.0,0.0,0.0,0.0,0.0,0.0,0.0,0.0,0.0,0.0,0.0,0.0,0.0,0.0,0.0,0.0,0.0,0.0,0.0,0.0,0.0,0.0,0.0,0.0,0.0,0.0,0.0,0.0,0.0,0.0,0.0,0.0,0.0,0.0,0.0,0.0,0.0,0.0,0.0,0.0,0.0,0.0,0.0,0.0,0.0,0.0,0.0,0.0,0.0,0.0,0.0,0.0,0.0,0.0,0.0,0.0,0.0,0.0,0.0,0.0,0.0,0.0,0.0,0.0,0.0,0.0,0.0,0.0,0.0,0.0,0.0,0.0,0.0,0.0,0.0,0.0,0.0,0.0,0.0,0.0,0.0,0.0,0.0,0.0,0.0,0.0,0.0,0.0,-2.8529,-2.8235,-2.8492,-2.8566,-2.8387,-2.7974,-2.7864,-2.7974,0.0,0.0,0.0,0.0,0.0,0.0,0.0,0.0,0.0,0.0,0.0,0.0,0.0,0.0,0.0,0.0,0.0,0.0,0.0,0.0,0.0,0.0,0.0,0.0,0.0,0.0,0.0,0.0,0.0,0.0,0.0,0.0,0.0,0.0,0.0,0.0,0.0,0.0,0.0,0.0,0.0,0.0,0.0,0.0,0.0,0.0,0.0,0.0,0.0,0.0,0.0,0.0,0.0,0.0,0.0,0.0,0.0,0.0,0.0,0.0,0.0,0.0,0.0,0.0,0.0,0.0,0.0,0.0,0.0,0.0,0.0,0.0,0.0,0.0,0.0,0.0,0.0,0.0,0.0,0.0,0.0,0.0,0.0,0.0,0.0,0.0,0.0,0.0,0.0,0.0,0.0,0.0,0.0,0.0,0.0,0.0,0.0,0.0,0.0,0.0,0.0,0.0,0.0,-2.8972,-2.8908,-2.9099,-2.9099,-2.9099,-2.9162,-2.8719,-2.8633,-2.892,-2.7076,0.0,0.0,0.0,0.0,0.0,0.0,0.0,0.0,0.0,0.0,0.0,0.0,0.0,0.0,0.0,0.0,0.0,0.0,0.0,0.0,0.0,0.0,0.0,0.0,0.0,0.0,0.0,0.0,0.0,0.0,0.0,0.0,0.0,0.0,0.0,0.0,0.0,0.0,0.0,0.0,0.0,0.0,0.0,0.0,0.0,0.0,0.0,0.0,0.0,0.0,0.0,0.0,0.0,0.0,0.0,0.0,0.0,0.0,0.0,0.0,0.0,0.0,0.0,0.0,0.0,0.0,0.0,0.0,0.0,0.0,0.0,0.0,0.0,0.0,0.0,0.0,0.0,0.0,0.0,0.0,0.0,0.0,0.0,0.0,0.0,0.0,0.0,0.0,0.0,0.0,0.0,0.0,0.0,0.0,0.0,0.0,0.0,0.0,0.0,0.0,0.0,0.0,-2.9162,-2.9035,-2.954,-2.9352,-2.9289,-2.9602,-2.9181,-2.9111,-2.9574,-2.7987,0.0,0.0,0.0,0.0,0.0,0.0,0.0,0.0,0.0,0.0,0.0,0.0,0.0,0.0,0.0,0.0,0.0,0.0,0.0,0.0,0.0,0.0,0.0,0.0,0.0,0.0,0.0,0.0,0.0,0.0,0.0,0.0,0.0,0.0,0.0,0.0,0.0,0.0,0.0,0.0,0.0,0.0,0.0,0.0,0.0,0.0,0.0,0.0,0.0,0.0,0.0,0.0,0.0,0.0,0.0,0.0,0.0,0.0,0.0,0.0,0.0,0.0,0.0,0.0,0.0,0.0,0.0,0.0,0.0,0.0,0.0,0.0,0.0,0.0,0.0,0.0,0.0,0.0,0.0,0.0,0.0,0.0,0.0,0.0,0.0,0.0,0.0,0.0,0.0,0.0,0.0,0.0,0.0,0.0,0.0,0.0,0.0,0.0,0.0,0.0,0.0,0.0,-2.954,-2.954,-2.9602,-2.9602,-2.954,-2.9602,-2.956,-2.956,-2.9602,-2.8408,0.0,0.0,0.0,0.0,0.0,0.0,0.0,0.0,0.0,0.0,0.0,0.0,0.0,0.0,0.0,0.0,0.0,0.0,0.0,0.0,0.0,0.0,0.0,0.0,0.0,0.0,0.0,0.0,0.0,0.0,0.0,0.0,0.0,0.0,0.0,0.0,0.0,0.0,0.0,0.0,0.0,0.0,0.0,0.0,0.0,0.0,0.0,0.0,0.0,0.0,0.0,0.0,0.0,0.0,0.0,0.0,0.0,0.0,0.0,0.0,0.0,0.0,0.0,0.0,0.0,0.0,0.0,0.0,0.0,0.0,0.0,0.0,0.0,0.0,0.0,0.0,0.0,0.0,0.0,0.0,0.0,0.0,0.0,0.0,0.0,0.0,0.0,0.0,0.0,0.0,0.0,0.0,0.0,0.0,0.0,0.0,0.0,0.0,0.0,0.0,0.0,0.0,-2.9602,-2.9602,0.0,-2.9602,-2.9602,-2.9602,-2.9602,-2.9602,-2.9602,0.0,0.0,0.0,0.0,0.0,0.0,0.0,0.0,0.0,0.0,0.0,0.0,0.0,0.0,0.0,0.0,0.0,0.0,0.0,0.0,0.0,0.0,0.0,0.0,0.0,0.0,0.0,0.0,0.0,0.0,0.0,0.0,0.0,0.0,0.0,0.0,0.0,0.0,0.0,0.0,0.0,0.0,0.0,0.0,0.0,0.0,0.0,0.0,0.0,0.0,0.0,0.0,0.0,0.0,0.0,0.0,0.0,0.0,0.0,0.0,0.0,0.0,0.0,0.0,0.0,0.0,0.0,0.0,0.0,0.0,0.0,0.0,0.0,0.0,0.0,0.0,0.0,0.0,0.0,0.0,0.0,0.0,0.0,0.0,0.0,0.0,0.0,0.0,0.0,0.0,0.0,0.0,0.0,0.0,0.0,0.0,0.0,0.0,0.0,0.0,0.0,0.0,-2.9602,-2.9602,-2.9602,0.0,-2.9602,-2.9602,-2.9602,-2.9602,-2.9602,-2.9602,0.0,0.0,0.0,0.0,0.0,0.0,0.0,0.0,0.0,0.0,0.0,0.0,0.0,0.0,0.0,0.0,0.0,0.0,0.0,0.0,0.0,0.0,0.0,0.0,0.0,0.0,0.0,0.0,0.0,0.0,0.0,0.0,0.0,0.0,0.0,0.0,0.0,0.0,0.0,0.0,0.0,0.0,0.0,0.0,0.0,0.0,0.0,0.0,0.0,0.0,0.0,0.0,0.0,0.0,0.0,0.0,0.0,0.0,0.0,0.0,0.0,0.0,0.0,0.0,0.0,0.0,0.0,0.0,0.0,0.0,0.0,0.0,0.0,0.0,0.0,0.0,0.0,0.0,0.0,0.0,0.0,0.0,0.0,0.0,0.0,0.0,0.0,0.0,0.0,0.0,0.0,0.0,0.0,0.0,0.0,0.0,0.0,0.0,0.0,0.0,0.0,0.0,-2.9602,-2.9602,-2.9602,-2.9602,-2.9602,-2.9602,-2.9602,-2.9602,-2.9602,0.0,0.0,0.0,0.0,0.0,0.0,0.0,0.0,0.0,0.0,0.0,0.0,0.0,0.0,0.0,0.0,0.0,0.0,0.0,0.0,0.0,0.0,0.0,0.0,0.0,0.0,0.0,0.0,0.0,0.0,0.0,0.0,0.0,0.0,0.0,0.0,0.0,0.0,0.0,0.0,0.0,0.0,0.0,0.0,0.0,0.0,0.0,0.0,0.0,0.0,0.0,0.0,0.0,0.0,0.0,0.0,0.0,0.0,0.0,0.0,0.0,0.0,0.0,0.0,0.0,0.0,0.0,0.0,0.0,0.0,0.0,0.0,0.0,0.0,0.0,0.0,0.0,0.0,0.0,0.0,0.0,0.0,0.0,0.0,0.0,0.0,0.0,0.0,0.0,0.0,0.0,0.0,0.0,0.0,0.0,0.0,0.0,0.0,0.0,0.0,0.0,0.0,0.0,-3.0083,-2.9789,-2.9602,-2.9602,-2.9602,-2.9602,-2.9602,-2.9602,-2.9727,-3.0083,0.0,0.0,0.0,0.0,0.0,0.0,0.0,0.0,0.0,0.0,0.0,0.0,0.0,0.0,0.0,0.0,0.0,0.0,0.0,0.0,0.0,0.0,0.0,0.0,0.0,0.0,0.0,0.0,0.0,0.0,0.0,0.0,0.0,0.0,0.0,0.0,0.0,0.0,0.0,0.0,0.0,0.0,0.0,0.0,0.0,0.0,0.0,0.0,0.0,0.0,0.0,0.0,0.0,0.0,0.0,0.0,0.0,0.0,0.0,0.0,0.0,0.0,0.0,0.0,0.0,0.0,0.0,0.0,0.0,0.0,0.0,0.0,0.0,0.0,0.0,0.0,0.0,0.0,0.0,0.0,0.0,0.0,0.0,0.0,0.0,0.0,0.0,0.0,0.0,0.0,0.0,0.0,0.0,0.0,0.0,0.0,0.0,0.0,0.0,0.0,0.0,0.0,-3.0553,-3.0312,-3.0083,-2.9898,-3.0021,-3.0021,-2.9602,-2.9789,-2.9898,-3.0021,0.0,0.0,0.0,0.0,0.0,0.0,0.0,0.0,0.0,0.0,0.0,0.0,0.0,0.0,0.0,0.0,0.0,0.0,0.0,0.0,0.0,0.0,0.0,0.0,0.0,0.0,0.0,0.0,0.0,0.0,0.0,0.0,0.0,0.0,0.0,0.0,0.0,0.0,0.0,0.0,0.0,0.0,0.0,0.0,0.0,0.0,0.0,0.0,0.0,0.0,0.0,0.0,0.0,0.0,0.0,0.0,0.0,0.0,0.0,0.0,0.0,0.0,0.0,0.0,0.0,0.0,0.0,0.0,0.0,0.0,0.0,0.0,0.0,0.0,0.0,0.0,0.0,0.0,0.0,0.0,0.0,0.0,0.0,0.0,0.0,0.0,0.0,0.0,0.0,0.0,0.0,0.0,0.0,0.0,0.0,0.0,0.0,0.0,0.0,0.0,0.0,0.0,-3.1087,-3.1029,-3.0851,-3.0433,-3.0732,-3.0673,-2.9789,-3.0144,-3.019,-2.9789,0.0,0.0,0.0,0.0,0.0,0.0,0.0,0.0,0.0,0.0,0.0,0.0,0.0,0.0,0.0,0.0,0.0,0.0,0.0,0.0,0.0,0.0,0.0,0.0,0.0,0.0,0.0,0.0,0.0,0.0,0.0,0.0,0.0,0.0,0.0,0.0,0.0,0.0,0.0,0.0,0.0,0.0,0.0,0.0,0.0,0.0,0.0,0.0,0.0,0.0,0.0,0.0,0.0,0.0,0.0,0.0,0.0,0.0,0.0,0.0,-2.4747,0.0,0.0,0.0,0.0,0.0,0.0,0.0,0.0,0.0,0.0,0.0,0.0,0.0,0.0,0.0,0.0,0.0,0.0,0.0,0.0,0.0,0.0,0.0,0.0,0.0,0.0,0.0,0.0,0.0,0.0,0.0,0.0,0.0,0.0,0.0,0.0,0.0,0.0,0.0,0.0,0.0,-3.1495,-3.1204,-3.097,-3.0851,-3.097,-3.0911,-3.0732,-3.0792,-3.0792,-3.0732,0.0,0.0,0.0,0.0,0.0,0.0,0.0,0.0,0.0,0.0,0.0,0.0,0.0,0.0,0.0,0.0,0.0,0.0,0.0,0.0,0.0,0.0,0.0,0.0,0.0,0.0,0.0,0.0,0.0,0.0,0.0,0.0,0.0,0.0,0.0,0.0,0.0,0.0,0.0,0.0,0.0,0.0,0.0,0.0,0.0,0.0,0.0,0.0,0.0,0.0,0.0,0.0,0.0,0.0,0.0,0.0,0.0,0.0,0.0,0.0,0.0,-2.5294,0.0,0.0,0.0,0.0,0.0,0.0,0.0,0.0,0.0,0.0,0.0,0.0,0.0,0.0,0.0,0.0,0.0,0.0,0.0,0.0,0.0,0.0,0.0,0.0,0.0,0.0,0.0,0.0,0.0,0.0,0.0,0.0,0.0,0.0,0.0,0.0,0.0,0.0,0.0,0.0,-3.2007,-3.1823,-3.1595,-3.1379,-3.1552,-3.148,-3.1029,-3.1204,-3.1263,-3.1029,-3.1204,0.0,0.0,0.0,0.0,0.0,0.0,0.0,0.0,0.0,0.0,0.0,0.0,0.0,0.0,0.0,0.0,0.0,0.0,0.0,0.0,0.0,0.0,0.0,0.0,0.0,0.0,0.0,0.0,0.0,0.0,0.0,0.0,0.0,0.0,0.0,0.0,0.0,0.0,0.0,0.0,0.0,0.0,0.0,0.0,0.0,0.0,0.0,0.0,0.0,0.0,0.0,0.0,0.0,-2.0622,-2.1072,-2.1903,-2.1903,-2.2581,-2.3804,-2.4158,-2.4889,-2.5722,0.0,0.0,0.0,0.0,0.0,0.0,0.0,0.0,0.0,0.0,0.0,0.0,0.0,0.0,0.0,0.0,0.0,0.0,0.0,0.0,0.0,0.0,0.0,0.0,0.0,-2.8276,-2.8587,0.0,0.0,0.0,0.0,0.0,0.0,0.0,0.0,0.0,0.0,0.0,0.0,-3.2398,-3.2398,-3.2231,-3.1838,-3.2176,-3.2104,-3.1306,-3.161,-3.161,-3.1146,-3.1552,-3.1796,0.0,0.0,0.0,0.0,0.0,0.0,0.0,0.0,0.0,0.0,0.0,0.0,0.0,0.0,0.0,0.0,0.0,0.0,0.0,0.0,0.0,0.0,0.0,0.0,0.0,0.0,0.0,0.0,0.0,0.0,0.0,0.0,-2.042,-2.0479,0.0,0.0,0.0,0.0,0.0,0.0,0.0,0.0,0.0,0.0,0.0,0.0,0.0,0.0,-2.0521,-2.0521,-2.0695,-2.1025,-2.1025,-2.1305,-2.1752,-2.1752,-2.229,-2.3268,-2.4077,0.0,-2.581,-2.6687,0.0,0.0,0.0,0.0,0.0,0.0,0.0,0.0,0.0,0.0,0.0,0.0,0.0,0.0,0.0,0.0,0.0,0.0,0.0,0.0,0.0,0.0,-2.7523,-2.7603,-2.7868,-2.821,0.0,-2.8716,-2.9099,-2.9162,0.0,0.0,0.0,0.0,0.0,0.0,0.0,0.0,-3.2398,-3.2398,-3.2398,-3.2342,-3.2342,-3.2342,-3.2231,-3.2287,-3.212,-3.1625,-3.2064,-3.212,-3.1739,-3.2028,0.0,0.0,0.0,0.0,0.0,0.0,0.0,0.0,0.0,0.0,0.0,0.0,0.0,0.0,0.0,0.0,0.0,0.0,0.0,0.0,0.0,0.0,0.0,0.0,0.0,0.0,0.0,0.0,0.0,-2.0789,-2.0566,-2.0566,-2.042,-2.0361,0.0,0.0,0.0,0.0,0.0,0.0,0.0,0.0,0.0,-2.0842,-2.0851,-2.1071,-2.153,-2.153,-2.1621,-2.1786,-2.1786,-2.1768,-2.1741,-2.1741,-2.2387,-2.3565,-2.4512,-2.5614,-2.6702,-2.7035,-2.7231,-2.7231,0.0,0.0,0.0,0.0,-2.7093,-2.6898,-2.6898,-2.6792,0.0,0.0,0.0,0.0,0.0,0.0,0.0,0.0,0.0,0.0,0.0,0.0,0.0,-2.7802,-2.7947,-2.8079,-2.8079,-2.8341,-2.8651,0.0,-2.9149,-2.956,-3.0777,0.0,0.0,0.0,0.0,0.0,-3.2398,-3.2398,-3.2398,-3.2398,-3.2398,-3.2398,-3.2398,-3.2398,-3.2342,-3.212,-3.2287,-3.2287,-3.212,-3.2287,-3.2259,0.0,0.0,0.0,0.0,0.0,0.0,0.0,0.0,0.0,0.0,0.0,0.0,0.0,0.0,0.0,0.0,0.0,0.0,0.0,0.0,0.0,0.0,0.0,0.0,0.0,0.0,0.0,0.0,-2.0566,-2.0605,-2.0723,-2.0585,-2.069,0.0,0.0,0.0,0.0,0.0,0.0,-2.0909,-2.0924,-2.1163,-2.1566,-2.1475,-2.1713,-2.2318,-2.2226,-2.2226,-2.2327,-2.2327,-2.2226,-2.2052,-2.2052,-2.2562,-2.3664,-2.4883,-2.5956,-2.7041,-2.7257,-2.7426,-2.7415,-2.7277,-2.7231,-2.7231,-2.7231,-2.7231,-2.7231,-2.7231,-2.7301,-2.7498,-2.8579,0.0,-2.9004,-2.9826,0.0,0.0,0.0,0.0,-2.8516,-2.8085,-2.7863,-2.7826,-2.8093,-2.8053,-2.7947,-2.7947,-2.7947,-2.8145,0.0,-2.9085,-2.9608,-3.0658,0.0,0.0,0.0,0.0,-3.2398,-3.2398,-3.2398,-3.2398,-3.2398,-3.2398,-3.2398,-3.2398,-3.2398,-3.2398,-3.2398,-3.2398,-3.2398,-3.2398,-3.2398,-3.2398,-3.2398,0.0,0.0,0.0,0.0,0.0,0.0,0.0,0.0,0.0,0.0,0.0,0.0,0.0,0.0,0.0,0.0,0.0,0.0,0.0,0.0,0.0,0.0,0.0,0.0,0.0,0.0,0.0,0.0,0.0,-2.1152,-2.1121,0.0,0.0,0.0,0.0,-2.1495,-2.1381,-2.1534,-2.2013,-2.2124,-2.2428,-2.2756,-2.2474,-2.2282,-2.2327,-2.1951,-2.1951,-2.2327,-2.2327,-2.252,-2.2802,-2.2802,-2.2905,-2.3017,-2.4977,-2.5782,-2.5951,-2.735,-2.7943,-2.7897,-2.7415,-2.7231,-2.7231,-2.7231,-2.7231,-2.7231,-2.7231,-2.7208,-2.7348,-2.8007,-2.8991,-2.9936,-3.006,-3.0111,0.0,0.0,-2.9235,-2.9222,-2.9196,-2.8765,-2.8333,-2.8402,-2.7928,-2.7523,-2.7523,-2.7523,-2.7669,0.0,-2.8651,-2.9387,-3.0343,0.0,-3.1709,-3.2342,-3.2398,-3.2398,-3.2398,-3.2398,-3.2398,-3.2398,-3.2398,-3.2398,-3.2398,-3.2398,-3.2398,-3.2398,-3.2398,-3.2398,-3.2398,-3.2398,-3.2398,-3.2398,-3.2367,0.0,0.0,0.0,0.0,0.0,0.0,0.0,0.0,0.0,0.0,0.0,0.0,0.0,0.0,0.0,0.0,0.0,0.0,0.0,0.0,0.0,0.0,0.0,0.0,0.0,0.0,0.0,0.0,-2.1221,-2.1484,0.0,0.0,-2.2017,-2.211,-2.2277,-2.2342,-2.2538,-2.2861,-2.2483,-2.252,-2.2848,-2.2547,-2.2575,-2.3107,-2.2969,-2.3098,-2.3501,-2.3501,-2.3584,-2.373,-2.373,-2.4477,-2.568,-2.6412,-2.7434,-2.861,-2.8885,-2.8758,-2.8425,-2.8241,-2.8184,-2.8184,-2.8184,-2.8184,-2.8184,-2.8184,-2.8205,-2.8444,-2.9138,-2.996,-3.0633,-3.0664,-3.0686,-3.0568,-2.9993,-2.9823,-2.9745,-2.9379,-2.9118,-2.8961,-2.8961,-2.8804,-2.866,-2.866,-2.866,-2.8736,-2.8879,-2.8817,-2.917,-3.0718,-3.1014,-3.1306,-3.2023,-3.215,-3.215,-3.215,-3.2247,-3.2287,-3.2287,-3.2342,-3.2398,-3.2398,-3.2398,-3.2398,-3.2398,-3.2398,-3.2398,-3.2398,-3.2398,-3.2398,-3.2398,-3.2398,-3.2384,0.0,0.0,0.0,0.0,0.0,0.0,0.0,0.0,0.0,0.0,0.0,0.0,0.0,0.0,0.0,0.0,0.0,0.0,0.0,0.0,0.0,0.0,0.0,0.0,0.0,0.0,-2.1868,-2.1846,-2.2139,-2.2359,-2.2668,-2.2875,-2.2915,-2.2866,-2.2992,-2.3036,-2.3121,-2.2898,-2.2923,-2.3345,-2.3226,-2.3409,-2.396,-2.4088,-2.4299,-2.4565,-2.4427,-2.4363,-2.4363,-2.4216,-2.4913,-2.6244,-2.6904,-2.7945,-2.9246,-2.959,-2.9527,-2.9171,-2.8838,-2.87,-2.87,-2.87,-2.87,-2.87,-2.8958,-2.9235,-2.9612,-3.0407,-3.1087,-3.1522,-3.1326,-3.1274,-3.1156,-3.0581,-3.0424,-3.0333,-2.9954,-2.9706,-2.9575,-2.9575,-2.9418,-2.9274,-2.9274,-2.9274,-2.9425,-2.9942,-2.9567,-2.9533,-3.0881,-3.1146,-3.1336,-3.1925,-3.2038,-3.2038,-3.2038,-3.2191,-3.2247,-3.2247,-3.2342,-3.2398,-3.2398,-3.2398,-3.2398,-3.2398,-3.2398,-3.2398,-3.2398,-3.2398,-3.2398,-3.2398,-3.2398,-3.254,-3.2792,0.0,0.0,0.0,0.0,0.0,0.0,0.0,0.0,0.0,0.0,0.0,0.0,0.0,0.0,0.0,0.0,0.0,0.0,0.0,0.0,0.0,0.0,0.0,-2.3465,-2.3244,-2.3186,-2.3231,-2.3174,-2.3506,-2.4336,-2.4249,-2.3817,-2.3233,-2.3307,-2.327,-2.3006,-2.3382,-2.3776,-2.418,-2.4592,-2.4803,-2.4803,-2.5179,-2.5372,-2.5362,-2.4986,-2.4803,-2.4785,-2.4381,-2.4288,-2.4369,-2.636,-2.72,-2.7379,-2.936,-3.0216,-3.0112,-2.9137,-2.8746,-2.8746,-2.8746,-2.8746,-2.8833,-2.9591,-3.0241,-3.0799,-3.1562,-3.222,-3.2594,-3.2045,-3.1798,-3.1744,-3.1196,-3.1026,-3.1013,-3.1013,-3.0594,-3.0163,-3.0163,-2.9732,-2.9327,-2.9327,-2.9398,-2.9794,-3.1163,-3.0937,-3.0587,-3.0819,-3.141,-3.1902,-3.197,-3.2124,0.0,-3.2191,-3.2287,-3.2398,-3.2398,-3.2398,-3.2398,-3.2398,-3.2398,-3.2398,-3.2398,-3.2398,-3.2398,-3.2398,-3.2398,-3.2398,-3.2398,-3.2382,-3.2732,-3.3496,0.0,0.0,0.0,0.0,0.0,0.0,0.0,0.0,0.0,0.0,0.0,0.0,0.0,0.0,0.0,0.0,0.0,0.0,0.0,0.0,0.0,0.0,-2.6251,-2.3587,-2.3712,-2.388,-2.3202,-2.3691,-2.4069,-2.4127,-2.4248,-2.4203,-2.3985,-2.4268,-2.4461,-2.4532,-2.4739,-2.4922,-2.5032,-2.5152,-2.5216,-2.5216,-2.5317,-2.5372,-2.5372,-2.5262,-2.5216,-2.5207,-2.5087,-2.5265,-2.5756,-2.7114,-2.7893,-2.8434,-2.9646,-3.0216,-3.0181,-2.9906,-2.9802,-2.9802,-2.9802,-2.9802,-2.9834,-3.0154,-3.0712,-3.1341,-3.17,-3.222,-3.2659,-3.2502,-3.245,-3.2424,-3.2267,-3.1927,-3.1614,-3.1614,-3.1182,-3.0751,-3.0751,-3.0634,-3.0516,-3.0516,-3.0917,-3.1477,-3.1859,-3.2321,-3.2608,-3.2746,-3.2885,-3.2856,-3.2435,-3.2419,0.0,-3.1757,-3.1883,-3.1996,-3.2094,-3.2191,-3.2287,-3.2398,-3.2398,-3.2398,0.0,-3.2398,-3.2398,-3.2398,-3.2398,-3.2398,-3.2398,-3.2392,-3.2783,0.0,0.0,0.0,0.0,0.0,0.0,0.0,0.0,0.0,0.0,0.0,0.0,0.0,0.0,0.0,0.0,0.0,0.0,0.0,0.0,0.0,0.0,-2.8378,-2.7693,-2.5788,-2.5412,-2.4999,-2.4077,-2.4385,-2.4672,-2.4772,-2.4987,-2.5149,-2.5042,-2.5261,-2.5424,-2.5405,-2.5441,-2.5372,-2.5372,-2.5527,-2.5619,-2.5619,-2.5793,-2.5876,-2.5876,-2.5702,-2.5619,-2.561,-2.5445,-2.574,0.0,-2.7405,-2.8115,-2.8817,-2.9749,-3.0216,0.0,0.0,0.0,0.0,0.0,-3.0216,-3.026,-3.1001,-3.1503,-3.1981,-3.2689,-3.3161,-3.3365,-3.3143,-3.3064,-3.3012,-3.2764,-3.245,-3.215,-3.1901,-3.1588,-3.1287,-3.1039,-3.0986,-3.1048,-3.1394,-3.1809,-3.2253,-3.2942,0.0,0.0,-3.4271,-3.3873,-3.3365,-3.2976,-3.2976,-3.2736,-3.2077,-3.2234,-3.23,-3.2124,-3.2191,-3.2287,-3.2287,-3.2342,0.0,0.0,0.0,-3.2398,-3.2398,-3.2398,0.0,0.0,0.0,-3.3057,-3.3502,0.0,0.0,0.0,-3.5616,-3.5633,0.0,0.0,0.0,0.0,0.0,0.0,0.0,0.0,0.0,0.0,0.0,0.0,0.0,0.0,0.0,0.0,-2.9352,-2.9225,-2.8958,-2.7682,-2.6416,-2.5431,-2.5202,-2.5322,-2.5771,-2.6162,-2.6306,-2.6045,-2.6123,-2.6154,-2.5862,0.0,0.0,0.0,0.0,-2.6032,-2.6032,-2.6399,-2.6591,-2.6582,-2.6215,-2.6032,-2.6013,-2.5665,-2.5881,-2.6465,-2.7547,-2.8242,-2.8894,-2.9839,-3.0273,-3.0216,-3.0216,-3.0216,-3.0216,-3.0216,-3.0216,-3.0385,-3.1789,0.0,0.0,-3.3953,-3.4397,-3.4306,-3.3822,-3.3679,-3.3574,-3.3038,-3.2842,-3.2672,-3.2163,-3.1863,-3.1718,-3.1196,-3.1039,-3.1185,-3.1942,-3.2146,-3.2635,-3.4027,-3.438,-3.4677,-3.5359,-3.4517,-3.3694,-3.3619,-3.3712,-3.3532,-3.287,-3.3013,-3.2913,-3.2318,0.0,0.0,-3.2191,-3.2302,-3.2287,-3.2191,-3.2287,-3.2398,-3.2398,-3.2398,-3.2641,-3.3198,-3.3361,-3.3521,-3.3676,-3.4883,-3.5542,-3.5622,-3.5622,-3.5983,0.0,0.0,0.0,0.0,0.0,0.0,0.0,0.0,0.0,0.0,0.0,0.0,0.0,0.0,0.0,-2.9268,-2.9653,-2.976,-2.9381,-2.9018,-2.821,-2.6506,-2.5849,-2.5781,-2.6221,-2.6129,-2.6112,-2.6132,-2.6248,-2.6262,-2.5954,-2.6169,0.0,-2.6353,-2.6426,-2.6463,-2.6463,-2.6545,-2.6591,-2.6591,0.0,0.0,-2.6463,-2.6389,-2.6746,-2.7457,-2.8462,-2.9109,-2.9398,-3.0464,-3.0606,-3.0216,-3.0216,-3.0216,-3.0216,-3.0216,-3.0216,-3.0385,-3.1789,-3.2302,-3.2562,-3.3953,-3.4397,-3.4384,-3.428,-3.4241,0.0,-3.4097,-3.3757,-3.3391,-3.3273,-3.2555,-3.1733,-3.1705,-3.1313,-3.1185,-3.1942,-3.2577,-3.3283,-3.4095,-3.4824,-3.5294,-3.5504,-3.5295,-3.4936,-3.4367,-3.434,-3.41,-3.3441,-3.2961,-3.263,-3.2611,-3.2201,-3.1996,-3.2191,-3.2135,-3.2094,-3.2191,-3.2247,-3.2302,-3.2398,-3.2398,-3.2641,-3.3198,-3.3214,-3.3668,-3.4556,-3.4719,-3.5068,-3.5622,-3.5622,-3.6174,0.0,0.0,0.0,0.0,0.0,0.0,0.0,0.0,0.0,0.0,0.0,-2.8595,0.0,0.0,-2.9785,-3.005,-3.0314,-3.0479,-3.0555,-3.0159,-2.906,-2.7139,-2.6601,-2.6356,-2.6129,-2.6361,-2.6458,-2.6466,-2.6776,-2.6798,-2.6467,-2.658,-2.6591,-2.6591,-2.6591,-2.6591,-2.6591,-2.6591,-2.6591,-2.6591,-2.6591,-2.6591,-2.6591,-2.7206,-2.7806,-2.8418,-2.9534,-3.0122,-3.0308,-3.0525,-3.0457,-3.0216,-3.0216,-3.0216,-3.0216,-3.0216,-3.0397,-3.0937,-3.1965,-3.2575,-3.3018,-3.405,-3.4397,-3.4397,-3.4397,-3.4397,-3.4397,-3.4397,-3.4201,-3.3927,-3.3666,-3.3156,-3.2568,-3.198,-3.1919,-3.2125,-3.2588,-3.3199,-3.3973,-3.4758,-3.5213,-3.5504,-3.5504,-3.5504,-3.5385,-3.504,-3.4996,-3.4741,-3.4068,-3.377,-3.3502,-3.3246,-3.2989,-3.2715,-3.2482,-3.2482,-3.254,-3.2597,-3.3073,-3.333,-3.3299,-3.364,-3.407,-3.4686,-3.4949,-3.5462,-3.6346,-3.6296,-3.6407,-3.6772,-3.6996,-3.7456,0.0,0.0,0.0,0.0,0.0,0.0,0.0,0.0,-2.815,-2.857,-2.9088,-2.9448,-2.9448,-2.9881,-3.0386,-3.0807,-3.0963,-3.118,-3.1601,-3.1003,-2.9795,-2.7746,-2.7284,-2.6937,-2.6226,-2.6604,-2.6917,-2.7007,-2.7242,-2.7314,-2.6989,-2.6791,-2.6691,-2.6591,-2.6591,-2.6591,-2.6591,-2.6591,-2.6591,-2.6591,-2.6591,-2.6691,-2.6899,-2.7814,-2.8765,-2.9761,-3.0697,-3.1177,-3.1123,-3.0595,-3.0308,-3.0216,-3.0216,-3.0216,-3.0216,-3.0216,-3.0668,-3.1383,-3.2052,-3.276,-3.3484,-3.4147,-3.4397,-3.4397,-3.4397,-3.4397,-3.4397,-3.4397,-3.4397,-3.4293,-3.3862,-3.3679,-3.3433,-3.2541,-3.2657,-3.3096,-3.3508,-3.3991,-3.4528,-3.5344,-3.5504,-3.5504,-3.5504,-3.5504,-3.5504,-3.5504,-3.5504,-3.5295,-3.4741,-3.4688,-3.4465,-3.3908,-3.3849,-3.3547,-3.29,-3.3048,-3.3122,-3.3122,-3.3933,-3.4268,-3.4134,-3.482,-3.5498,-3.612,-3.6678,-3.727,-3.7905,-3.7905,-3.7905,-3.7905,-3.8397,-3.8738,-2.5877,-2.637,-2.6767,-2.6827,-2.7236,-2.7657,0.0,0.0,-2.9136,-2.9196,-2.9629,-3.0001,-3.0001,-3.0434,-3.0807,-3.0867,-3.1264,-3.1589,-3.1661,-3.1572,-3.0824,-2.8773,-2.7746,-2.7156,-2.6855,-2.6778,-2.6929,-2.7718,-2.7511,-2.7314,-2.6989,-2.6989,-2.6899,-2.6591,-2.6591,-2.6591,-2.6591,-2.6591,-2.6591,-2.6591,-2.6591,-2.7107,-2.8019,-2.8126,-2.9347,-3.1374,-3.207,-3.2071,-3.1651,-3.1134,-3.0641,-3.0216,-3.0216,-3.0216,-3.0216,-3.0216,-3.0668,-3.1383,-3.2052,-3.276,-3.3484,-3.4147,-3.4397,-3.4397,-3.4397,-3.4397,-3.4397,-3.4397,-3.4397,-3.4384,-3.4332,-3.3953,-3.3791,-3.431,-3.3707,-3.334,-3.4751,-3.4636,-3.4528,-3.5344,-3.5504,-3.5504,-3.5504,-3.5504,-3.5504,-3.5504,-3.5504,-3.5474,-3.54,-3.4861,-3.4505,-3.443,-3.3905,-3.3516,-3.3456,-3.3547,-3.3608,-3.3608,-3.3729,-3.3819,-3.3924,-3.4674,-3.5395,-3.5911,-3.6662,-3.7336,-3.7905,-3.7905,-3.7905,-3.7905,-3.8397,-3.8816,-2.6803,-2.7212,0.0,0.0,-2.8246,-2.8643,-2.8643,-2.922,-2.9761,-2.9761,-3.0182,-3.0543,-3.0543,-3.0975,-3.1336,0.0,-3.1517,-3.1661,-3.1661,-3.1661,-3.1193,-2.9704,-2.9502,-2.8721,-2.6943,-2.6807,-2.7052,-2.758,-2.7638,-2.753,-2.6989,-2.7098,-2.6999,-2.6591,-2.6791,-2.6791,-2.6591,-2.6591,-2.6591,-2.6591,-2.7196,-2.7824,-2.8223,-2.9587,-3.1051,-3.2611,-3.251,-3.2213,-3.1731,-3.1226,-3.0698,-3.0216,-3.0216,-3.0216,-3.0216,-3.0668,-3.1282,-3.1977,-3.2673,-3.3373,-3.4063,-3.4314,-3.4397,-3.4397,-3.4397,-3.4397,-3.4397,-3.4397,-3.4397,-3.4397,-3.4397,-3.4627,-3.4835,-3.479,-3.5149,-3.5492,-3.5853,-3.5981,-3.6126,-3.6066,-3.6073,-3.5953,-3.5564,-3.5504,-3.5504,-3.5504,-3.5504,-3.5504,-3.5504,-3.525,-3.507,-3.507,-3.4472,-3.4068,-3.4068,-3.4224,-3.4224,-3.4177,-3.4725,-3.4999,-3.4969,-3.5957,-3.6699,-3.7118,-3.8121,-3.8807,-3.9174,-3.9174,-3.9304,-3.9607,-4.0065,-4.0533,-2.7729,0.0,0.0,-2.8667,-2.9124,-2.952,-2.952,-2.9929,-3.0302,-3.0302,-3.0723,-3.1096,-3.1096,-3.1408,0.0,-3.1661,-3.1661,-3.1661,-3.1661,-3.1805,-3.152,-3.057,-3.0859,-3.0297,-2.8016,-2.767,-2.7678,-2.8106,-2.795,-2.7745,-2.7314,-2.7314,-2.7215,-2.6691,-2.6791,-2.6791,-2.6591,-2.6591,-2.6591,-2.6591,-2.7716,-2.8329,-2.8754,-3.1062,-3.2533,-3.3258,-3.2879,-3.2351,-3.1743,-3.1375,-3.0824,-3.0216,-3.0216,-3.0216,-3.0306,-3.1193,-3.1889,-3.2401,-3.3129,-3.381,-3.4397,-3.4397,-3.4397,-3.4397,-3.4397,-3.4397,-3.4397,-3.4397,-3.4397,-3.4397,-3.4397,-3.5032,-3.5641,-3.5429,-3.6335,-3.7143,-3.6906,-3.7178,-3.7285,-3.6821,-3.6746,-3.6582,-3.6118,-3.5893,-3.5774,-3.5774,-3.5624,-3.5504,-3.5504,-3.5504,-3.5504,-3.5504,-3.5055,-3.4756,-3.4756,-3.4868,-3.4868,-3.4756,-3.5461,-3.5797,-3.5638,-3.689,-3.769,-3.7905,-3.9082,-3.9833,-4.0037,-4.0037,-4.0303,-4.0802,-4.1276,-4.176,0.0,0.0,-2.9893,-2.94,-2.9677,-3.0062,-3.0062,-3.047,-3.0855,-3.0855,-3.1264,-3.1637,-3.1637,-3.1661,-3.1661,-3.1661,-3.1661,-3.1661,-3.1661,-3.213,-3.2091,-3.1136,-3.1481,-3.1496,0.0,-2.9614,-2.9106,-2.9786,-2.8581,-2.7853,-2.7853,-2.7539,-2.7314,-2.6989,-2.6791,-2.6591,-2.6591,-2.6591,-2.6591,-2.6591,-2.7716,-2.8754,-2.9922,-3.2229,-3.3281,-3.3281,-3.3269,-3.2695,-3.1766,-3.1754,-3.1134,-3.0216,-3.0216,-3.0216,-3.0385,-3.1789,-3.2314,-3.2401,-3.3129,-3.381,-3.4397,-3.4397,-3.4397,-3.4397,-3.4397,-3.4397,-3.4397,-3.4397,-3.4397,-3.4397,-3.4397,-3.5032,-3.5883,-3.6632,-3.7025,-3.7419,-3.8136,-3.7853,-3.7404,-3.7389,-3.7375,-3.7375,-3.736,-3.6851,-3.6462,-3.6462,-3.5908,-3.5504,-3.5504,-3.5504,-3.5504,-3.5504,-3.5489,-3.5474,-3.5474,-3.5474,-3.5474,-3.5474,-3.5489,-3.5504,-3.5504,-3.6829,-3.7589,-3.7589,-3.8974,-3.9781,-3.9901,-3.9901,-4.0204,-4.0802,-4.1276,-4.176,0.0,0.0,-2.9689,-3.0218,-3.0482,-3.0603,-3.0603,-3.1023,-3.1504,-3.1877,-3.2094,-3.2334,-3.2683,-3.2454,-3.2214,-3.2214,-3.1901,-3.1793,-3.2166,-3.2382,-3.2532,-3.2497,-3.2983,0.0,0.0,0.0,0.0,-3.103,-3.065,-3.0224,-2.9797,-2.9817,-2.9618,-2.8986,-2.8976,-2.8976,-2.8784,-2.8784,-2.8784,-2.8774,-2.9911,-3.1062,-3.2229,-3.2969,-3.3281,-3.3281,-3.3281,-3.2707,-3.1766,-3.1766,-3.1157,-3.0216,-3.0216,-3.0216,-3.0385,-3.1789,-3.2302,-3.2488,-3.3628,-3.423,-3.4397,-3.4397,-3.4397,-3.4397,-3.4397,-3.4397,-3.4397,-3.4397,-3.4799,-3.5264,-3.5264,-3.6294,-3.7414,-3.7706,-3.8237,-3.8763,-3.8994,-3.8901,-3.8616,-3.8153,-3.8063,-3.7913,-3.7479,-3.724,-3.6956,-3.6552,-3.5923,-3.5504,-3.5504,-3.5504,-3.5504,-3.5504,-3.5504,-3.5504,-3.5504,-3.5504,-3.5504,-3.5504,-3.5504,-3.5683,-3.6085,-3.6951,-3.7706,-3.8165,-3.9115,-3.9694,-3.9901,-3.9901,-4.0385,-4.1276,-4.1455,-4.1931,-3.0314,-3.0374,-3.0266,-3.0747,-3.1011,-3.1156,-3.1156,-3.1577,-3.201,-3.2166,-3.237,-3.2539,-3.2683,-3.243,-3.2262,-3.2466,-3.2202,-3.2154,-3.2707,-3.2935,-3.3176,-3.3525,-3.4018,0.0,0.0,0.0,0.0,-3.2162,-3.1688,-3.1268,-3.0938,-3.0845,-3.065,-3.0016,-3.012,-3.012,-2.9922,-2.9922,-3.013,-3.0546,-3.1268,-3.2218,-3.3281,-3.3281,-3.3281,-3.3281,-3.3281,-3.2707,-3.1766,-3.1766,-3.1157,-3.0216,-3.0216,-3.0397,-3.0758,-3.1877,-3.2488,-3.2846,-3.3966,-3.4397,-3.4397,-3.4397,-3.4397,-3.4397,-3.4397,-3.4397,-3.4397,-3.4397,-3.5032,-3.5669,-3.5669,-3.6936,-3.8202,-3.8202,-3.8811,-3.9424,-3.9424,-3.9424,-3.929,-3.8841,-3.8751,-3.8616,-3.8197,-3.7928,-3.7539,-3.6911,-3.6447,-3.6013,-3.5564,-3.5504,-3.5504,-3.5504,-3.5504,-3.5504,-3.5504,-3.5504,-3.5504,-3.5504,-3.5504,-3.5797,-3.6368,-3.7011,-3.7706,-3.8407,-3.9077,-3.9537,-3.9746,-3.9746,-4.0336,-4.1348,-4.1348,-4.203,-3.0158,-3.0879,-3.1504,-3.1036,-3.1288,-3.1673,-3.1697,-3.2094,-3.2322,-3.1853,-3.2154,-3.2346,0.0,0.0,-3.1889,-3.2418,-3.2478,-3.2659,-3.3212,-3.3705,-3.4018,0.0,0.0,0.0,0.0,0.0,0.0,-3.34,0.0,-3.1381,-3.1392,-3.0845,-3.0525,-3.0421,-3.0224,-3.013,-3.0026,-3.0026,-3.065,-3.1688,-3.1688,-3.2218,-3.3281,-3.3281,-3.3281,-3.3281,-3.3281,-3.2707,-3.1766,-3.1766,-3.1146,-3.0216,-3.0216,-3.0668,-3.1395,-3.2052,-3.276,-3.3484,-3.4147,-3.4397,-3.4397,-3.4397,-3.4397,-3.4397,-3.4481,-3.4481,-3.4481,-3.4564,-3.5196,-3.583,-3.583,-3.7014,-3.8277,-3.8277,-3.8811,-3.9424,-3.9424,-3.9424,-3.9424,-3.9424,-3.9424,-3.9424,-3.9424,-3.8871,-3.8212,-3.7554,-3.7464,-3.7,-3.5729,-3.5549,-3.5549,-3.5504,-3.5504,-3.5504,-3.5504,-3.5504,-3.5504,-3.5504,-3.5504,-3.5797,-3.643,-3.7071,-3.7706,-3.8351,-3.8969,-3.9379,-3.9501,-3.9537,-4.0104,-4.1174,-4.1192,-4.2255,-3.1048,-3.1168,-3.1144,-3.1396,-3.1565,-3.1769,-3.219,-3.207,-3.207,-3.2743,-3.2671,-3.2575,0.0,0.0,0.0,-3.2478,-3.2154,0.0,-3.3152,-3.3404,0.0,0.0,0.0,-3.4823,-3.4823,-3.4823,0.0,0.0,-3.3918,-3.3534,-3.3346,-3.3235,-3.2935,-3.2544,-3.2633,-3.2633,-3.2443,-3.2443,-3.2544,-3.2857,-3.2857,-3.3069,-3.3281,-3.3281,-3.3281,-3.3281,-3.3281,-3.2695,-3.1743,-3.1743,-3.1134,-3.0216,-3.0216,-3.0668,-3.1395,-3.2052,-3.276,-3.3484,-3.4147,-3.4397,-3.4397,-3.4397,-3.4397,-3.4564,-3.5196,-3.5345,-3.5507,-3.6108,-3.6908,-3.7567,-3.7567,-3.8337,-3.9104,-3.9104,-3.9265,-3.9424,-3.9424,-3.9424,-3.9424,-3.9424,-3.9424,-3.9424,-3.9424,-3.9275,-3.8931,-3.8242,-3.8138,-3.7674,-3.6402,-3.6237,-3.6043,-3.5549,-3.5504,-3.5504,-3.5504,-3.5504,-3.5504,-3.5504,-3.5504,-3.5973,-3.7071,-3.731,-3.7895,-3.9023,-3.9202,-3.9379,-3.9501,-3.9867,-4.069,-4.1992,-4.2394,-4.3408,-3.1096,-3.1264,-3.1288,-3.1589,-3.1661,-3.1745,-3.2058,-3.2082,-3.2142,-3.2503,-3.2539,0.0,0.0,0.0,0.0,0.0,0.0,0.0,-3.3176,-3.3477,-3.3837,0.0,-3.4691,0.0,-3.4823,-3.4823,-3.4823,0.0,-3.4445,-3.4249,-3.4261,-3.4075,-3.3779,-3.3481,-3.358,-3.358,-3.3281,-3.3281,-3.3281,-3.3281,-3.3281,-3.3281,-3.3281,-3.3281,-3.3281,-3.3269,0.0,-3.2477,-3.1731,-3.1513,-3.0939,-3.0216,-3.0216,-3.0836,-3.1801,-3.214,-3.292,-3.3894,-3.423,-3.4397,-3.4397,-3.4397,-3.4397,-3.4551,-3.5426,-3.5669,-3.5896,-3.666,-3.7539,-3.8202,-3.8202,-3.8811,-3.9424,-3.9424,-3.9424,-3.9424,-3.9424,-3.9424,-3.9424,-3.9424,-3.9424,-3.9424,-3.9424,-3.9424,-3.929,-3.8901,-3.8841,-3.8467,-3.7449,-3.6836,-3.6342,-3.5968,-3.5684,-3.5504,-3.5504,-3.5504,-3.5504,-3.5504,-3.5733,-3.6383,-3.737,-3.7648,-3.8254,-3.9272,-3.9272,-3.9491,-3.9877,-4.039,-4.1321,-4.2632,-4.3248,-4.427,-3.0819,-3.1312,-3.1661,-3.1661,-3.1661,-3.1685,-3.1757,-3.2094,-3.2274,-3.1865,0.0,-3.2238,-3.1757,0.0,-3.1817,-3.231,0.0,-3.2575,-3.3104,-3.3621,-3.397,-3.403,-3.4499,-3.4823,-3.4823,-3.4823,-3.4823,-3.4823,-3.4359,-3.4261,-3.4433,-3.3965,-3.3779,-3.3779,-3.3679,-3.358,-3.3381,-3.3381,-3.3381,-3.3281,-3.3281,-3.3281,-3.3281,-3.3281,-3.3247,-3.3155,0.0,0.0,-3.1628,-3.1192,-3.0698,-3.0216,-3.0306,-3.1181,-3.2302,-3.2401,-3.3275,-3.4397,-3.4397,-3.4397,-3.4397,-3.4397,-3.4481,-3.4703,-3.5588,-3.5976,-3.6215,-3.6972,-3.7782,-3.8352,-3.8352,-3.8885,-3.9424,-3.9424,-3.9424,-3.9424,-3.9424,-3.9424,-3.9424,-3.9424,-3.9424,-3.9424,-3.9424,-3.9424,-3.9424,-3.9424,-3.9424,-3.92,-3.8601,-3.7404,-3.6582,-3.6492,-3.5893,-3.5504,-3.5504,-3.5504,-3.5504,-3.5504,-3.6085,-3.6723,-3.737,-3.7994,-3.859,-3.9272,-3.9425,-3.9736,-4.0382,-4.1081,-4.204,-4.3164,-4.3992,-4.5063,-3.1264,-3.1589,-3.1661,-3.1661,-3.1661,-3.1793,-3.225,-3.207,0.0,0.0,0.0,-3.1781,-3.1685,-3.1661,0.0,-3.1793,0.0,0.0,0.0,0.0,-3.3573,0.0,0.0,0.0,0.0,0.0,0.0,0.0,0.0,0.0,-3.4433,-3.4162,-3.4075,-3.4075,-3.3779,-3.3679,-3.3679,-3.3679,-3.3481,-3.3281,-3.3281,-3.3281,-3.3281,-3.3281,-3.304,-3.2615,0.0,0.0,-3.1134,-3.1054,-3.0698,-3.0216,-3.0847,-3.1637,-3.2401,-3.2945,-3.3725,-3.4397,-3.4397,-3.4397,-3.4397,-3.4397,-3.4868,-3.5655,-3.6425,-3.7218,-3.7947,-3.8723,-3.9104,-3.9192,-3.9192,-3.9265,-3.9424,-3.9424,-3.9424,-3.9424,-3.9424,-3.9424,-3.9424,-3.9424,-3.9424,-3.9424,-3.9424,-3.9424,-3.9424,-3.9424,-3.9424,-3.9379,-3.926,-3.8078,-3.7045,-3.6537,-3.5893,-3.5504,-3.5504,-3.5504,-3.5504,-3.5504,-3.6085,-3.6723,-3.737,-3.7994,-3.859,-3.9272,-3.9885,-4.0249,-4.0382,-4.1937,-4.3115,-4.4008,-4.5145,-4.6193,-3.1384,-3.1661,-3.1661,-3.1661,-3.1456,-3.1396,-3.1937,0.0,0.0,0.0,0.0,-3.1661,-3.1661,0.0,0.0,0.0,0.0,0.0,0.0,0.0,0.0,0.0,0.0,0.0,0.0,0.0,0.0,0.0,0.0,0.0,-3.4433,-3.4261,-3.4075,-3.4075,-3.3977,-3.3878,-3.3679,-3.3679,-3.358,-3.3281,-3.3281,-3.3281,-3.3281,-3.2994,-3.273,-3.2454,-3.1938,0.0,-3.0996,-3.0721,-3.0445,-3.0306,-3.1026,-3.1725,-3.2401,-3.3129,-3.381,-3.4397,-3.4397,-3.4397,-3.4397,-3.4397,-3.495,-3.5816,-3.666,-3.7539,-3.8352,-3.9192,-3.9424,-3.9424,-3.9424,-3.9424,-3.9424,-3.9424,-3.9424,-3.9424,-3.9424,-3.9424,-3.9424,-3.9424,-3.9424,-3.9424,-3.9424,-3.9424,-3.9424,-3.9424,-3.9424,-3.9424,-3.9424,-3.8542,-3.7674,-3.703,-3.6402,-3.5878,-3.5534,-3.5797,-3.5973,-3.5973,-3.6829,-3.7531,-3.7879,-3.8479,-3.9133,-3.9835,-4.0199,-4.0746,-4.1491,-4.2943,-4.4009,-4.4803,-4.6063,-4.6916,-3.1204,-3.1492,-3.1492,-3.1492,-3.118,-3.0987,-3.1396,-3.1168,0.0,0.0,-3.1661,-3.1661,-3.1661,0.0,0.0,0.0,0.0,0.0,0.0,0.0,0.0,0.0,0.0,0.0,0.0,0.0,0.0,0.0,0.0,0.0,-3.4433,-3.4261,-3.4075,-3.4075,-3.4075,-3.3977,-3.3779,-3.3779,-3.3679,-3.3381,-3.3281,-3.3224,-3.3097,-3.2673,-3.2363,-3.2121,-3.1352,0.0,0.0,-3.0388,-3.0306,-3.0487,-3.1193,-3.1889,-3.2575,-3.3386,-3.3979,-3.4397,-3.4397,-3.4397,-3.4397,-3.4634,-3.5264,-3.6042,-3.6738,-3.7615,-3.859,-3.9192,-3.9424,-3.9424,-3.9424,-3.9424,-3.9424,-3.9424,-3.9424,-3.9424,-3.9424,-3.9424,-3.9424,-3.9424,-3.9424,-3.9424,-3.9424,-3.9424,-3.9424,-3.9424,-3.9424,-3.9424,-3.9424,-3.8945,-3.8362,-3.7689,-3.6941,-3.6222,-3.5564,-3.6022,-3.643,-3.643,-3.7589,-3.8278,-3.8278,-3.8952,-3.962,-4.0365,-4.0531,-4.1243,-4.2518,-4.3812,-4.4768,-4.5355,-4.6707,-4.732,-3.0663,-3.0951,-3.0951,-3.0951,-3.0915,-3.0891,-3.0939,0.0,0.0,-3.1553,-3.1661,-3.1661,-3.1661,-3.1661,-3.1661,0.0,0.0,0.0,0.0,0.0,0.0,0.0,0.0,0.0,0.0,0.0,0.0,0.0,0.0,0.0,0.0,-3.4261,-3.4075,-3.4075,-3.4075,-3.4075,-3.4075,-3.4075,-3.3977,-3.3679,-3.3381,-3.3028,-3.2558,-3.25,-3.1995,-3.1146,0.0,0.0,0.0,-3.0239,-3.0578,-3.1294,-3.1977,-3.2673,-3.3386,-3.4063,-3.4314,-3.4397,-3.4397,-3.4397,-3.4564,-3.5345,-3.6122,-3.6802,-3.688,-3.7994,-3.9337,-3.9352,-3.9424,-3.9424,-3.9424,-3.9424,-3.9424,-3.9424,-3.9424,-3.9424,-3.9424,-3.9424,-3.9424,-3.9424,-3.9424,-3.9424,-3.9424,-3.9424,-3.9424,-3.9424,-3.9424,-3.9424,-3.9424,-3.9364,-3.9065,-3.8377,-3.721,-3.6222,-3.5564,-3.6022,-3.643,-3.643,-3.7589,-3.8278,-3.8278,-3.8952,-3.962,-4.0365,-4.0994,-4.1707,-4.2518,-4.434,-4.5286,-4.5511,-4.6707,-4.7363,-3.1568,-3.1535,-3.1119,-3.1119,-3.0565,-3.0098,-3.0735,0.0,-3.081,-3.2241,-3.2077,-3.1825,-3.2413,-3.2077,-3.1661,-3.1661,0.0,0.0,0.0,0.0,0.0,0.0,0.0,0.0,0.0,0.0,0.0,0.0,0.0,0.0,0.0,-3.4445,-3.4249,-3.4249,-3.4249,-3.4261,-3.4075,-3.3648,-3.3191,-3.2995,-3.2489,-3.2248,-3.2041,-3.1743,-3.1387,-3.0996,0.0,0.0,0.0,-3.0216,-3.0668,-3.1395,-3.2064,-3.276,-3.3484,-3.4147,-3.4397,-3.4397,-3.4397,-3.4397,-3.4551,-3.5426,-3.6281,-3.6972,-3.7539,-3.8486,-3.9424,-3.9424,-3.9424,-3.9424,-3.9424,-3.9424,-3.9424,-3.9424,-3.9424,-3.9424,-3.9424,-3.9424,-3.9424,-3.9424,-3.9424,-3.9424,-3.9424,-3.9424,-3.9424,-3.9424,-3.9424,-3.9424,-3.9424,-3.9424,-3.9005,-3.7913,-3.7345,-3.6791,-3.6148,-3.6676,-3.7011,-3.7011,-3.8197,-3.8898,-3.8898,-3.9148,-3.9818,-4.0978,-4.1276,-4.2005,-4.3181,-4.4277,-4.5001,-4.5407,-4.631,-4.6954,-3.1993,-3.1819,-3.142,-3.142,-3.0728,-3.0195,0.0,0.0,-3.0974,-3.271,-3.2549,-3.2239,-3.2907,-3.2488,-3.2001,-3.1749,0.0,-3.1661,0.0,0.0,0.0,0.0,0.0,0.0,0.0,0.0,0.0,0.0,0.0,0.0,0.0,-3.4376,-3.4278,-3.4335,-3.4083,-3.3915,-3.373,-3.301,-3.2549,-3.2356,-3.1915,-3.1674,-3.1536,-3.118,-3.0928,-3.0755,0.0,0.0,0.0,-3.0216,-3.0746,-3.1637,-3.214,-3.2834,-3.3725,-3.423,-3.4397,-3.4397,-3.4397,-3.4397,-3.4551,-3.5655,-3.6425,-3.7127,-3.8188,-3.8958,-3.9424,-3.9424,-3.9424,-3.9424,-3.9424,-3.9424,-3.9424,-3.9424,-3.9424,-3.9424,-3.9424,-3.9424,-3.9424,-3.9424,-3.9424,-3.9424,-3.9424,-3.9424,-3.9424,-3.9424,-3.9424,-3.9424,-3.9424,-3.9424,-3.8975,-3.7823,-3.7524,-3.709,-3.6267,-3.694,-3.7429,-3.7429,-3.8623,-3.9272,-3.9272,-3.9272,-3.9852,-4.1077,-4.1309,-4.2038,-4.3297,-4.4118,-4.4801,-4.5355,-4.6017,-4.666,-3.1524,-3.168,-3.168,-3.168,-3.168,-3.168,0.0,0.0,-3.1663,-3.3096,-3.3181,-3.2993,-3.298,-3.2993,-3.2735,-3.1825,-3.1661,0.0,0.0,0.0,0.0,0.0,0.0,0.0,0.0,0.0,0.0,0.0,0.0,0.0,0.0,-3.4138,-3.3801,-3.4052,-3.3352,-3.2878,-3.2878,-3.2367,-3.2123,-3.2123,-3.1849,-3.1502,-3.1019,-3.1019,-3.0721,0.0,0.0,0.0,0.0,-3.0216,-3.1003,-3.2302,-3.2302,-3.3177,-3.4397,-3.4397,-3.4397,-3.4397,-3.4397,-3.4397,-3.4703,-3.6346,-3.688,-3.7204,-3.887,-3.9424,-3.9424,-3.9424,-3.9424,-3.9424,-3.9424,-3.9424,-3.9424,-3.9424,-3.9424,-3.9424,-3.9424,-3.9424,-3.9424,-3.9424,-3.9424,-3.9424,-3.9424,-3.9424,-3.9424,-3.9424,-3.9424,-3.9424,-3.9424,-3.9424,-3.9155,-3.8452,-3.7808,-3.6896,-3.5624,-3.6677,-3.7429,-3.7429,-3.8623,-3.9272,-3.9272,-3.9272,-3.962,-4.0382,-4.1061,-4.1789,-4.2535,-4.3866,-4.4855,-4.5511,-4.6049,-4.6707,-3.2563,-3.2386,-3.1978,-3.1978,-3.1532,-3.1261,-3.1589,-3.1954,-3.2605,-3.398,-3.4065,-3.3888,-3.3888,-3.3395,-3.2735,-3.1825,-3.1661,0.0,0.0,0.0,0.0,0.0,0.0,0.0,0.0,0.0,0.0,0.0,0.0,0.0,0.0,0.0,-3.3743,-3.3801,-3.291,-3.2355,-3.2355,-3.1667,-3.1331,-3.1331,-3.0882,-3.0618,-3.0468,-3.0468,0.0,0.0,0.0,0.0,0.0,-3.0216,-3.1003,-3.2302,-3.2302,-3.3177,-3.4397,-3.4397,-3.4397,-3.4397,-3.4397,-3.4397,-3.4716,-3.6346,-3.688,-3.7204,-3.887,-3.9424,-3.9424,-3.9424,-3.9424,-3.9424,-3.9424,-3.9424,-3.9424,-3.9424,-3.9424,-3.9424,-3.9424,-3.9424,-3.9424,-3.9424,-3.9424,-3.9424,-3.9424,-3.9424,-3.9424,-3.9424,-3.9424,-3.9424,-3.9424,-3.9424,-3.899,-3.7838,-3.7539,-3.7075,-3.6252,-3.694,-3.7429,-3.7429,-3.8623,-3.9272,-3.9272,-3.9272,-3.962,-4.0365,-4.0597,-4.1309,-4.2518,-4.2924,-4.3922,-4.5355,-4.6017,-4.666,0.0,-3.2931,-3.2547,-3.2547,-3.2173,0.0,0.0,-3.2661,-3.3405,-3.4648,-3.4834,-3.4815,-3.4815,-3.3887,-3.2997,-3.2302,-3.1743,0.0,0.0,0.0,0.0,0.0,0.0,0.0,0.0,0.0,0.0,0.0,0.0,0.0,0.0,0.0,-3.2983,-3.296,-3.2183,-3.1738,-3.1656,-3.1055,-3.0709,-3.0709,-3.0376,-3.0216,-3.0216,-3.0216,0.0,0.0,0.0,0.0,0.0,-3.0578,-3.1448,-3.276,-3.276,-3.3445,-3.4397,-3.4397,-3.4397,-3.4397,-3.4397,-3.4397,-3.4716,-3.6346,-3.7357,-3.8069,-3.9104,-3.9424,-3.9424,-3.9424,-3.9424,-3.9424,-3.9424,-3.9424,-3.9424,-3.9424,-3.9424,-3.9424,-3.9424,-3.9424,-3.9424,-3.9424,-3.9424,-3.9424,-3.9424,-3.9424,-3.9424,-3.9424,-3.9424,-3.9424,-3.9424,-3.9424,-3.8901,-3.7554,-3.7404,-3.7113,-3.6557,-3.7033,-3.7488,-3.7706,-3.8733,-3.9272,-3.9272,-3.9272,-3.9487,-3.9951,-4.0233,-4.0812,-4.1707,-4.2465,-4.3534,-4.4941,-4.5926,-4.6564,0.0,-3.3326,0.0,0.0,0.0,0.0,0.0,-3.3601,0.0,-3.4976,-3.5452,-3.5682,-3.5601,-3.4473,-3.345,-3.3047,-3.1822,0.0,0.0,0.0,0.0,0.0,0.0,0.0,0.0,0.0,0.0,0.0,0.0,0.0,0.0,0.0,-3.1701,-3.1666,-3.1505,-3.124,-3.0962,-3.0468,-3.0216,-3.0216,-3.0216,-3.0216,-3.0216,-3.0216,0.0,0.0,0.0,0.0,0.0,-3.1306,-3.2089,-3.3398,-3.3398,-3.381,-3.4397,-3.4397,-3.4397,-3.4397,-3.4397,-3.4397,-3.4716,-3.6346,-3.7994,-3.9424,-3.9424,-3.9424,-3.9424,-3.9424,-3.9424,-3.9424,-3.9424,-3.9424,-3.9424,-3.9424,-3.9424,-3.9424,-3.9424,-3.9424,-3.9424,-3.9424,-3.9424,-3.9424,-3.9424,-3.9424,-3.9424,-3.9424,-3.9424,-3.9424,-3.9424,-3.9379,-3.8856,-3.7554,-3.7375,-3.7074,-3.6538,-3.7011,-3.7663,-3.8278,-3.8952,-3.9272,-3.9272,-3.9272,-3.9272,-3.9272,-4.0001,-4.0382,-4.0382,-4.2337,-4.3537,-4.4147,-4.5607,-4.6219,-3.3326,0.0,-3.3326,-3.3326,-3.3326,-3.3326,0.0,-3.3744,-3.4343,-3.5054,0.0,-3.5787,-3.5042,-3.467,-3.3993,-3.2849,-3.2155,0.0,0.0,0.0,0.0,0.0,0.0,0.0,0.0,0.0,0.0,0.0,0.0,0.0,0.0,0.0,-3.1936,-3.116,-3.116,-3.0877,-3.0399,-3.0285,-3.0216,-3.0216,-3.0216,-3.0216,-3.0216,-3.0216,0.0,0.0,0.0,0.0,-3.1306,-3.1306,-3.2089,-3.3398,-3.3398,-3.381,-3.4397,-3.4397,-3.4397,-3.4397,-3.4397,-3.4397,-3.4716,-3.6373,-3.8008,-3.9424,-3.9424,-3.9424,-3.9424,-3.9424,-3.9424,-3.9424,-3.9424,-3.9424,-3.9424,-3.9424,-3.9424,-3.9424,-3.9424,-3.9424,-3.9424,-3.9424,-3.9424,-3.9424,-3.9424,-3.9424,-3.9424,-3.9424,-3.9424,-3.9424,-3.9424,-3.896,-3.8317,-3.7494,-3.6985,-3.6854,-3.715,-3.731,-3.7663,-3.8278,-3.8952,-3.9272,-3.9272,-3.9272,-3.9272,-3.9272,-4.0001,-4.0382,-4.0382,-4.1411,-4.2328,-4.3285,-4.3756,-4.4442,-3.3326,-3.3326,-3.3326,-3.3326,-3.3326,-3.3326,-3.3326,0.0,0.0,0.0,0.0,0.0,0.0,0.0,0.0,0.0,0.0,0.0,0.0,0.0,0.0,0.0,0.0,0.0,0.0,0.0,0.0,0.0,0.0,0.0,0.0,0.0,-3.2293,-3.1737,-3.1128,-3.0589,-3.0216,-3.0216,-3.0216,-3.0216,-3.0216,-3.0216,-3.0216,-3.0216,0.0,0.0,0.0,0.0,-3.1813,-3.2077,-3.2859,-3.3894,-3.3894,-3.4063,-3.4397,-3.4397,-3.4397,-3.4397,-3.4397,-3.4868,-3.5722,-3.6596,-3.8008,-3.9424,-3.9424,-3.9424,-3.9424,-3.9424,-3.9424,-3.9424,-3.9424,-3.9424,-3.9424,-3.9424,-3.9424,-3.9424,-3.9424,-3.9424,-3.9424,-3.9424,-3.9424,-3.9424,-3.9424,-3.9424,-3.9424,-3.9424,-3.9424,-3.9305,-3.899,-3.8616,-3.8033,-3.709,-3.6686,-3.6751,-3.7373,-3.7429,-3.778,-3.8717,-3.9094,-3.9272,-3.9272,-3.9272,-3.9272,-3.9272,-3.9669,-3.9885,-3.9885,-4.0597,-4.1389,-4.2277,-4.2953,-4.3512,-3.3326,-3.3326,-3.3326,-3.3326,-3.3326,-3.3326,-3.3326,0.0,0.0,0.0,0.0,0.0,0.0,0.0,0.0,0.0,0.0,0.0,0.0,0.0,0.0,0.0,0.0,0.0,0.0,0.0,0.0,0.0,0.0,0.0,0.0,0.0,0.0,-3.2796,-3.1601,-3.0824,-3.0464,-3.0295,-3.0216,-3.0216,-3.0216,-3.0216,-3.0216,-3.0216,-3.0216,0.0,0.0,0.0,-3.2401,-3.3129,-3.381,-3.4397,-3.4397,-3.4397,-3.4397,-3.4397,-3.4397,-3.4397,-3.4397,-3.5494,-3.688,-3.688,-3.7994,-3.9424,-3.9424,-3.9424,-3.9424,-3.9424,-3.9424,-3.9424,-3.9424,-3.9424,-3.9424,-3.9424,-3.9424,-3.9424,-3.9424,-3.9424,-3.9424,-3.9424,-3.9424,-3.9424,-3.9424,-3.9424,-3.9424,-3.9424,-3.9424,-3.917,-3.8482,-3.8302,-3.7793,-3.6611,-3.6402,-3.6645,-3.7358,-3.7429,-3.7953,-3.9218,-3.9272,-3.9272,-3.9272,-3.9272,-3.9272,-3.9272,-3.9272,-3.9272,-3.9272,-3.9901,-4.0545,-4.124,-4.242,-4.2706,-3.3326,-3.3326,-3.3326,-3.3326,-3.3326,-3.3326,-3.3326,-3.3396,0.0,0.0,0.0,0.0,0.0,0.0,0.0,0.0,0.0,0.0,0.0,0.0,0.0,0.0,0.0,0.0,0.0,0.0,0.0,0.0,0.0,0.0,0.0,0.0,0.0,-3.3817,-3.3212,-3.2438,-3.1641,-3.0722,-3.0216,-3.0216,-3.0216,-3.0216,-3.0216,-3.0216,-3.0216,0.0,0.0,-3.1637,-3.2401,-3.3129,-3.381,-3.4397,-3.4397,-3.4397,-3.4397,-3.4397,-3.4397,-3.4397,-3.4397,-3.5494,-3.688,-3.688,-3.7994,-3.9424,-3.9424,-3.9424,-3.9424,-3.9424,-3.9424,-3.9424,-3.9424,-3.9424,-3.9424,-3.9424,-3.9424,-3.9424,-3.9424,-3.9424,-3.9424,-3.9424,-3.9424,-3.9424,-3.9424,-3.9424,-3.9424,-3.9424,-3.9424,-3.917,-3.8482,-3.7898,-3.7285,-3.6567,-3.5983,-3.6143,-3.731,-3.7429,-3.7953,-3.9218,-3.9272,-3.9272,-3.9272,-3.9272,-3.9272,-3.9272,-3.9272,-3.9272,-3.9272,-3.9388,-3.9776,-4.039,-4.069,-4.1108,-3.3326,-3.3326,-3.3326,-3.3326,-3.3326,-3.3326,-3.3326,-3.3326,0.0,0.0,0.0,0.0,0.0,0.0,0.0,0.0,0.0,0.0,0.0,0.0,0.0,0.0,0.0,0.0,0.0,0.0,0.0,0.0,0.0,0.0,0.0,0.0,0.0,0.0,-3.3733,-3.2968,-3.2314,-3.1701,-3.1181,-3.0758,-3.1181,-3.1347,-3.1347,-3.0925,-3.1015,-3.1347,0.0,-3.2239,-3.2945,-3.3641,-3.4147,-3.4397,-3.4397,-3.4397,-3.4397,-3.4397,-3.4397,-3.4397,-3.4397,-3.5494,-3.688,-3.688,-3.7994,-3.9424,-3.9424,-3.9424,-3.9424,-3.9424,-3.9424,-3.9424,-3.9424,-3.9424,-3.9424,-3.9424,-3.9424,-3.9424,-3.9424,-3.9424,-3.9424,-3.9424,-3.9424,-3.9424,-3.9424,-3.9424,-3.9424,-3.9424,-3.9424,-3.905,-3.7988,-3.7599,-3.703,-3.6058,-3.5978,-3.6383,-3.731,-3.7706,-3.8294,-3.9218,-3.9272,-3.9272,-3.9272,-3.9272,-3.9272,-3.9272,-3.9272,-3.9272,-3.9272,-3.9379,-3.952,-3.9816,-4.022,-4.0466,-3.3521,-3.3382,-3.3326,-3.3326,0.0,-3.3326,-3.3326,-3.3326,0.0,0.0,0.0,0.0,0.0,0.0,0.0,0.0,0.0,0.0,0.0,0.0,0.0,0.0,0.0,0.0,0.0,0.0,0.0,0.0,0.0,0.0,0.0,0.0,0.0,0.0,-3.4498,-3.3843,-3.3275,-3.3177,-3.2562,-3.1548,-3.2052,-3.2302,-3.2314,-3.1813,-3.1801,-3.2302,-3.2488,-3.2859,-3.3484,-3.4147,-3.4397,-3.4397,-3.4397,-3.4397,-3.4397,-3.4397,-3.4397,-3.4397,-3.4634,-3.5642,-3.6958,-3.7127,-3.8234,-3.9424,-3.9424,-3.9424,-3.9424,-3.9424,-3.9424,-3.9424,-3.9424,-3.9424,-3.9424,-3.9424,-3.9424,-3.9424,-3.9424,-3.9424,-3.9424,-3.9424,-3.9424,-3.9424,-3.9424,-3.9424,-3.9424,-3.9424,-3.929,-3.8751,-3.7554,-3.7285,-3.6761,-3.5624,-3.591,-3.6554,-3.731,-3.8124,-3.8772,-3.9272,-3.9272,-3.9272,-3.9272,-3.9272,-3.9272,-3.9272,-3.9272,-3.9325,-3.9325,-3.9448,-3.9501,-3.9537,-4.0037,-4.0104,-3.4016,-3.3701,-3.3326,-3.3326,-3.3326,-3.3326,-3.3326,-3.3326,0.0,-3.3382,0.0,0.0,0.0,0.0,0.0,0.0,0.0,0.0,0.0,0.0,0.0,0.0,0.0,0.0,0.0,0.0,0.0,0.0,0.0,0.0,0.0,0.0,0.0,0.0,0.0,-3.5857,-3.5142,-3.5359,-3.4358,-3.2215,-3.2314,-3.2302,-3.2302,-3.2215,-3.2215,-3.2302,-3.3031,-3.3313,-3.3484,-3.4147,-3.4397,-3.4397,-3.4397,-3.4397,-3.4397,-3.4397,-3.4397,-3.4564,-3.5345,-3.6201,-3.7049,-3.7872,-3.8649,-3.9424,-3.9424,-3.9424,-3.9424,-3.9424,-3.9424,-3.9424,-3.9424,-3.9424,-3.9424,-3.9424,-3.9424,-3.9424,-3.9424,-3.9424,-3.9424,-3.9424,-3.9424,-3.9424,-3.9424,-3.9424,-3.9424,-3.9424,-3.8871,-3.8212,-3.7494,-3.6911,-3.6282,-3.5579,-3.5569,-3.6085,-3.731,-3.8495,-3.9272,-3.9272,-3.9272,-3.9272,-3.9272,-3.9272,-3.9272,-3.9272,-3.9272,-3.9379,-3.9501,-3.9501,-3.9537,-3.9677,-3.9729,-3.9781,-3.407,-3.3701,-3.3326,-3.3326,-3.3326,0.0,0.0,-3.3326,-3.3326,-3.3326,-3.3803,0.0,0.0,0.0,0.0,0.0,0.0,0.0,0.0,0.0,0.0,0.0,0.0,0.0,0.0,0.0,0.0,0.0,0.0,0.0,0.0,0.0,0.0,0.0,0.0,-3.6138,-3.5521,-3.5629,-3.5127,-3.4037,-3.4037,-3.3869,-3.3615,-3.3189,-3.3189,-3.3615,-3.3471,-3.3654,-3.4063,-3.4314,-3.4397,-3.4397,-3.4397,-3.4397,-3.4397,-3.4397,-3.4397,-3.4481,-3.4799,-3.5803,-3.6958,-3.7295,-3.8323,-3.9424,-3.9424,-3.9424,-3.9424,-3.9424,-3.9424,-3.9424,-3.9424,-3.9424,-3.9424,-3.9424,-3.9424,-3.9424,-3.9424,-3.9424,-3.9424,-3.9424,-3.9424,-3.9424,-3.9424,-3.9424,-3.9424,-3.9424,-3.8841,-3.8153,-3.7494,-3.6866,-3.6237,-3.5579,-3.5861,-3.6554,-3.7822,-3.8407,-3.8662,-3.8662,-3.9077,-3.9272,-3.9272,-3.9272,-3.9272,-3.9272,-3.9379,-3.9448,-3.9501,-3.9659,-3.9694,-3.959,-3.9746,-3.9798,-3.4206,-3.3825,-3.3507,-3.3312,0.0,0.0,-3.3326,-3.3326,-3.3326,-3.3326,-3.3803,0.0,0.0,0.0,0.0,0.0,0.0,0.0,0.0,0.0,0.0,0.0,0.0,0.0,0.0,0.0,0.0,0.0,0.0,0.0,0.0,0.0,0.0,0.0,0.0,0.0,-3.6111,-3.5965,-3.5723,-3.5318,-3.5154,-3.4825,-3.4397,-3.3894,-3.3979,-3.4397,-3.3894,-3.3979,-3.4397,-3.4397,-3.4397,-3.4397,-3.4397,-3.4397,-3.4397,-3.4397,-3.4397,-3.4481,-3.4716,-3.5722,-3.6972,-3.7204,-3.8234,-3.9424,-3.9424,-3.9424,-3.9424,-3.9424,-3.9424,-3.9424,-3.9424,-3.9424,-3.9424,-3.9424,-3.9424,-3.9424,-3.9424,-3.9424,-3.9424,-3.9424,-3.9424,-3.9424,-3.9424,-3.9424,-3.9349,-3.9125,-3.8512,-3.7838,-3.721,-3.6567,-3.6013,-3.5549,-3.6022,-3.6829,-3.7937,-3.8165,-3.8278,-3.8278,-3.8952,-3.9202,-3.8969,-3.9202,-3.9272,-3.9272,-3.9432,-3.9501,-3.9501,-3.9746,-3.9746,-3.959,-3.9746,-3.9781,-3.4409,-3.407,-3.3948,0.0,0.0,0.0,-3.3326,-3.3326,-3.3326,-3.3326,0.0,0.0,0.0,0.0,0.0,0.0,0.0,0.0,0.0,0.0,0.0,0.0,0.0,0.0,0.0,0.0,0.0,0.0,0.0,0.0,0.0,0.0,0.0,0.0,0.0,0.0,-3.6978,-3.6615,-3.6152,-3.571,-3.5318,-3.4825,-3.4397,-3.4397,-3.4397,-3.4397,-3.4397,-3.4397,-3.4397,-3.4397,-3.4397,-3.4397,-3.4397,-3.4397,-3.4397,-3.4397,-3.4397,-3.4564,-3.5426,-3.6201,-3.7049,-3.7872,-3.8738,-3.9424,-3.9424,-3.9424,-3.9424,-3.9424,-3.9424,-3.9424,-3.9424,-3.9424,-3.9424,-3.9424,-3.9424,-3.9424,-3.9424,-3.9424,-3.9424,-3.9424,-3.9424,-3.9424,-3.9409,-3.9409,-3.917,-3.8482,-3.7823,-3.718,-3.6552,-3.5908,-3.5504,-3.5504,-3.6022,-3.6662,-3.737,-3.7937,-3.8278,-3.8278,-3.8898,-3.8969,-3.8351,-3.8952,-3.9272,-3.9272,-3.9432,-3.9501,-3.9501,-3.9642,-3.9677,-3.9677,-3.9677,-3.9781,-3.4876,-3.4409,0.0,0.0,0.0,0.0,0.0,-3.3326,0.0,0.0,0.0,0.0,0.0,0.0,0.0,0.0,0.0,0.0,0.0,0.0,0.0,0.0,0.0,0.0,0.0,0.0,0.0,0.0,0.0,0.0,0.0,0.0,0.0,0.0,0.0,0.0,-3.6549,-3.6138,-3.5723,-3.5318,-3.5154,-3.4825,-3.4397,-3.4397,-3.4397,-3.4397,-3.4397,-3.4397,-3.4397,-3.4397,-3.4397,-3.4397,-3.4397,-3.4397,-3.4397,-3.4397,-3.4397,-3.4481,-3.4716,-3.5722,-3.6958,-3.7204,-3.8234,-3.9424,-3.9424,-3.9424,-3.9424,-3.9424,-3.9424,-3.9424,-3.9424,-3.9424,-3.9424,-3.9424,-3.9424,-3.9424,-3.9424,-3.9424,-3.9424,-3.9424,-3.9424,-3.9275,-3.8781,-3.8691,-3.8467,-3.7808,-3.7165,-3.6706,-3.6466,-3.627,-3.6148,-3.6148,-3.591,-3.6211,-3.731,-3.7131,-3.7175,-3.7663,-3.7838,-3.8067,-3.8278,-3.8952,-3.9272,-3.9272,-3.9432,-3.9501,-3.9501,-3.9746,-3.9781,-3.9729,-3.9867,-3.9935,-3.481,0.0,0.0,0.0,0.0,0.0,0.0,0.0,0.0,0.0,0.0,0.0,0.0,0.0,0.0,0.0,0.0,0.0,0.0,0.0,0.0,0.0,0.0,0.0,0.0,0.0,0.0,0.0,0.0,0.0,0.0,0.0,0.0,0.0,0.0,0.0,-3.6138,-3.5642,-3.5318,-3.5086,-3.4908,-3.466,-3.4397,-3.4397,-3.4397,-3.4397,-3.4397,-3.4397,-3.4397,-3.4397,-3.4397,-3.4397,-3.4397,-3.4397,-3.4397,-3.4397,-3.4397,-3.4397,-3.4397,-3.5494,-3.688,-3.688,-3.7994,-3.9424,-3.9424,-3.923,-3.9005,-3.9005,-3.8826,-3.8616,-3.8616,-3.8616,-3.8691,-3.8945,-3.9005,-3.8931,-3.8676,-3.8616,-3.8616,-3.8616,-3.8616,-3.8552,-3.8394,-3.8402,-3.8228,-3.7892,-3.7284,-3.6718,-3.6414,-3.643,-3.6305,-3.6085,-3.5748,-3.591,-3.6906,-3.6662,-3.6538,-3.6951,-3.7251,-3.7413,-3.7531,-3.8423,-3.9023,-3.9272,-3.9432,-3.9501,-3.9448,-3.9694,-3.9781,-3.9729,-3.9935,-3.9986,-3.4543,0.0,0.0,0.0,0.0,0.0,0.0,0.0,0.0,0.0,0.0,0.0,0.0,0.0,0.0,0.0,0.0,0.0,0.0,0.0,0.0,0.0,0.0,0.0,0.0,0.0,0.0,0.0,0.0,0.0,0.0,0.0,0.0,0.0,0.0,0.0,-3.5791,-3.5397,-3.515,0.0,-3.4721,-3.4554,-3.4554,-3.445,-3.4397,-3.4397,-3.4397,-3.4397,-3.4397,-3.4397,-3.4397,-3.4397,-3.4397,-3.4397,-3.4397,-3.4397,-3.4397,-3.4397,-3.4397,-3.5494,-3.6866,-3.681,-3.7907,-3.932,-3.926,-3.8796,-3.8302,-3.8302,-3.7868,-3.7404,-3.7404,-3.7404,-3.7539,-3.8093,-3.8257,-3.8138,-3.7539,-3.7404,-3.7404,-3.7404,-3.7404,-3.7594,-3.8106,-3.8288,-3.8317,-3.8215,-3.7676,-3.7071,-3.6492,-3.643,-3.6196,-3.5619,-3.5504,-3.5733,-3.6368,-3.6368,-3.6368,-3.6368,-3.689,-3.7011,-3.643,-3.7648,-3.859,-3.9202,-3.9379,-3.9448,-3.9325,-3.9573,-3.9729,-3.9729,-3.9849,-3.9986,0.0,-3.5073,0.0,0.0,0.0,0.0,0.0,0.0,0.0,0.0,0.0,0.0,0.0,0.0,0.0,0.0,0.0,0.0,0.0,0.0,0.0,0.0,0.0,0.0,0.0,0.0,0.0,0.0,0.0,0.0,0.0,0.0,0.0,0.0,0.0,-3.7023,-3.6614,-3.6089,-3.5903,0.0,-3.5817,-3.573,-3.5704,-3.4816,-3.4397,-3.4397,-3.4397,-3.4397,-3.4397,-3.4397,-3.4397,-3.4397,-3.4397,-3.4397,-3.4397,-3.4397,-3.4397,-3.4397,-3.4397,-3.5494,-3.6796,-3.6318,-3.7228,-3.8512,-3.8003,-3.7734,-3.7629,-3.7629,-3.7524,-3.7404,-3.7404,-3.7404,-3.733,-3.6985,-3.727,-3.7584,-3.7434,-3.7404,-3.7404,-3.7404,-3.7404,-3.7323,-3.6962,-3.7303,-3.743,-3.694,-3.6708,-3.6538,-3.643,-3.643,-3.6368,-3.6196,-3.5797,-3.5733,-3.6368,-3.5973,-3.591,-3.6368,-3.6085,-3.6148,-3.6616,-3.7706,-3.8407,-3.8701,-3.9202,-3.9537,-3.9625,-3.9798,-3.9849,-3.9849,-3.9986,-4.0087,0.0,0.0,0.0,0.0,0.0,0.0,0.0,0.0,0.0,0.0,0.0,0.0,0.0,0.0,0.0,0.0,0.0,0.0,0.0,0.0,0.0,0.0,0.0,0.0,0.0,0.0,0.0,0.0,0.0,0.0,0.0,0.0,0.0,0.0,-3.7895,-3.7656,-3.7174,-3.6744,-3.6484,-3.6484,-3.6197,-3.6109,-3.6083,-3.5482,-3.5208,-3.5208,-3.5208,-3.5208,-3.5208,-3.5208,-3.5064,-3.4829,-3.4829,-3.4646,-3.4397,-3.4397,-3.4462,-3.4538,-3.4538,-3.5425,-3.6493,-3.6165,-3.688,-3.7853,-3.7509,-3.721,-3.6971,-3.6971,-3.6746,-3.6492,-3.6492,-3.6492,-3.6417,-3.6088,-3.6507,-3.6881,-3.6567,-3.6492,-3.6492,-3.6492,-3.6492,-3.6454,-3.6485,-3.6953,-3.7311,-3.6952,-3.6906,-3.6784,-3.643,-3.643,-3.6321,-3.6022,-3.5683,-3.5619,-3.5973,-3.5683,-3.5619,-3.5973,-3.5683,-3.5733,-3.618,-3.6935,-3.778,-3.8662,-3.8969,-3.9362,-3.9677,-3.9833,-3.9901,-3.9901,-4.0037,-4.007,0.0,0.0,0.0,0.0,0.0,0.0,0.0,0.0,0.0,0.0,0.0,0.0,0.0,0.0,0.0,0.0,0.0,0.0,0.0,0.0,0.0,0.0,0.0,0.0,0.0,0.0,0.0,0.0,0.0,0.0,0.0,0.0,-3.9215,-3.8242,-3.8255,-3.8073,-3.7605,-3.737,-3.7163,-3.7076,-3.6612,-3.641,-3.641,-3.641,-3.6305,-3.6109,-3.6109,-3.6109,-3.6109,-3.6109,-3.5848,-3.5417,-3.5221,-3.4842,-3.4371,-3.4175,-3.4271,-3.4546,-3.4546,-3.5278,-3.6157,-3.6056,-3.659,-3.7225,-3.712,-3.6716,-3.6312,-3.6312,-3.5923,-3.5504,-3.5504,-3.5504,-3.5504,-3.5504,-3.5923,-3.6178,-3.5624,-3.5504,-3.5504,-3.5504,-3.5504,-3.5733,-3.643,-3.6966,-3.7251,-3.737,-3.731,-3.7011,-3.6321,-3.6258,-3.6022,-3.5554,-3.5504,-3.5504,-3.5504,-3.5504,-3.5504,-3.5504,-3.5504,-3.5554,-3.5752,-3.6117,-3.7027,-3.8511,-3.8733,-3.9061,-3.9609,-3.9833,-3.9935,-3.9952,-4.0037,-4.007,0.0,0.0,0.0,0.0,0.0,0.0,0.0,0.0,0.0,0.0,0.0,0.0,0.0,0.0,0.0,0.0,0.0,0.0,0.0,0.0,0.0,0.0,0.0,0.0,0.0,0.0,0.0,0.0,0.0,0.0,0.0,-3.8678,-3.8767,-3.8145,-3.8684,-3.8546,-3.7704,-3.8109,-3.8196,-3.7769,-3.7665,-3.7665,-3.7665,-3.7665,-3.709,-3.6109,-3.6109,-3.6109,-3.6109,-3.6109,-3.6057,-3.59,-3.4907,-3.4463,-3.428,-3.3287,-3.333,-3.3937,-3.3937,-3.4915,-3.6085,-3.5534,-3.5942,-3.6507,-3.5923,-3.5699,-3.5639,-3.5639,-3.5579,-3.5504,-3.5504,-3.5504,-3.5504,-3.5504,-3.5564,-3.5609,-3.5534,-3.5504,-3.5504,-3.5504,-3.5504,-3.5846,-3.7071,-3.6845,-3.6723,-3.731,-3.6906,-3.6305,-3.5668,-3.5619,-3.5554,-3.5504,-3.5504,-3.5504,-3.5504,-3.5504,-3.5504,-3.5504,-3.5504,-3.5619,-3.5973,-3.6037,-3.6507,-3.7594,-3.8334,-3.8887,-3.9259,-3.9799,-4.007,-4.007,-4.007,-4.007,-3.535,0.0,0.0,0.0,0.0,0.0,0.0,0.0,0.0,0.0,0.0,0.0,0.0,0.0,0.0,0.0,0.0,0.0,0.0,0.0,0.0,0.0,0.0,0.0,0.0,0.0,0.0,0.0,0.0,0.0,-3.7386,-3.7494,-3.7393,-3.7137,-3.7579,-3.7561,-3.7151,-3.7498,-3.7352,-3.6894,-3.6894,-3.6894,-3.6881,-3.658,-3.6684,-3.7116,-3.7116,-3.692,-3.658,-3.624,-3.573,-3.5064,-3.4254,-3.3744,-3.3378,-3.2881,-3.3229,-3.3974,-3.3974,-3.4768,-3.5731,-3.5451,-3.5644,-3.5878,-3.5594,-3.5504,-3.5504,-3.5504,-3.5504,-3.5504,-3.5504,-3.5504,-3.5504,-3.5504,-3.5504,-3.5504,-3.5504,-3.5504,-3.5619,-3.591,-3.6321,-3.6723,-3.731,-3.7131,-3.7071,-3.737,-3.7131,-3.6829,-3.6616,-3.6258,-3.6022,-3.6022,-3.5668,-3.5504,-3.5504,-3.5504,-3.5554,-3.5604,-3.5589,-3.5782,-3.6085,-3.6037,-3.6274,-3.6892,-3.7605,-3.8222,-3.8684,-3.8957,-3.9295,-3.9592,-3.9592,-3.9799,0.0,0.0,0.0,0.0,0.0,0.0,0.0,0.0,0.0,0.0,0.0,0.0,0.0,0.0,0.0,0.0,0.0,0.0,0.0,0.0,0.0,0.0,0.0,0.0,0.0,0.0,0.0,0.0,0.0,0.0,-3.629,-3.62,-3.605,-3.5972,-3.6234,-3.6307,-3.6076,-3.6182,-3.6049,-3.5678,-3.5678,-3.5678,-3.5652,-3.5247,-3.5783,-3.7011,-3.7011,-3.6763,-3.6305,-3.5848,-3.5168,-3.4332,-3.3639,-3.3091,-3.2659,-3.258,-3.3145,-3.3902,-3.4115,-3.4748,-3.5504,-3.5504,-3.5504,-3.5504,-3.5504,-3.5504,-3.5504,-3.5504,-3.5504,-3.5504,-3.5504,-3.5504,-3.5504,-3.5504,-3.5504,-3.5504,-3.5504,-3.5504,-3.5619,-3.6085,-3.6723,-3.7131,-3.7131,-3.731,-3.737,-3.7191,-3.7131,-3.7071,-3.6966,-3.6492,-3.6196,-3.6196,-3.5797,-3.5504,-3.5504,-3.5504,-3.5554,-3.5688,-3.5688,-3.5879,-3.6211,-3.6085,-3.6163,-3.6492,-3.6952,-3.746,-3.8067,-3.8238,-3.8629,-3.9206,-3.9206,-3.9523,0.0,0.0,0.0,0.0,0.0,0.0,0.0,0.0,0.0,0.0,0.0,0.0,0.0,0.0,0.0,0.0,0.0,0.0,0.0,0.0,0.0,0.0,0.0,0.0,0.0,0.0,0.0,0.0,0.0,0.0,-3.4379,-3.4927,-3.5102,-3.4726,-3.5231,-3.5159,-3.43,-3.4449,-3.4489,-3.4489,-3.4489,-3.4489,-3.4489,-3.4463,-3.4502,-3.458,-3.458,-3.4554,-3.4528,-3.4502,-3.445,-3.4293,-3.3169,-3.2725,-3.2633,-3.2233,-3.2588,-3.3339,-3.4016,-3.4787,-3.5504,-3.5504,-3.5504,-3.5504,-3.5504,-3.5504,-3.5504,-3.5504,-3.5504,-3.5504,-3.5504,-3.5504,-3.5504,-3.5504,-3.5504,-3.5504,-3.5504,-3.5504,-3.5504,-3.5569,-3.6022,-3.643,-3.643,-3.6951,-3.7191,-3.6538,-3.643,-3.6258,-3.5683,-3.5569,-3.5569,-3.5569,-3.5504,-3.5504,-3.5504,-3.5504,-3.5554,-3.5688,-3.5688,-3.5879,-3.6211,-3.6196,-3.6289,-3.6492,-3.6554,-3.6831,-3.7476,-3.801,-3.8629,-3.9206,-3.9206,-3.9523,0.0,0.0,0.0,0.0,0.0,0.0,0.0,0.0,0.0,0.0,0.0,0.0,0.0,0.0,0.0,0.0,0.0,0.0,0.0,0.0,0.0,0.0,0.0,0.0,0.0,0.0,0.0,0.0,0.0,0.0,-3.3649,-3.3617,-3.3512,-3.3367,-3.3424,-3.3389,-3.3238,-3.3275,-3.33,-3.33,-3.33,-3.33,-3.33,-3.2921,-3.2751,-3.2738,-3.2372,-3.2842,-3.3849,-3.347,-3.3091,-3.2672,-3.1901,-3.1601,-3.1612,-3.1957,-3.2577,-3.3283,-3.4027,-3.4839,-3.5504,-3.5504,-3.5504,-3.5504,-3.5504,-3.5504,-3.5504,-3.5504,-3.5504,-3.5504,-3.5504,-3.5504,-3.5504,-3.5504,-3.5504,-3.5504,-3.5504,-3.5797,-3.6085,-3.6085,-3.6616,-3.7011,-3.7011,-3.7251,-3.731,-3.7071,-3.7011,-3.6951,-3.6723,-3.6305,-3.6085,-3.6085,-3.5733,-3.5504,-3.5504,-3.5604,-3.5718,-3.5894,-3.5958,-3.6148,-3.6352,-3.6414,-3.6414,-3.6492,-3.6492,-3.6616,-3.6831,-3.7058,-3.7445,-3.8026,-3.8026,-3.859,-3.5219,0.0,0.0,0.0,0.0,0.0,0.0,0.0,0.0,0.0,0.0,0.0,0.0,0.0,0.0,0.0,0.0,0.0,0.0,0.0,0.0,0.0,0.0,0.0,0.0,0.0,0.0,0.0,0.0,0.0,-3.3326,-3.2931,-3.2704,-3.2704,-3.23,-3.2177,-3.233,-3.2188,-3.2188,-3.2343,-3.2188,-3.2188,-3.233,-3.1808,-3.1548,-3.1535,-3.1143,-3.164,-3.2685,-3.228,-3.1901,-3.1522,-3.113,-3.0986,-3.1123,-3.2101,-3.2791,-3.3353,-3.4341,-3.5052,-3.5504,-3.5504,-3.5504,-3.5504,-3.5504,-3.5504,-3.5504,-3.5504,-3.5504,-3.5504,-3.5504,-3.5504,-3.5504,-3.5504,-3.5504,-3.5504,-3.5504,-3.5797,-3.6085,-3.6085,-3.66,-3.7011,-3.6784,-3.6951,-3.7027,-3.6784,-3.6784,-3.6784,-3.6784,-3.6368,-3.6085,-3.6085,-3.5733,-3.5504,-3.5539,-3.5638,-3.5831,-3.6022,-3.6148,-3.6274,-3.6492,-3.6492,-3.6492,-3.6492,-3.6492,-3.6492,-3.6492,-3.6492,-3.6846,-3.7417,-3.7417,-3.7911,0.0,0.0,0.0,0.0,0.0,0.0,0.0,0.0,0.0,0.0,0.0,0.0,0.0,0.0,0.0,0.0,0.0,0.0,0.0,0.0,0.0,0.0,0.0,0.0,0.0,0.0,0.0,0.0,0.0,-3.286,-3.3241,-3.2945,-3.2731,-3.2731,-3.2009,-3.1643,-3.1629,-3.1198,-3.1198,-3.1629,-3.1198,-3.1198,-3.1556,-3.1198,-3.0986,-3.0986,-3.0986,-3.0986,-3.0986,-3.0986,-3.0986,-3.0986,-3.1048,-3.1048,-3.1198,-3.2662,-3.3213,-3.3437,-3.5001,-3.5504,-3.5504,-3.5504,-3.5504,-3.5504,-3.5504,-3.5504,-3.5504,-3.5504,-3.5504,-3.5504,-3.5504,-3.5504,-3.5504,-3.5504,-3.5504,-3.5504,-3.5504,-3.5504,-3.5504,-3.5504,-3.5973,-3.6196,-3.5619,-3.5973,-3.6196,-3.5554,-3.5504,-3.5504,-3.5504,-3.5504,-3.5504,-3.5504,-3.5504,-3.5539,-3.5688,-3.5688,-3.5879,-3.6211,-3.6211,-3.6274,-3.6492,-3.6492,-3.6492,-3.6492,-3.6492,-3.6492,-3.6492,-3.6492,-3.6785,-3.7358,-3.7417,-3.7738,-3.5688,0.0,0.0,0.0,0.0,0.0,0.0,0.0,0.0,0.0,0.0,0.0,0.0,0.0,0.0,0.0,0.0,0.0,0.0,0.0,0.0,0.0,0.0,0.0,0.0,0.0,0.0,0.0,-3.3171,-3.3086,-3.286,-3.29,-3.2913,-3.2913,-3.2691,-3.2415,-3.1996,-3.185,-3.185,-3.1982,-3.1629,-3.1482,-3.1556,-3.1198,-3.0986,-3.0986,-3.0986,-3.0986,-3.0986,-3.0986,-3.0986,-3.1048,-3.1603,-3.1809,-3.1942,-3.3478,-3.3973,-3.4109,-3.5133,-3.5504,-3.5504,-3.5504,-3.5504,-3.5504,-3.5504,-3.5504,-3.5504,-3.5504,-3.5504,-3.5504,-3.5504,-3.5504,-3.5504,-3.5504,-3.5504,-3.5504,-3.5504,-3.5504,-3.5504,-3.5504,-3.5619,-3.5683,-3.5504,-3.5619,-3.5668,-3.5504,-3.5504,-3.5504,-3.5504,-3.5504,-3.5504,-3.5504,-3.5504,-3.5539,-3.5688,-3.5831,-3.6022,-3.6211,-3.6352,-3.6414,-3.6492,-3.6492,-3.6492,-3.6492,-3.6492,-3.6492,-3.6492,-3.6492,-3.6616,-3.6785,-3.7178,-3.746,0.0,0.0,0.0,0.0,0.0,0.0,0.0,-3.3326,0.0,0.0,0.0,0.0,0.0,0.0,0.0,0.0,0.0,0.0,0.0,0.0,0.0,0.0,0.0,0.0,0.0,0.0,0.0,0.0,-3.2731,-3.2503,-3.2273,-3.2673,-3.2791,-3.2643,-3.2496,-3.2381,-3.2213,-3.2064,-3.2198,-3.2603,-3.2213,-3.2004,-3.1915,-3.1491,-3.1346,-3.1468,-3.1123,-3.1198,-3.1468,-3.1123,-3.0986,-3.1048,-3.1809,-3.2074,-3.229,-3.3754,-3.4312,-3.4394,-3.5213,-3.5504,-3.5504,-3.5504,-3.5504,-3.5504,-3.5504,-3.5504,-3.5504,-3.5504,-3.5504,-3.5504,-3.5504,-3.5504,-3.5504,-3.5504,-3.5504,-3.5504,-3.5504,-3.5504,-3.5504,-3.5504,-3.5504,-3.5554,-3.5846,-3.5683,-3.5569,-3.5861,-3.5683,-3.5504,-3.5504,-3.5504,-3.5504,-3.5504,-3.5554,-3.5653,-3.5831,-3.5958,-3.6148,-3.6274,-3.6414,-3.6492,-3.6492,-3.6492,-3.6492,-3.6492,-3.6492,-3.6492,-3.6492,-3.6492,-3.6492,-3.6492,-3.6831,-3.7013,0.0,0.0,0.0,0.0,0.0,0.0,-3.3326,-3.3269,-3.3213,0.0,0.0,0.0,0.0,0.0,0.0,0.0,0.0,0.0,0.0,0.0,0.0,0.0,0.0,0.0,0.0,0.0,-3.2775,-3.2775,-3.2069,-3.1656,-3.1649,-3.2296,-3.2513,-3.2223,-3.1944,-3.2051,-3.2497,-3.2206,-3.2447,-3.3341,-3.3014,-3.2737,-3.2452,-3.2159,-3.2008,-3.2144,-3.1444,-3.1593,-3.2277,-3.1527,-3.1176,-3.1198,-3.1942,-3.229,-3.2492,-3.3891,-3.4461,-3.4528,-3.5279,-3.5504,-3.5504,-3.5504,-3.5504,-3.5504,-3.5504,-3.5504,-3.5504,-3.5504,-3.5504,-3.5504,-3.5504,-3.5504,-3.5504,-3.5504,-3.5504,-3.5504,-3.5504,-3.5504,-3.5504,-3.5504,-3.5504,-3.5683,-3.6196,-3.5861,-3.5683,-3.6196,-3.5846,-3.5504,-3.5504,-3.5504,-3.5504,-3.5504,-3.5653,-3.5767,-3.5973,-3.6148,-3.6274,-3.6492,-3.6492,-3.6492,-3.6492,-3.6492,-3.6492,-3.6492,-3.6492,-3.6492,-3.6492,-3.6492,-3.6492,-3.6492,-3.6492,-3.6492,0.0,0.0,0.0,0.0,0.0,0.0,-3.3326,-3.2932,-3.2595,0.0,0.0,0.0,0.0,0.0,0.0,0.0,0.0,0.0,0.0,0.0,0.0,0.0,0.0,0.0,0.0,0.0,-3.3171,-3.3171,-3.2431,-3.2051,-3.2235,-3.2399,-3.2549,-3.2847,-3.3096,-3.3225,-3.3348,-3.3274,-3.3424,-3.3792,-3.3688,-3.348,-3.309,-3.3063,-3.2828,-3.2567,-3.2424,-3.2787,-3.3471,-3.2874,-3.2327,-3.1942,-3.272,-3.3353,-3.3959,-3.4905,-3.5279,-3.5279,-3.5439,-3.5504,-3.5504,-3.5504,-3.5504,-3.5504,-3.5504,-3.5504,-3.5504,-3.5504,-3.5504,-3.5504,-3.5504,-3.5504,-3.5504,-3.5504,-3.5504,-3.5504,-3.5504,-3.5504,-3.5504,-3.5504,-3.5504,-3.5569,-3.5683,-3.5569,-3.5569,-3.5683,-3.5569,-3.5504,-3.5504,-3.5504,-3.5554,-3.5638,-3.5688,-3.5816,-3.6148,-3.6196,-3.6274,-3.6492,-3.6492,-3.6492,-3.6492,-3.6492,-3.6492,-3.6492,-3.6492,-3.6492,-3.6492,-3.6492,-3.6492,-3.6492,-3.6492,-3.6492,0.0,0.0,0.0,-3.3894,0.0,0.0,0.0,-3.2384,0.0,0.0,0.0,0.0,0.0,0.0,0.0,0.0,0.0,0.0,0.0,0.0,0.0,0.0,0.0,0.0,0.0,0.0,-3.1681,-3.1344,-3.1105,-3.094,-3.0837,-3.1043,-3.1103,-3.1129,-3.1642,-3.2011,-3.2307,-3.2885,-3.3336,-3.378,-3.4033,-3.3874,-3.3476,-3.345,-3.3357,-3.3223,-3.3274,-3.3725,-3.4458,-3.4228,-3.413,-3.4142,-3.3872,-3.3973,-3.438,-3.5198,-3.5504,-3.5504,-3.5504,-3.5504,-3.5504,-3.5504,-3.5504,-3.5504,-3.5504,-3.5504,-3.5504,-3.5504,-3.5504,-3.5504,-3.5504,-3.5504,-3.5504,-3.5504,-3.5504,-3.5504,-3.5504,-3.5504,-3.5504,-3.5504,-3.5504,-3.5619,-3.591,-3.5668,-3.5619,-3.591,-3.5668,-3.5504,-3.5504,-3.5504,-3.5554,-3.5688,-3.5767,-3.5958,-3.6211,-3.6274,-3.6414,-3.6492,-3.6492,-3.6492,-3.6492,-3.6492,-3.6492,-3.6492,-3.6492,-3.6492,-3.6492,-3.6492,-3.6492,-3.6492,-3.6492,-3.6492,0.0,0.0,0.0,0.0,0.0,-3.223,0.0,0.0,0.0,0.0,0.0,0.0,0.0,0.0,0.0,0.0,0.0,0.0,0.0,0.0,0.0,0.0,0.0,0.0,0.0,0.0,-3.0309,-2.9544,-2.9728,-2.9728,-2.9345,-2.9588,-2.9658,-2.9403,-2.9862,-3.0375,-3.0952,-3.1885,-3.2568,-3.3104,-3.3616,-3.359,-3.3091,-3.3275,-3.3581,-3.3815,-3.3987,-3.4651,-3.5487,-3.5404,-3.5741,-3.6193,-3.4976,-3.4569,-3.4785,-3.5323,-3.5504,-3.5504,-3.5504,-3.5415,-3.531,-3.531,-3.522,-3.5115,-3.5115,-3.5115,-3.5145,-3.5265,-3.531,-3.534,-3.5474,-3.5504,-3.5504,-3.5504,-3.5504,-3.5504,-3.5504,-3.5504,-3.5504,-3.5504,-3.5504,-3.5683,-3.6133,-3.5846,-3.5668,-3.6196,-3.5846,-3.5504,-3.5554,-3.5554,-3.5604,-3.5752,-3.5958,-3.61,-3.6274,-3.6414,-3.6492,-3.6492,-3.6492,-3.6492,-3.6492,-3.6492,-3.6492,-3.6492,-3.6492,-3.6492,-3.6492,-3.6492,-3.6492,-3.6492,-3.6492,-3.6492,0.0,0.0,0.0,0.0,-3.2047,0.0,0.0,0.0,0.0,0.0,0.0,0.0,0.0,0.0,0.0,0.0,0.0,0.0,0.0,0.0,0.0,0.0,0.0,0.0,0.0,0.0,0.0,-3.0364,-3.0282,-3.0019,-2.9345,-2.9588,-2.9771,-2.9714,-3.0142,-3.0465,-3.0711,-3.0844,-3.1069,-3.1287,-3.1704,-3.1704,-3.13,-3.2243,-3.3078,-3.3878,-3.4434,-3.5593,-3.691,-3.6346,-3.6219,-3.6365,-3.5502,-3.561,-3.6164,-3.5714,-3.5504,-3.5504,-3.5504,-3.51,-3.4592,-3.4592,-3.4203,-3.3724,-3.3724,-3.3724,-3.3844,-3.4427,-3.4592,-3.4741,-3.5355,-3.5504,-3.5504,-3.5504,-3.5504,-3.5504,-3.5504,-3.5504,-3.5504,-3.5504,-3.5504,-3.5504,-3.5554,-3.5569,-3.5554,-3.5752,-3.5604,-3.5554,-3.5638,-3.5703,-3.5767,-3.5973,-3.6085,-3.6274,-3.6429,-3.6492,-3.6492,-3.6492,-3.6492,-3.6492,-3.6492,-3.6492,-3.6492,-3.6492,-3.6492,-3.6492,-3.6492,-3.6492,-3.6492,-3.6492,-3.6492,-3.6492,0.0,0.0,0.0,0.0,0.0,0.0,0.0,0.0,-2.9996,0.0,0.0,0.0,0.0,0.0,0.0,0.0,0.0,0.0,0.0,0.0,0.0,0.0,0.0,0.0,0.0,0.0,0.0,0.0,0.0,-2.8582,-2.8255,-2.8379,-2.8447,-2.8447,-2.8982,-2.9273,-2.9385,-3.0388,-3.0796,-3.0503,-3.1396,-3.1556,-3.0986,-3.1448,-3.1823,-3.2288,-3.3403,-3.4234,-3.4939,-3.5561,-3.5867,-3.5878,-3.5103,-3.5258,-3.5893,-3.5609,-3.525,-3.4906,-3.4906,-3.4472,-3.3903,-3.3903,-3.3724,-3.3499,-3.3499,-3.3499,-3.3559,-3.3829,-3.4188,-3.4547,-3.4831,-3.5205,-3.5504,-3.5504,-3.5504,-3.5504,-3.5504,-3.5504,-3.5504,-3.5504,-3.5504,-3.5504,-3.5504,-3.5504,-3.5504,-3.5604,-3.5554,-3.5554,-3.5688,-3.5688,-3.5816,-3.6085,-3.6148,-3.6274,-3.6492,-3.6492,-3.6492,-3.6492,-3.6492,-3.6492,-3.6492,-3.6492,-3.6492,-3.6492,-3.6492,-3.6492,-3.6492,-3.6492,-3.6492,-3.6492,-3.6492,-3.6492,-3.2727,0.0,0.0,0.0,0.0,0.0,0.0,0.0,0.0,0.0,0.0,0.0,0.0,0.0,0.0,0.0,0.0,0.0,0.0,0.0,0.0,0.0,0.0,0.0,0.0,0.0,0.0,0.0,-2.7868,-2.7603,-2.7536,-2.7523,-2.7523,-2.7523,-2.8131,-2.8409,-2.8409,-2.9697,-3.014,-2.9689,-3.0383,-3.0597,-3.0322,-3.0481,-3.0844,-3.1483,-3.2695,-3.3388,-3.3661,-3.4786,-3.5115,-3.4906,-3.4397,-3.4517,-3.4951,-3.4951,-3.4637,-3.4203,-3.4203,-3.3784,-3.32,-3.3021,-3.2961,-3.2961,-3.2961,-3.2961,-3.2991,-3.317,-3.3709,-3.4247,-3.4427,-3.4996,-3.5504,-3.5504,-3.5504,-3.5504,-3.5504,-3.5504,-3.5504,-3.5504,-3.5504,-3.5504,-3.5504,-3.5554,-3.5539,-3.5539,-3.5539,-3.5604,-3.5767,-3.5752,-3.5879,-3.6148,-3.6274,-3.6352,-3.6492,-3.6492,-3.6492,-3.6492,-3.6492,-3.6492,-3.6492,-3.6492,-3.6492,-3.6492,-3.6492,-3.6492,-3.6492,-3.6492,-3.6492,-3.6492,-3.6492,-3.6492,0.0,0.0,0.0,-3.0672,0.0,0.0,0.0,0.0,-2.9602,0.0,0.0,0.0,0.0,0.0,0.0,-2.9602,0.0,0.0,0.0,0.0,0.0,0.0,0.0,0.0,0.0,0.0,0.0,-2.8587,-2.8276,-2.7881,-2.7523,-2.7523,-2.7523,-2.7523,-2.8118,-2.8509,-2.8509,-2.8549,-2.8563,-2.8563,-2.7948,-2.7961,-2.8617,-2.9185,-3.054,-3.2513,-3.31,-3.3768,-3.4439,-3.4502,-3.4128,-3.3559,-3.3529,-3.3544,-3.3559,-3.3559,-3.3544,-3.3529,-3.3529,-3.3095,-3.2437,-3.1809,-3.1541,-3.1541,-3.1541,-3.1541,-3.1676,-3.2362,-3.3021,-3.3679,-3.4307,-3.4996,-3.5504,-3.5504,-3.5504,-3.5504,-3.5504,-3.5504,-3.5504,-3.5504,-3.5504,-3.5504,-3.5504,-3.5589,-3.5688,-3.5688,-3.5688,-3.5767,-3.5973,-3.5973,-3.6022,-3.6196,-3.6352,-3.6492,-3.6492,-3.6492,-3.6492,-3.6492,-3.6492,-3.6492,-3.6492,-3.6492,-3.6492,-3.6492,-3.6492,-3.6492,-3.6492,-3.6492,-3.6492,-3.6492,-3.6492,-3.6492,0.0,0.0,-3.052,-3.0037,0.0,0.0,0.0,0.0,0.0,0.0,0.0,0.0,0.0,0.0,-2.9602,-2.9602,-2.9602,0.0,0.0,0.0,0.0,0.0,0.0,0.0,0.0,0.0,0.0,-2.8381,-2.7976,-2.7434,0.0,-2.7593,-2.8061,-2.7886,-2.8697,-2.9142,-2.9142,-2.958,-2.958,-2.9142,-2.9393,-2.9393,-2.9156,-2.9351,-2.9876,-3.0529,-3.1209,-3.162,-3.188,-3.2333,-3.2392,-3.2198,-3.2198,-3.2198,-3.2302,-3.317,-3.3215,-3.2781,-3.2347,-3.2048,-3.1824,-3.1541,-3.1482,-3.1482,-3.1482,-3.1482,-3.1526,-3.1735,-3.2332,-3.2901,-3.3125,-3.3993,-3.4816,-3.4816,-3.5175,-3.5504,-3.5504,-3.5504,-3.5504,-3.5504,-3.5504,-3.5554,-3.5589,-3.5703,-3.5703,-3.5604,-3.5782,-3.5894,-3.5973,-3.6085,-3.6211,-3.6352,-3.6492,-3.6492,-3.6492,-3.6492,-3.6492,-3.6492,-3.6492,-3.6492,-3.6492,-3.6492,-3.6492,-3.6492,-3.6492,-3.6492,-3.6492,-3.6045,-3.583,-3.5814,-3.5368,-3.5399,-3.0083,-3.0083,0.0,-2.9665,-2.9602,0.0,-2.9602,0.0,0.0,0.0,0.0,0.0,0.0,0.0,0.0,-2.9415,-2.954,-2.9602,0.0,-2.954,0.0,0.0,0.0,0.0,0.0,0.0,-2.8553,-2.7884,-2.7462,-2.7114,0.0,0.0,-2.82,-2.8377,-2.9106,-2.9661,-2.995,-3.0329,-3.0147,-2.9504,-2.9704,-2.958,-2.9142,-2.9142,-2.9393,-2.9889,-3.0329,-3.0644,-3.0896,-3.1351,-3.1482,-3.1482,-3.1482,-3.1482,-3.1571,-3.2482,-3.2527,-3.2108,-3.1616,-3.1482,-3.1482,-3.1482,-3.1482,-3.1482,-3.1482,-3.1482,-3.1526,-3.1824,-3.2183,-3.2557,-3.2796,-3.3499,-3.4128,-3.4128,-3.4457,-3.4861,-3.5085,-3.513,-3.5205,-3.5459,-3.5504,-3.5554,-3.5703,-3.5688,-3.5703,-3.5604,-3.5797,-3.5973,-3.5973,-3.6148,-3.6274,-3.6492,-3.6492,-3.6492,-3.6492,-3.6492,-3.6492,-3.6492,-3.6492,-3.6492,-3.6492,-3.6492,-3.6384,-3.6138,-3.6138,-3.6014,-3.5768,-3.5337,-3.5122,-3.5106,-3.4414,-3.4321]}]]